Wetterdaten: Samstag, 17.06.2017
Datum Zeit Temp. A. Pool Temp. Feuchte A. Luftdruck Regen Wind Richtung Richtung Sonnenschein ET UV Solar Taupunkt Windchill Windben Empfang
17.06.2017 00:00 19,1 C 24,4 C 52 % 1017,9 hPa 0,0 l/m 13,1 km/h (3 Bft) W 277 0 min 0,000 mm 0,0 UV-I 0 W/m 9,0 C 16,7 C 20,9 km/h (4 Bft) 97,56 %
17.06.2017 00:02 19,1 C 24,4 C 52 % 1017,9 hPa 0,0 l/m 11,4 km/h (2 Bft) W-SW 243 0 min 0,000 mm 0,0 UV-I 0 W/m 9,0 C 17,2 C 19,3 km/h (3 Bft) 95,56 %
17.06.2017 00:04 19,1 C 24,4 C 52 % 1017,9 hPa 0,0 l/m 16,8 km/h (3 Bft) W-NW 284 0 min 0,000 mm 0,0 UV-I 0 W/m 9,0 C 15,7 C 25,7 km/h (4 Bft) 100,00 %
17.06.2017 00:06 19,1 C 24,4 C 52 % 1017,9 hPa 0,0 l/m 15,1 km/h (3 Bft) W 259 0 min 0,000 mm 0,0 UV-I 0 W/m 9,0 C 16,1 C 24,1 km/h (4 Bft) 94,64 %
17.06.2017 00:08 19,1 C 24,4 C 52 % 1018,0 hPa 0,0 l/m 11,7 km/h (2 Bft) W-SW 254 0 min 0,000 mm 0,0 UV-I 0 W/m 9,0 C 17,1 C 20,9 km/h (4 Bft) 100,00 %
17.06.2017 00:10 19,1 C 24,4 C 52 % 1018,1 hPa 0,0 l/m 17,0 km/h (3 Bft) SW 236 0 min 0,000 mm 0,0 UV-I 0 W/m 9,0 C 15,7 C 24,1 km/h (4 Bft) 98,36 %
17.06.2017 00:12 19,1 C 24,4 C 52 % 1018,1 hPa 0,0 l/m 13,0 km/h (3 Bft) W-SW 251 0 min 0,000 mm 0,0 UV-I 0 W/m 9,0 C 16,7 C 20,9 km/h (4 Bft) 98,11 %
17.06.2017 00:14 19,0 C 24,4 C 52 % 1018,0 hPa 0,0 l/m 17,2 km/h (3 Bft) W-SW 242 0 min 0,000 mm 0,0 UV-I 0 W/m 8,9 C 15,5 C 27,4 km/h (4 Bft) 97,44 %
17.06.2017 00:16 19,0 C 24,4 C 52 % 1018,0 hPa 0,0 l/m 14,4 km/h (3 Bft) W 263 0 min 0,000 mm 0,0 UV-I 0 W/m 8,9 C 16,2 C 20,9 km/h (4 Bft) 100,00 %
17.06.2017 00:18 19,0 C 24,4 C 53 % 1018,0 hPa 0,0 l/m 13,8 km/h (3 Bft) W-NW 286 0 min 0,000 mm 0,0 UV-I 0 W/m 9,2 C 16,4 C 20,9 km/h (4 Bft) 94,87 %
17.06.2017 00:20 18,9 C 24,4 C 52 % 1018,1 hPa 0,0 l/m 11,5 km/h (2 Bft) SW 234 0 min 0,000 mm 0,0 UV-I 0 W/m 8,8 C 16,9 C 16,1 km/h (3 Bft) 98,11 %
17.06.2017 00:22 18,9 C 24,4 C 52 % 1018,0 hPa 0,0 l/m 13,3 km/h (3 Bft) W 259 0 min 0,000 mm 0,0 UV-I 0 W/m 8,8 C 16,4 C 20,9 km/h (4 Bft) 100,00 %
17.06.2017 00:24 18,9 C 24,4 C 53 % 1018,1 hPa 0,0 l/m 13,1 km/h (3 Bft) W-SW 241 0 min 0,000 mm 0,0 UV-I 0 W/m 9,1 C 16,4 C 22,5 km/h (4 Bft) 100,00 %
17.06.2017 00:26 18,9 C 24,4 C 53 % 1018,2 hPa 0,0 l/m 15,8 km/h (3 Bft) W 277 0 min 0,000 mm 0,0 UV-I 0 W/m 9,1 C 15,7 C 24,1 km/h (4 Bft) 98,00 %
17.06.2017 00:28 18,8 C 24,4 C 53 % 1018,1 hPa 0,0 l/m 14,7 km/h (3 Bft) W 263 0 min 0,000 mm 0,0 UV-I 0 W/m 9,0 C 15,9 C 22,5 km/h (4 Bft) 97,56 %
17.06.2017 00:30 18,8 C 24,4 C 53 % 1018,1 hPa 0,0 l/m 15,7 km/h (3 Bft) W-SW 252 0 min 0,000 mm 0,0 UV-I 0 W/m 9,0 C 15,6 C 29,0 km/h (5 Bft) 98,11 %
17.06.2017 00:32 18,8 C 24,4 C 52 % 1018,2 hPa 0,0 l/m 14,8 km/h (3 Bft) W-SW 246 0 min 0,000 mm 0,0 UV-I 0 W/m 8,7 C 15,8 C 27,4 km/h (4 Bft) 97,56 %
17.06.2017 00:34 18,8 C 24,4 C 53 % 1018,2 hPa 0,0 l/m 13,8 km/h (3 Bft) W-SW 244 0 min 0,000 mm 0,0 UV-I 0 W/m 9,0 C 16,1 C 22,5 km/h (4 Bft) 100,00 %
17.06.2017 00:36 18,8 C 24,4 C 52 % 1018,2 hPa 0,0 l/m 18,6 km/h (3 Bft) W 265 0 min 0,000 mm 0,0 UV-I 0 W/m 8,7 C 14,9 C 29,0 km/h (5 Bft) 94,74 %
17.06.2017 00:38 18,8 C 24,4 C 53 % 1018,3 hPa 0,0 l/m 15,4 km/h (3 Bft) W 268 0 min 0,000 mm 0,0 UV-I 0 W/m 9,0 C 15,7 C 22,5 km/h (4 Bft) 100,00 %
17.06.2017 00:40 18,7 C 24,4 C 53 % 1018,2 hPa 0,0 l/m 14,6 km/h (3 Bft) W-SW 254 0 min 0,000 mm 0,0 UV-I 0 W/m 8,9 C 15,8 C 22,5 km/h (4 Bft) 97,87 %
17.06.2017 00:42 18,7 C 24,4 C 53 % 1018,2 hPa 0,0 l/m 12,6 km/h (3 Bft) W-SW 255 0 min 0,000 mm 0,0 UV-I 0 W/m 8,9 C 16,3 C 17,7 km/h (3 Bft) 97,87 %
17.06.2017 00:44 18,7 C 24,4 C 53 % 1018,2 hPa 0,0 l/m 12,3 km/h (3 Bft) W 266 0 min 0,000 mm 0,0 UV-I 0 W/m 8,9 C 16,4 C 17,7 km/h (3 Bft) 100,00 %
17.06.2017 00:46 18,7 C 24,4 C 53 % 1018,2 hPa 0,0 l/m 11,9 km/h (2 Bft) W-SW 250 0 min 0,000 mm 0,0 UV-I 0 W/m 8,9 C 16,6 C 20,9 km/h (4 Bft) 98,00 %
17.06.2017 00:48 18,7 C 24,4 C 54 % 1018,2 hPa 0,0 l/m 11,0 km/h (2 Bft) SW 227 0 min 0,000 mm 0,0 UV-I 0 W/m 9,2 C 16,9 C 17,7 km/h (3 Bft) 96,23 %
17.06.2017 00:50 18,6 C 24,4 C 54 % 1018,2 hPa 0,0 l/m 12,1 km/h (2 Bft) W 275 0 min 0,000 mm 0,0 UV-I 0 W/m 9,1 C 16,4 C 19,3 km/h (3 Bft) 100,00 %
17.06.2017 00:52 18,6 C 24,4 C 54 % 1018,2 hPa 0,0 l/m 14,1 km/h (3 Bft) W-SW 251 0 min 0,000 mm 0,0 UV-I 0 W/m 9,1 C 15,8 C 24,1 km/h (4 Bft) 95,83 %
17.06.2017 00:54 18,6 C 24,4 C 53 % 1018,3 hPa 0,0 l/m 12,1 km/h (2 Bft) W 267 0 min 0,000 mm 0,0 UV-I 0 W/m 8,8 C 16,4 C 20,9 km/h (4 Bft) 97,87 %
17.06.2017 00:56 18,6 C 24,4 C 54 % 1018,3 hPa 0,0 l/m 13,8 km/h (3 Bft) W-SW 252 0 min 0,000 mm 0,0 UV-I 0 W/m 9,1 C 15,9 C 22,5 km/h (4 Bft) 100,00 %
17.06.2017 00:58 18,6 C 24,4 C 53 % 1018,3 hPa 0,0 l/m 12,7 km/h (3 Bft) W 269 0 min 0,000 mm 0,0 UV-I 0 W/m 8,8 C 16,2 C 19,3 km/h (3 Bft) 96,23 %
17.06.2017 01:00 18,5 C 24,4 C 54 % 1018,3 hPa 0,0 l/m 13,5 km/h (3 Bft) W-SW 254 0 min 0,102 mm 0,0 UV-I 0 W/m 9,0 C 15,8 C 20,9 km/h (4 Bft) 95,12 %
17.06.2017 01:02 18,5 C 24,4 C 54 % 1018,4 hPa 0,0 l/m 12,0 km/h (2 Bft) W-SW 249 0 min 0,000 mm 0,0 UV-I 0 W/m 9,0 C 16,3 C 25,7 km/h (4 Bft) 97,73 %
17.06.2017 01:04 18,5 C 24,4 C 53 % 1018,3 hPa 0,0 l/m 13,4 km/h (3 Bft) W-SW 249 0 min 0,000 mm 0,0 UV-I 0 W/m 8,7 C 15,9 C 27,4 km/h (4 Bft) 98,31 %
17.06.2017 01:06 18,5 C 24,4 C 54 % 1018,4 hPa 0,0 l/m 11,1 km/h (2 Bft) W-SW 249 0 min 0,000 mm 0,0 UV-I 0 W/m 9,0 C 16,6 C 20,9 km/h (4 Bft) 100,00 %
17.06.2017 01:08 18,4 C 24,4 C 54 % 1018,3 hPa 0,0 l/m 15,4 km/h (3 Bft) W 279 0 min 0,000 mm 0,0 UV-I 0 W/m 8,9 C 15,2 C 22,5 km/h (4 Bft) 100,00 %
17.06.2017 01:10 18,4 C 24,4 C 54 % 1018,4 hPa 0,0 l/m 12,8 km/h (3 Bft) W-SW 237 0 min 0,000 mm 0,0 UV-I 0 W/m 8,9 C 15,9 C 20,9 km/h (4 Bft) 100,00 %
17.06.2017 01:12 18,4 C 24,4 C 54 % 1018,4 hPa 0,0 l/m 14,1 km/h (3 Bft) W-SW 252 0 min 0,000 mm 0,0 UV-I 0 W/m 8,9 C 15,6 C 27,4 km/h (4 Bft) 100,00 %
17.06.2017 01:14 18,4 C 24,4 C 54 % 1018,3 hPa 0,0 l/m 11,6 km/h (2 Bft) W-SW 252 0 min 0,000 mm 0,0 UV-I 0 W/m 8,9 C 16,3 C 20,9 km/h (4 Bft) 100,00 %
17.06.2017 01:16 18,4 C 24,4 C 54 % 1018,3 hPa 0,0 l/m 14,7 km/h (3 Bft) W-NW 282 0 min 0,000 mm 0,0 UV-I 0 W/m 8,9 C 15,4 C 22,5 km/h (4 Bft) 97,44 %
17.06.2017 01:18 18,4 C 24,4 C 54 % 1018,3 hPa 0,0 l/m 15,2 km/h (3 Bft) W-SW 253 0 min 0,000 mm 0,0 UV-I 0 W/m 8,9 C 15,3 C 24,1 km/h (4 Bft) 100,00 %
17.06.2017 01:20 18,4 C 24,4 C 54 % 1018,3 hPa 0,0 l/m 13,9 km/h (3 Bft) W 261 0 min 0,000 mm 0,0 UV-I 0 W/m 8,9 C 15,6 C 20,9 km/h (4 Bft) 97,37 %
17.06.2017 01:22 18,3 C 24,4 C 54 % 1018,3 hPa 0,0 l/m 11,9 km/h (2 Bft) W-SW 252 0 min 0,000 mm 0,0 UV-I 0 W/m 8,8 C 16,1 C 20,9 km/h (4 Bft) 96,00 %
17.06.2017 01:24 18,3 C 24,4 C 54 % 1018,3 hPa 0,0 l/m 11,9 km/h (2 Bft) SW 220 0 min 0,000 mm 0,0 UV-I 0 W/m 8,8 C 16,1 C 17,7 km/h (3 Bft) 97,87 %
17.06.2017 01:26 18,3 C 24,4 C 54 % 1018,3 hPa 0,0 l/m 11,7 km/h (2 Bft) W-SW 244 0 min 0,000 mm 0,0 UV-I 0 W/m 8,8 C 16,2 C 24,1 km/h (4 Bft) 97,87 %
17.06.2017 01:28 18,3 C 24,4 C 55 % 1018,3 hPa 0,0 l/m 13,9 km/h (3 Bft) W-SW 243 0 min 0,000 mm 0,0 UV-I 0 W/m 9,1 C 15,5 C 22,5 km/h (4 Bft) 100,00 %
17.06.2017 01:30 18,3 C 24,4 C 55 % 1018,3 hPa 0,0 l/m 16,2 km/h (3 Bft) W 259 0 min 0,000 mm 0,0 UV-I 0 W/m 9,1 C 14,9 C 29,0 km/h (5 Bft) 94,74 %
17.06.2017 01:32 18,3 C 23,9 C 54 % 1018,3 hPa 0,0 l/m 13,8 km/h (3 Bft) W-NW 289 0 min 0,000 mm 0,0 UV-I 0 W/m 8,8 C 15,5 C 22,5 km/h (4 Bft) 94,64 %
17.06.2017 01:34 18,3 C 23,9 C 54 % 1018,3 hPa 0,0 l/m 12,6 km/h (3 Bft) W-SW 246 0 min 0,000 mm 0,0 UV-I 0 W/m 8,8 C 15,9 C 16,1 km/h (3 Bft) 94,87 %
17.06.2017 01:36 18,2 C 23,9 C 54 % 1018,3 hPa 0,0 l/m 13,0 km/h (3 Bft) SW 229 0 min 0,000 mm 0,0 UV-I 0 W/m 8,7 C 15,6 C 19,3 km/h (3 Bft) 92,00 %
17.06.2017 01:38 18,2 C 23,9 C 54 % 1018,3 hPa 0,0 l/m 12,2 km/h (2 Bft) SW 236 0 min 0,000 mm 0,0 UV-I 0 W/m 8,7 C 15,9 C 19,3 km/h (3 Bft) 93,62 %
17.06.2017 01:40 18,2 C 23,9 C 55 % 1018,3 hPa 0,0 l/m 15,1 km/h (3 Bft) W-NW 293 0 min 0,000 mm 0,0 UV-I 0 W/m 9,0 C 15,0 C 22,5 km/h (4 Bft) 95,12 %
17.06.2017 01:42 18,1 C 23,9 C 55 % 1018,2 hPa 0,0 l/m 14,2 km/h (3 Bft) W-NW 287 0 min 0,000 mm 0,0 UV-I 0 W/m 8,9 C 15,2 C 32,2 km/h (5 Bft) 94,44 %
17.06.2017 01:44 18,1 C 23,9 C 54 % 1018,3 hPa 0,0 l/m 12,3 km/h (3 Bft) NW 313 0 min 0,000 mm 0,0 UV-I 0 W/m 8,6 C 15,7 C 22,5 km/h (4 Bft) 95,45 %
17.06.2017 01:46 18,1 C 23,9 C 54 % 1018,3 hPa 0,0 l/m 12,9 km/h (3 Bft) W 272 0 min 0,000 mm 0,0 UV-I 0 W/m 8,6 C 15,6 C 17,7 km/h (3 Bft) 94,00 %
17.06.2017 01:48 18,1 C 23,9 C 54 % 1018,4 hPa 0,0 l/m 15,4 km/h (3 Bft) SW 229 0 min 0,000 mm 0,0 UV-I 0 W/m 8,6 C 14,8 C 25,7 km/h (4 Bft) 92,68 %
17.06.2017 01:50 18,1 C 23,9 C 54 % 1018,4 hPa 0,0 l/m 13,7 km/h (3 Bft) S-SW 207 0 min 0,000 mm 0,0 UV-I 0 W/m 8,6 C 15,3 C 25,7 km/h (4 Bft) 95,74 %
17.06.2017 01:52 18,1 C 23,9 C 54 % 1018,4 hPa 0,0 l/m 11,8 km/h (2 Bft) W-NW 292 0 min 0,000 mm 0,0 UV-I 0 W/m 8,6 C 15,9 C 17,7 km/h (3 Bft) 92,86 %
17.06.2017 01:54 18,1 C 23,9 C 54 % 1018,4 hPa 0,0 l/m 11,8 km/h (2 Bft) S 183 0 min 0,000 mm 0,0 UV-I 0 W/m 8,6 C 15,9 C 25,7 km/h (4 Bft) 95,45 %
17.06.2017 01:56 18,0 C 23,9 C 54 % 1018,5 hPa 0,0 l/m 13,1 km/h (3 Bft) W 262 0 min 0,000 mm 0,0 UV-I 0 W/m 8,6 C 15,4 C 22,5 km/h (4 Bft) 94,00 %
17.06.2017 01:58 18,0 C 23,9 C 55 % 1018,5 hPa 0,0 l/m 12,6 km/h (3 Bft) W 277 0 min 0,000 mm 0,0 UV-I 0 W/m 8,8 C 15,5 C 22,5 km/h (4 Bft) 94,29 %
17.06.2017 02:00 18,0 C 23,9 C 54 % 1018,4 hPa 0,0 l/m 12,7 km/h (3 Bft) W-SW 247 0 min 0,000 mm 0,0 UV-I 0 W/m 8,6 C 15,5 C 22,5 km/h (4 Bft) 96,00 %
17.06.2017 02:02 17,9 C 23,9 C 55 % 1018,5 hPa 0,0 l/m 14,4 km/h (3 Bft) W-SW 254 0 min 0,076 mm 0,0 UV-I 0 W/m 8,7 C 14,9 C 25,7 km/h (4 Bft) 93,18 %
17.06.2017 02:04 17,9 C 23,9 C 55 % 1018,5 hPa 0,0 l/m 13,3 km/h (3 Bft) W-NW 282 0 min 0,000 mm 0,0 UV-I 0 W/m 8,7 C 15,2 C 22,5 km/h (4 Bft) 95,74 %
17.06.2017 02:06 17,9 C 23,9 C 55 % 1018,5 hPa 0,0 l/m 9,7 km/h (2 Bft) W-SW 249 0 min 0,000 mm 0,0 UV-I 0 W/m 8,7 C 16,4 C 17,7 km/h (3 Bft) 93,62 %
17.06.2017 02:08 17,9 C 23,9 C 56 % 1018,5 hPa 0,0 l/m 11,7 km/h (2 Bft) SW 221 0 min 0,000 mm 0,0 UV-I 0 W/m 9,0 C 15,7 C 20,9 km/h (4 Bft) 95,56 %
17.06.2017 02:10 17,9 C 23,9 C 56 % 1018,5 hPa 0,0 l/m 12,3 km/h (3 Bft) W-SW 257 0 min 0,000 mm 0,0 UV-I 0 W/m 9,0 C 15,5 C 17,7 km/h (3 Bft) 96,15 %
17.06.2017 02:12 17,8 C 23,9 C 56 % 1018,5 hPa 0,0 l/m 13,6 km/h (3 Bft) W-SW 248 0 min 0,000 mm 0,0 UV-I 0 W/m 8,9 C 15,0 C 22,5 km/h (4 Bft) 96,23 %
17.06.2017 02:14 17,8 C 23,9 C 56 % 1018,5 hPa 0,0 l/m 16,4 km/h (3 Bft) W 281 0 min 0,000 mm 0,0 UV-I 0 W/m 8,9 C 14,2 C 29,0 km/h (5 Bft) 92,86 %
17.06.2017 02:16 17,8 C 23,9 C 56 % 1018,5 hPa 0,0 l/m 20,9 km/h (4 Bft) W-SW 255 0 min 0,000 mm 0,0 UV-I 0 W/m 8,9 C 13,2 C 37,0 km/h (5 Bft) 97,37 %
17.06.2017 02:18 17,8 C 23,9 C 56 % 1018,7 hPa 0,0 l/m 15,2 km/h (3 Bft) W-SW 250 0 min 0,000 mm 0,0 UV-I 0 W/m 8,9 C 14,5 C 22,5 km/h (4 Bft) 92,86 %
17.06.2017 02:20 17,8 C 23,9 C 56 % 1018,7 hPa 0,0 l/m 18,4 km/h (3 Bft) SW 234 0 min 0,000 mm 0,0 UV-I 0 W/m 8,9 C 13,7 C 29,0 km/h (5 Bft) 97,87 %
17.06.2017 02:22 17,8 C 23,9 C 56 % 1018,6 hPa 0,0 l/m 13,0 km/h (3 Bft) W-NW 284 0 min 0,000 mm 0,0 UV-I 0 W/m 8,9 C 15,2 C 22,5 km/h (4 Bft) 95,45 %
17.06.2017 02:24 17,7 C 23,9 C 57 % 1018,6 hPa 0,0 l/m 14,7 km/h (3 Bft) W-SW 239 0 min 0,000 mm 0,0 UV-I 0 W/m 9,1 C 14,5 C 22,5 km/h (4 Bft) 96,00 %
17.06.2017 02:26 17,7 C 23,9 C 56 % 1018,5 hPa 0,0 l/m 14,4 km/h (3 Bft) W-SW 238 0 min 0,000 mm 0,0 UV-I 0 W/m 8,8 C 14,6 C 29,0 km/h (5 Bft) 90,24 %
17.06.2017 02:28 17,7 C 23,9 C 56 % 1018,6 hPa 0,0 l/m 13,2 km/h (3 Bft) N-NW 338 0 min 0,000 mm 0,0 UV-I 0 W/m 8,8 C 15,0 C 24,1 km/h (4 Bft) 98,11 %
17.06.2017 02:30 17,6 C 23,9 C 56 % 1018,7 hPa 0,0 l/m 11,9 km/h (2 Bft) W-SW 247 0 min 0,000 mm 0,0 UV-I 0 W/m 8,7 C 15,3 C 24,1 km/h (4 Bft) 96,00 %
17.06.2017 02:32 17,6 C 23,9 C 57 % 1018,6 hPa 0,0 l/m 15,7 km/h (3 Bft) W 261 0 min 0,000 mm 0,0 UV-I 0 W/m 9,0 C 14,1 C 22,5 km/h (4 Bft) 97,37 %
17.06.2017 02:34 17,6 C 23,9 C 57 % 1018,5 hPa 0,0 l/m 13,7 km/h (3 Bft) W 269 0 min 0,000 mm 0,0 UV-I 0 W/m 9,0 C 14,7 C 20,9 km/h (4 Bft) 96,23 %
17.06.2017 02:36 17,6 C 23,9 C 57 % 1018,6 hPa 0,0 l/m 14,2 km/h (3 Bft) W 261 0 min 0,000 mm 0,0 UV-I 0 W/m 9,0 C 14,6 C 22,5 km/h (4 Bft) 95,74 %
17.06.2017 02:38 17,6 C 23,9 C 57 % 1018,6 hPa 0,0 l/m 15,4 km/h (3 Bft) SW 234 0 min 0,000 mm 0,0 UV-I 0 W/m 9,0 C 14,2 C 22,5 km/h (4 Bft) 96,00 %
17.06.2017 02:40 17,6 C 23,9 C 57 % 1018,7 hPa 0,0 l/m 15,0 km/h (3 Bft) SW 234 0 min 0,000 mm 0,0 UV-I 0 W/m 9,0 C 14,3 C 22,5 km/h (4 Bft) 97,37 %
17.06.2017 02:42 17,5 C 23,9 C 57 % 1018,7 hPa 0,0 l/m 12,8 km/h (3 Bft) W 265 0 min 0,000 mm 0,0 UV-I 0 W/m 8,9 C 14,9 C 24,1 km/h (4 Bft) 98,21 %
17.06.2017 02:44 17,4 C 23,9 C 57 % 1018,6 hPa 0,0 l/m 16,0 km/h (3 Bft) SW 227 0 min 0,000 mm 0,0 UV-I 0 W/m 8,8 C 13,8 C 32,2 km/h (5 Bft) 97,73 %
17.06.2017 02:46 17,4 C 23,9 C 57 % 1018,8 hPa 0,0 l/m 12,1 km/h (2 Bft) W-SW 239 0 min 0,000 mm 0,0 UV-I 0 W/m 8,8 C 15,0 C 19,3 km/h (3 Bft) 97,56 %
17.06.2017 02:48 17,4 C 23,9 C 57 % 1018,8 hPa 0,0 l/m 15,9 km/h (3 Bft) W-SW 247 0 min 0,000 mm 0,0 UV-I 0 W/m 8,8 C 13,8 C 22,5 km/h (4 Bft) 100,00 %
17.06.2017 02:50 17,4 C 23,9 C 57 % 1018,8 hPa 0,0 l/m 15,0 km/h (3 Bft) W-SW 250 0 min 0,000 mm 0,0 UV-I 0 W/m 8,8 C 14,1 C 25,7 km/h (4 Bft) 98,00 %
17.06.2017 02:52 17,3 C 23,9 C 57 % 1018,9 hPa 0,0 l/m 13,8 km/h (3 Bft) W 262 0 min 0,000 mm 0,0 UV-I 0 W/m 8,7 C 14,3 C 24,1 km/h (4 Bft) 97,22 %
17.06.2017 02:54 17,3 C 23,9 C 57 % 1018,8 hPa 0,0 l/m 12,5 km/h (3 Bft) NW 306 0 min 0,000 mm 0,0 UV-I 0 W/m 8,7 C 14,8 C 24,1 km/h (4 Bft) 100,00 %
17.06.2017 02:56 17,3 C 23,9 C 57 % 1018,9 hPa 0,0 l/m 19,2 km/h (3 Bft) W 265 0 min 0,000 mm 0,0 UV-I 0 W/m 8,7 C 12,9 C 35,4 km/h (5 Bft) 100,00 %
17.06.2017 02:58 17,3 C 23,9 C 57 % 1018,8 hPa 0,0 l/m 12,1 km/h (2 Bft) W 277 0 min 0,000 mm 0,0 UV-I 0 W/m 8,7 C 14,9 C 19,3 km/h (3 Bft) 98,11 %
17.06.2017 03:00 17,2 C 23,9 C 57 % 1018,9 hPa 0,0 l/m 9,3 km/h (2 Bft) W-NW 291 0 min 0,076 mm 0,0 UV-I 0 W/m 8,6 C 15,8 C 16,1 km/h (3 Bft) 100,00 %
17.06.2017 03:02 17,2 C 23,9 C 57 % 1018,9 hPa 0,0 l/m 16,0 km/h (3 Bft) W 263 0 min 0,000 mm 0,0 UV-I 0 W/m 8,6 C 13,6 C 27,4 km/h (4 Bft) 97,37 %
17.06.2017 03:04 17,1 C 23,9 C 58 % 1018,9 hPa 0,0 l/m 15,9 km/h (3 Bft) W-SW 243 0 min 0,000 mm 0,0 UV-I 0 W/m 8,8 C 13,5 C 27,4 km/h (4 Bft) 97,87 %
17.06.2017 03:06 17,1 C 23,9 C 57 % 1018,9 hPa 0,0 l/m 15,5 km/h (3 Bft) W-NW 283 0 min 0,000 mm 0,0 UV-I 0 W/m 8,5 C 13,6 C 24,1 km/h (4 Bft) 100,00 %
17.06.2017 03:08 17,1 C 23,9 C 57 % 1019,0 hPa 0,0 l/m 13,8 km/h (3 Bft) W 281 0 min 0,000 mm 0,0 UV-I 0 W/m 8,5 C 14,1 C 24,1 km/h (4 Bft) 98,11 %
17.06.2017 03:10 17,0 C 23,9 C 57 % 1018,9 hPa 0,0 l/m 11,5 km/h (2 Bft) W-NW 290 0 min 0,000 mm 0,0 UV-I 0 W/m 8,4 C 14,8 C 22,5 km/h (4 Bft) 100,00 %
17.06.2017 03:12 16,9 C 23,9 C 58 % 1019,0 hPa 0,0 l/m 8,3 km/h (2 Bft) W 274 0 min 0,000 mm 0,0 UV-I 0 W/m 8,6 C 16,0 C 12,9 km/h (3 Bft) 98,21 %
17.06.2017 03:14 16,9 C 23,9 C 58 % 1019,0 hPa 0,0 l/m 13,4 km/h (3 Bft) W 264 0 min 0,000 mm 0,0 UV-I 0 W/m 8,6 C 14,0 C 20,9 km/h (4 Bft) 100,00 %
17.06.2017 03:16 16,8 C 23,9 C 58 % 1019,0 hPa 0,0 l/m 11,6 km/h (2 Bft) W-SW 237 0 min 0,000 mm 0,0 UV-I 0 W/m 8,5 C 14,5 C 20,9 km/h (4 Bft) 98,00 %
17.06.2017 03:18 16,8 C 23,9 C 58 % 1019,0 hPa 0,0 l/m 9,7 km/h (2 Bft) SW 224 0 min 0,000 mm 0,0 UV-I 0 W/m 8,5 C 15,2 C 14,5 km/h (3 Bft) 97,87 %
17.06.2017 03:20 16,8 C 23,9 C 58 % 1019,0 hPa 0,0 l/m 10,9 km/h (2 Bft) W-SW 246 0 min 0,000 mm 0,0 UV-I 0 W/m 8,5 C 14,8 C 17,7 km/h (3 Bft) 97,73 %
17.06.2017 03:22 16,7 C 23,9 C 58 % 1019,0 hPa 0,0 l/m 12,8 km/h (3 Bft) W-NW 296 0 min 0,000 mm 0,0 UV-I 0 W/m 8,4 C 14,0 C 24,1 km/h (4 Bft) 98,11 %
17.06.2017 03:24 16,7 C 23,9 C 58 % 1019,1 hPa 0,0 l/m 13,0 km/h (3 Bft) W-NW 288 0 min 0,000 mm 0,0 UV-I 0 W/m 8,4 C 13,9 C 22,5 km/h (4 Bft) 97,73 %
17.06.2017 03:26 16,7 C 23,9 C 59 % 1019,0 hPa 0,0 l/m 10,8 km/h (2 Bft) W-NW 282 0 min 0,000 mm 0,0 UV-I 0 W/m 8,6 C 14,7 C 19,3 km/h (3 Bft) 100,00 %
17.06.2017 03:28 16,6 C 23,9 C 58 % 1019,1 hPa 0,0 l/m 13,9 km/h (3 Bft) W 261 0 min 0,000 mm 0,0 UV-I 0 W/m 8,3 C 13,5 C 22,5 km/h (4 Bft) 94,34 %
17.06.2017 03:30 16,6 C 23,9 C 59 % 1019,1 hPa 0,0 l/m 12,6 km/h (3 Bft) W-SW 242 0 min 0,000 mm 0,0 UV-I 0 W/m 8,6 C 13,9 C 29,0 km/h (5 Bft) 95,24 %
17.06.2017 03:32 16,6 C 23,9 C 59 % 1019,1 hPa 0,0 l/m 10,8 km/h (2 Bft) W-SW 249 0 min 0,000 mm 0,0 UV-I 0 W/m 8,6 C 14,6 C 14,5 km/h (3 Bft) 96,00 %
17.06.2017 03:34 16,5 C 23,9 C 59 % 1019,1 hPa 0,0 l/m 12,7 km/h (3 Bft) W-SW 238 0 min 0,000 mm 0,0 UV-I 0 W/m 8,5 C 13,8 C 16,1 km/h (3 Bft) 97,87 %
17.06.2017 03:36 16,5 C 23,9 C 59 % 1019,1 hPa 0,0 l/m 13,5 km/h (3 Bft) W-SW 255 0 min 0,000 mm 0,0 UV-I 0 W/m 8,5 C 13,5 C 24,1 km/h (4 Bft) 96,00 %
17.06.2017 03:38 16,4 C 23,9 C 59 % 1019,0 hPa 0,0 l/m 15,8 km/h (3 Bft) W 278 0 min 0,000 mm 0,0 UV-I 0 W/m 8,4 C 12,7 C 22,5 km/h (4 Bft) 95,12 %
17.06.2017 03:40 16,4 C 23,9 C 59 % 1019,0 hPa 0,0 l/m 13,6 km/h (3 Bft) W 279 0 min 0,000 mm 0,0 UV-I 0 W/m 8,4 C 13,3 C 22,5 km/h (4 Bft) 100,00 %
17.06.2017 03:42 16,4 C 23,9 C 60 % 1019,0 hPa 0,0 l/m 13,7 km/h (3 Bft) W 268 0 min 0,000 mm 0,0 UV-I 0 W/m 8,6 C 13,3 C 19,3 km/h (3 Bft) 94,34 %
17.06.2017 03:44 16,4 C 23,9 C 60 % 1019,1 hPa 0,0 l/m 10,9 km/h (2 Bft) W-SW 241 0 min 0,000 mm 0,0 UV-I 0 W/m 8,6 C 14,3 C 17,7 km/h (3 Bft) 96,43 %
17.06.2017 03:46 16,4 C 23,9 C 60 % 1019,0 hPa 0,0 l/m 12,3 km/h (3 Bft) W-SW 245 0 min 0,000 mm 0,0 UV-I 0 W/m 8,6 C 13,8 C 19,3 km/h (3 Bft) 97,56 %
17.06.2017 03:48 16,3 C 23,9 C 60 % 1019,1 hPa 0,0 l/m 13,0 km/h (3 Bft) SW 228 0 min 0,000 mm 0,0 UV-I 0 W/m 8,5 C 13,4 C 22,5 km/h (4 Bft) 94,00 %
17.06.2017 03:50 16,3 C 23,9 C 61 % 1019,1 hPa 0,0 l/m 14,4 km/h (3 Bft) W-SW 253 0 min 0,000 mm 0,0 UV-I 0 W/m 8,8 C 13,0 C 19,3 km/h (3 Bft) 97,37 %
17.06.2017 03:52 16,3 C 23,9 C 61 % 1019,1 hPa 0,0 l/m 12,4 km/h (3 Bft) SW 232 0 min 0,000 mm 0,0 UV-I 0 W/m 8,8 C 13,6 C 19,3 km/h (3 Bft) 94,83 %
17.06.2017 03:54 16,3 C 23,9 C 61 % 1019,1 hPa 0,0 l/m 12,1 km/h (2 Bft) W 265 0 min 0,000 mm 0,0 UV-I 0 W/m 8,8 C 13,7 C 17,7 km/h (3 Bft) 100,00 %
17.06.2017 03:56 16,3 C 23,9 C 61 % 1019,1 hPa 0,0 l/m 14,7 km/h (3 Bft) W-SW 248 0 min 0,000 mm 0,0 UV-I 0 W/m 8,8 C 12,9 C 27,4 km/h (4 Bft) 95,45 %
17.06.2017 03:58 16,3 C 23,9 C 61 % 1019,1 hPa 0,0 l/m 11,9 km/h (2 Bft) W-NW 289 0 min 0,000 mm 0,0 UV-I 0 W/m 8,8 C 13,8 C 22,5 km/h (4 Bft) 96,00 %
17.06.2017 04:00 16,2 C 23,9 C 61 % 1019,1 hPa 0,0 l/m 13,3 km/h (3 Bft) W 278 0 min 0,076 mm 0,0 UV-I 0 W/m 8,7 C 13,2 C 19,3 km/h (3 Bft) 98,00 %
17.06.2017 04:05 16,2 C 23,9 C 61 % 1019,2 hPa 0,0 l/m 11,7 km/h (2 Bft) W-SW 252 0 min 0,000 mm 0,0 UV-I 0 W/m 8,7 C 13,8 C 20,9 km/h (4 Bft) 96,92 %
17.06.2017 04:06 16,2 C 23,9 C 61 % 1019,2 hPa 0,0 l/m 13,5 km/h (3 Bft) W-SW 252 0 min 0,000 mm 0,0 UV-I 0 W/m 8,7 C 13,1 C 20,9 km/h (4 Bft) 100,00 %
17.06.2017 04:08 16,2 C 23,9 C 61 % 1019,2 hPa 0,0 l/m 10,9 km/h (2 Bft) W-SW 252 0 min 0,000 mm 0,0 UV-I 0 W/m 8,7 C 14,1 C 24,1 km/h (4 Bft) 98,00 %
17.06.2017 04:10 16,2 C 23,9 C 61 % 1019,2 hPa 0,0 l/m 12,8 km/h (3 Bft) W 259 0 min 0,000 mm 0,0 UV-I 0 W/m 8,7 C 13,4 C 20,9 km/h (4 Bft) 97,44 %
17.06.2017 04:12 16,2 C 23,9 C 61 % 1019,1 hPa 0,0 l/m 14,2 km/h (3 Bft) W-SW 240 0 min 0,000 mm 0,0 UV-I 0 W/m 8,7 C 12,9 C 25,7 km/h (4 Bft) 98,11 %
17.06.2017 04:14 16,2 C 23,9 C 62 % 1019,1 hPa 0,0 l/m 10,9 km/h (2 Bft) W-SW 251 0 min 0,000 mm 0,0 UV-I 0 W/m 8,9 C 14,1 C 17,7 km/h (3 Bft) 97,96 %
17.06.2017 04:16 16,2 C 23,9 C 61 % 1019,2 hPa 0,0 l/m 15,4 km/h (3 Bft) W 263 0 min 0,000 mm 0,0 UV-I 0 W/m 8,7 C 12,5 C 22,5 km/h (4 Bft) 100,00 %
17.06.2017 04:18 16,2 C 23,9 C 62 % 1019,2 hPa 0,0 l/m 13,5 km/h (3 Bft) W 267 0 min 0,000 mm 0,0 UV-I 0 W/m 8,9 C 13,1 C 25,7 km/h (4 Bft) 98,11 %
17.06.2017 04:20 16,2 C 23,9 C 61 % 1019,1 hPa 0,0 l/m 14,4 km/h (3 Bft) W 271 0 min 0,000 mm 0,0 UV-I 0 W/m 8,7 C 12,8 C 25,7 km/h (4 Bft) 100,00 %
17.06.2017 04:22 16,2 C 23,9 C 62 % 1019,1 hPa 0,0 l/m 14,4 km/h (3 Bft) W-SW 255 0 min 0,000 mm 0,0 UV-I 0 W/m 8,9 C 12,8 C 19,3 km/h (3 Bft) 95,45 %
17.06.2017 04:24 16,2 C 23,9 C 62 % 1019,2 hPa 0,0 l/m 11,6 km/h (2 Bft) SW 234 0 min 0,000 mm 0,0 UV-I 0 W/m 8,9 C 13,8 C 20,9 km/h (4 Bft) 98,11 %
17.06.2017 04:26 16,2 C 23,9 C 62 % 1019,2 hPa 0,0 l/m 11,5 km/h (2 Bft) SW 223 0 min 0,000 mm 0,0 UV-I 0 W/m 8,9 C 13,8 C 19,3 km/h (3 Bft) 97,56 %
17.06.2017 04:28 16,1 C 23,9 C 62 % 1019,1 hPa 0,0 l/m 13,6 km/h (3 Bft) W 281 0 min 0,000 mm 0,0 UV-I 0 W/m 8,8 C 13,0 C 25,7 km/h (4 Bft) 98,00 %
17.06.2017 04:30 16,1 C 23,3 C 62 % 1019,2 hPa 0,0 l/m 16,0 km/h (3 Bft) W-SW 244 0 min 0,000 mm 0,0 UV-I 0 W/m 8,8 C 12,2 C 24,1 km/h (4 Bft) 100,00 %
17.06.2017 04:32 16,1 C 23,3 C 62 % 1019,2 hPa 0,0 l/m 16,0 km/h (3 Bft) W-SW 249 0 min 0,000 mm 0,0 UV-I 0 W/m 8,8 C 12,2 C 24,1 km/h (4 Bft) 97,56 %
17.06.2017 04:34 16,1 C 23,3 C 62 % 1019,2 hPa 0,0 l/m 13,4 km/h (3 Bft) W-SW 255 0 min 0,000 mm 0,0 UV-I 0 W/m 8,8 C 13,0 C 24,1 km/h (4 Bft) 98,11 %
17.06.2017 04:36 16,1 C 23,3 C 62 % 1019,2 hPa 0,0 l/m 13,3 km/h (3 Bft) W-NW 292 0 min 0,000 mm 0,0 UV-I 0 W/m 8,8 C 13,1 C 20,9 km/h (4 Bft) 100,00 %
17.06.2017 04:38 16,1 C 23,3 C 63 % 1019,2 hPa 0,0 l/m 12,3 km/h (3 Bft) W-SW 246 0 min 0,000 mm 0,0 UV-I 0 W/m 9,1 C 13,4 C 19,3 km/h (3 Bft) 97,73 %
17.06.2017 04:40 16,0 C 23,3 C 63 % 1019,2 hPa 0,0 l/m 8,3 km/h (2 Bft) W-SW 252 0 min 0,000 mm 0,0 UV-I 0 W/m 9,0 C 15,0 C 12,9 km/h (3 Bft) 100,00 %
17.06.2017 04:42 16,0 C 23,3 C 63 % 1019,1 hPa 0,0 l/m 11,7 km/h (2 Bft) W-SW 249 0 min 0,000 mm 0,0 UV-I 0 W/m 9,0 C 13,5 C 17,7 km/h (3 Bft) 97,56 %
17.06.2017 04:44 15,9 C 23,3 C 63 % 1019,2 hPa 0,0 l/m 12,7 km/h (3 Bft) W-SW 241 0 min 0,000 mm 0,0 UV-I 0 W/m 8,9 C 13,1 C 19,3 km/h (3 Bft) 100,00 %
17.06.2017 04:46 15,9 C 23,3 C 63 % 1019,2 hPa 0,0 l/m 14,1 km/h (3 Bft) W-NW 286 0 min 0,000 mm 0,0 UV-I 0 W/m 8,9 C 12,6 C 19,3 km/h (3 Bft) 98,00 %
17.06.2017 04:48 15,9 C 23,3 C 63 % 1019,2 hPa 0,0 l/m 13,2 km/h (3 Bft) W-SW 254 0 min 0,000 mm 0,0 UV-I 0 W/m 8,9 C 12,9 C 22,5 km/h (4 Bft) 97,87 %
17.06.2017 04:50 15,9 C 23,3 C 63 % 1019,2 hPa 0,0 l/m 11,3 km/h (2 Bft) W 271 0 min 0,000 mm 0,0 UV-I 0 W/m 8,9 C 13,6 C 14,5 km/h (3 Bft) 100,00 %
17.06.2017 04:52 15,9 C 23,3 C 63 % 1019,2 hPa 0,0 l/m 13,1 km/h (3 Bft) W-SW 246 0 min 0,000 mm 0,0 UV-I 0 W/m 8,9 C 12,9 C 19,3 km/h (3 Bft) 98,08 %
17.06.2017 04:54 15,9 C 23,3 C 63 % 1019,3 hPa 0,0 l/m 15,7 km/h (3 Bft) W-SW 250 0 min 0,000 mm 0,0 UV-I 2 W/m 8,9 C 12,1 C 22,5 km/h (4 Bft) 100,00 %
17.06.2017 04:56 15,9 C 23,3 C 63 % 1019,4 hPa 0,0 l/m 14,9 km/h (3 Bft) SW 236 0 min 0,000 mm 0,0 UV-I 5 W/m 8,9 C 12,3 C 22,5 km/h (4 Bft) 95,12 %
17.06.2017 04:58 15,9 C 23,3 C 63 % 1019,4 hPa 0,0 l/m 16,0 km/h (3 Bft) W-SW 239 0 min 0,000 mm 0,0 UV-I 5 W/m 8,9 C 12,0 C 27,4 km/h (4 Bft) 100,00 %
17.06.2017 05:00 15,8 C 23,3 C 63 % 1019,4 hPa 0,0 l/m 12,7 km/h (3 Bft) W 261 0 min 0,076 mm 0,0 UV-I 5 W/m 8,8 C 12,9 C 19,3 km/h (3 Bft) 98,00 %
17.06.2017 05:02 15,8 C 23,3 C 63 % 1019,3 hPa 0,0 l/m 13,8 km/h (3 Bft) W-SW 247 0 min 0,000 mm 0,0 UV-I 5 W/m 8,8 C 12,6 C 20,9 km/h (4 Bft) 98,00 %
17.06.2017 05:04 15,8 C 23,3 C 63 % 1019,4 hPa 0,0 l/m 14,1 km/h (3 Bft) W-SW 254 0 min 0,000 mm 0,0 UV-I 5 W/m 8,8 C 12,5 C 24,1 km/h (4 Bft) 100,00 %
17.06.2017 05:06 15,8 C 23,3 C 63 % 1019,4 hPa 0,0 l/m 10,6 km/h (2 Bft) W-SW 244 0 min 0,000 mm 0,0 UV-I 5 W/m 8,8 C 13,7 C 16,1 km/h (3 Bft) 98,21 %
17.06.2017 05:08 15,8 C 23,3 C 63 % 1019,3 hPa 0,0 l/m 8,9 km/h (2 Bft) W-SW 242 0 min 0,000 mm 0,0 UV-I 5 W/m 8,8 C 14,5 C 14,5 km/h (3 Bft) 100,00 %
17.06.2017 05:10 15,8 C 23,3 C 63 % 1019,4 hPa 0,0 l/m 13,5 km/h (3 Bft) W-SW 248 0 min 0,000 mm 0,0 UV-I 5 W/m 8,8 C 12,7 C 22,5 km/h (4 Bft) 98,00 %
17.06.2017 05:12 15,8 C 23,3 C 63 % 1019,4 hPa 0,0 l/m 13,6 km/h (3 Bft) SW 227 0 min 0,000 mm 0,0 UV-I 5 W/m 8,8 C 12,6 C 20,9 km/h (4 Bft) 98,11 %
17.06.2017 05:14 15,8 C 23,3 C 63 % 1019,5 hPa 0,0 l/m 12,0 km/h (2 Bft) W 281 0 min 0,000 mm 0,0 UV-I 6 W/m 8,8 C 13,2 C 16,1 km/h (3 Bft) 100,00 %
17.06.2017 05:16 15,8 C 23,3 C 63 % 1019,5 hPa 0,0 l/m 9,4 km/h (2 Bft) W 267 0 min 0,000 mm 0,0 UV-I 7 W/m 8,8 C 14,3 C 16,1 km/h (3 Bft) 98,11 %
17.06.2017 05:18 15,8 C 23,3 C 63 % 1019,5 hPa 0,0 l/m 11,5 km/h (2 Bft) W-SW 243 0 min 0,000 mm 0,0 UV-I 7 W/m 8,8 C 13,4 C 17,7 km/h (3 Bft) 100,00 %
17.06.2017 05:20 15,8 C 23,3 C 64 % 1019,5 hPa 0,0 l/m 7,3 km/h (2 Bft) W 263 0 min 0,000 mm 0,0 UV-I 7 W/m 9,0 C 15,3 C 14,5 km/h (3 Bft) 100,00 %
17.06.2017 05:22 15,8 C 23,3 C 64 % 1019,6 hPa 0,0 l/m 9,9 km/h (2 Bft) W-SW 248 0 min 0,000 mm 0,0 UV-I 9 W/m 9,0 C 14,0 C 17,7 km/h (3 Bft) 98,15 %
17.06.2017 05:24 15,8 C 23,3 C 64 % 1019,6 hPa 0,0 l/m 12,6 km/h (3 Bft) W 261 0 min 0,000 mm 0,0 UV-I 9 W/m 9,0 C 13,0 C 17,7 km/h (3 Bft) 98,00 %
17.06.2017 05:26 15,8 C 23,3 C 64 % 1019,6 hPa 0,0 l/m 13,9 km/h (3 Bft) W-SW 240 0 min 0,000 mm 0,0 UV-I 9 W/m 9,0 C 12,5 C 22,5 km/h (4 Bft) 100,00 %
17.06.2017 05:28 15,8 C 23,3 C 63 % 1019,6 hPa 0,0 l/m 12,6 km/h (3 Bft) W-SW 255 0 min 0,000 mm 0,0 UV-I 9 W/m 8,8 C 13,0 C 22,5 km/h (4 Bft) 93,75 %
17.06.2017 05:30 15,8 C 23,3 C 63 % 1019,6 hPa 0,0 l/m 9,5 km/h (2 Bft) SW 226 0 min 0,000 mm 0,0 UV-I 9 W/m 8,8 C 14,2 C 14,5 km/h (3 Bft) 92,00 %
17.06.2017 05:32 15,8 C 23,3 C 64 % 1019,6 hPa 0,0 l/m 8,8 km/h (2 Bft) W 260 0 min 0,000 mm 0,0 UV-I 9 W/m 9,0 C 14,5 C 14,5 km/h (3 Bft) 92,68 %
17.06.2017 05:34 15,8 C 23,3 C 64 % 1019,6 hPa 0,0 l/m 9,4 km/h (2 Bft) SW 232 0 min 0,000 mm 0,0 UV-I 11 W/m 9,0 C 14,3 C 14,5 km/h (3 Bft) 96,23 %
17.06.2017 05:36 15,8 C 23,3 C 64 % 1019,6 hPa 0,0 l/m 10,9 km/h (2 Bft) W 267 0 min 0,000 mm 0,0 UV-I 12 W/m 9,0 C 13,6 C 17,7 km/h (3 Bft) 94,74 %
17.06.2017 05:38 15,8 C 23,3 C 64 % 1019,6 hPa 0,0 l/m 13,0 km/h (3 Bft) W 265 0 min 0,000 mm 0,0 UV-I 15 W/m 9,0 C 12,8 C 17,7 km/h (3 Bft) 93,62 %
17.06.2017 05:40 15,8 C 23,3 C 64 % 1019,6 hPa 0,0 l/m 13,7 km/h (3 Bft) W-SW 238 0 min 0,000 mm 0,0 UV-I 17 W/m 9,0 C 12,6 C 20,9 km/h (4 Bft) 92,45 %
17.06.2017 05:42 15,8 C 23,3 C 64 % 1019,6 hPa 0,0 l/m 10,5 km/h (2 Bft) W-SW 238 0 min 0,000 mm 0,0 UV-I 19 W/m 9,0 C 13,8 C 19,3 km/h (3 Bft) 96,00 %
17.06.2017 05:44 15,8 C 23,3 C 64 % 1019,6 hPa 0,0 l/m 10,1 km/h (2 Bft) W 261 0 min 0,000 mm 0,0 UV-I 19 W/m 9,0 C 14,0 C 16,1 km/h (3 Bft) 95,74 %
17.06.2017 05:46 15,8 C 23,3 C 64 % 1019,5 hPa 0,0 l/m 9,1 km/h (2 Bft) W-SW 255 0 min 0,000 mm 0,0 UV-I 21 W/m 9,0 C 14,4 C 14,5 km/h (3 Bft) 94,74 %
17.06.2017 05:48 15,8 C 23,3 C 64 % 1019,5 hPa 0,0 l/m 8,5 km/h (2 Bft) W-SW 254 0 min 0,000 mm 0,0 UV-I 22 W/m 9,0 C 14,7 C 17,7 km/h (3 Bft) 94,00 %
17.06.2017 05:50 15,7 C 23,3 C 64 % 1019,5 hPa 0,0 l/m 9,2 km/h (2 Bft) SW 232 0 min 0,000 mm 0,0 UV-I 24 W/m 8,9 C 14,3 C 14,5 km/h (3 Bft) 92,45 %
17.06.2017 05:52 15,8 C 23,3 C 64 % 1019,5 hPa 0,0 l/m 11,2 km/h (2 Bft) SW 227 0 min 0,000 mm 0,0 UV-I 25 W/m 9,0 C 13,5 C 19,3 km/h (3 Bft) 93,18 %
17.06.2017 05:54 15,8 C 23,3 C 64 % 1019,5 hPa 0,0 l/m 7,9 km/h (2 Bft) SW 223 0 min 0,000 mm 0,0 UV-I 27 W/m 9,0 C 15,0 C 14,5 km/h (3 Bft) 92,00 %
17.06.2017 05:56 15,8 C 23,3 C 64 % 1019,5 hPa 0,0 l/m 9,5 km/h (2 Bft) W 260 0 min 0,000 mm 0,0 UV-I 28 W/m 9,0 C 14,2 C 17,7 km/h (3 Bft) 95,45 %
17.06.2017 05:58 15,8 C 23,3 C 65 % 1019,5 hPa 0,0 l/m 10,8 km/h (2 Bft) W-SW 249 0 min 0,000 mm 0,0 UV-I 28 W/m 9,2 C 13,7 C 16,1 km/h (3 Bft) 93,62 %
17.06.2017 06:00 15,7 C 23,3 C 65 % 1019,5 hPa 0,0 l/m 9,4 km/h (2 Bft) W-SW 245 0 min 0,051 mm 0,0 UV-I 33 W/m 9,1 C 14,2 C 14,5 km/h (3 Bft) 94,74 %
17.06.2017 06:02 15,7 C 23,3 C 65 % 1019,4 hPa 0,0 l/m 11,8 km/h (2 Bft) W-NW 294 0 min 0,000 mm 0,0 UV-I 34 W/m 9,1 C 13,2 C 16,1 km/h (3 Bft) 93,22 %
17.06.2017 06:04 15,7 C 23,3 C 65 % 1019,4 hPa 0,0 l/m 12,8 km/h (3 Bft) W 261 0 min 0,000 mm 0,0 UV-I 33 W/m 9,1 C 12,8 C 22,5 km/h (4 Bft) 92,68 %
17.06.2017 06:06 15,7 C 23,3 C 64 % 1019,4 hPa 0,0 l/m 16,1 km/h (3 Bft) SW 219 0 min 0,000 mm 0,0 UV-I 31 W/m 8,9 C 11,7 C 24,1 km/h (4 Bft) 97,62 %
17.06.2017 06:08 15,8 C 23,3 C 65 % 1019,4 hPa 0,0 l/m 11,8 km/h (2 Bft) W-SW 242 0 min 0,000 mm 0,0 UV-I 34 W/m 9,2 C 13,3 C 17,7 km/h (3 Bft) 96,55 %
17.06.2017 06:10 15,8 C 23,3 C 65 % 1019,4 hPa 0,0 l/m 12,3 km/h (3 Bft) W 267 0 min 0,000 mm 0,0 UV-I 38 W/m 9,2 C 13,1 C 19,3 km/h (3 Bft) 97,62 %
17.06.2017 06:12 15,8 C 23,3 C 65 % 1019,4 hPa 0,0 l/m 14,0 km/h (3 Bft) SW 234 0 min 0,000 mm 0,0 UV-I 42 W/m 9,2 C 12,5 C 20,9 km/h (4 Bft) 92,00 %
17.06.2017 06:14 15,7 C 23,3 C 65 % 1019,4 hPa 0,0 l/m 13,9 km/h (3 Bft) W 259 0 min 0,000 mm 0,0 UV-I 41 W/m 9,1 C 12,4 C 25,7 km/h (4 Bft) 95,74 %
17.06.2017 06:16 15,8 C 23,3 C 65 % 1019,4 hPa 0,0 l/m 13,5 km/h (3 Bft) W-NW 290 0 min 0,000 mm 0,0 UV-I 40 W/m 9,2 C 12,7 C 17,7 km/h (3 Bft) 97,14 %
17.06.2017 06:18 15,8 C 23,3 C 65 % 1019,4 hPa 0,0 l/m 14,0 km/h (3 Bft) W-SW 243 0 min 0,000 mm 0,0 UV-I 40 W/m 9,2 C 12,5 C 24,1 km/h (4 Bft) 94,64 %
17.06.2017 06:20 15,8 C 23,3 C 65 % 1019,4 hPa 0,0 l/m 11,9 km/h (2 Bft) W-SW 246 0 min 0,000 mm 0,0 UV-I 42 W/m 9,2 C 13,2 C 19,3 km/h (3 Bft) 97,37 %
17.06.2017 06:22 15,7 C 23,3 C 65 % 1019,4 hPa 0,0 l/m 13,3 km/h (3 Bft) W-SW 251 0 min 0,000 mm 0,0 UV-I 46 W/m 9,1 C 12,6 C 19,3 km/h (3 Bft) 94,00 %
17.06.2017 06:24 15,7 C 23,3 C 65 % 1019,5 hPa 0,0 l/m 11,1 km/h (2 Bft) W-NW 292 0 min 0,000 mm 0,0 UV-I 52 W/m 9,1 C 13,4 C 17,7 km/h (3 Bft) 95,74 %
17.06.2017 06:26 15,7 C 23,3 C 65 % 1019,5 hPa 0,0 l/m 14,9 km/h (3 Bft) SW 233 0 min 0,000 mm 0,0 UV-I 56 W/m 9,1 C 12,1 C 22,5 km/h (4 Bft) 96,23 %
17.06.2017 06:28 15,7 C 23,3 C 65 % 1019,5 hPa 0,0 l/m 14,7 km/h (3 Bft) W-SW 254 0 min 0,000 mm 0,0 UV-I 58 W/m 9,1 C 12,1 C 20,9 km/h (4 Bft) 95,74 %
17.06.2017 06:30 15,7 C 23,3 C 65 % 1019,4 hPa 0,0 l/m 12,6 km/h (3 Bft) SW 232 0 min 0,000 mm 0,0 UV-I 56 W/m 9,1 C 12,9 C 24,1 km/h (4 Bft) 96,00 %
17.06.2017 06:32 15,7 C 23,3 C 65 % 1019,4 hPa 0,0 l/m 11,4 km/h (2 Bft) W-SW 248 0 min 0,000 mm 0,0 UV-I 54 W/m 9,1 C 13,3 C 16,1 km/h (3 Bft) 100,00 %
17.06.2017 06:34 15,7 C 23,3 C 65 % 1019,5 hPa 0,0 l/m 10,6 km/h (2 Bft) W 278 0 min 0,000 mm 0,0 UV-I 53 W/m 9,1 C 13,6 C 17,7 km/h (3 Bft) 98,00 %
17.06.2017 06:36 15,7 C 23,3 C 65 % 1019,5 hPa 0,0 l/m 13,7 km/h (3 Bft) W-SW 258 0 min 0,000 mm 0,0 UV-I 50 W/m 9,1 C 12,5 C 17,7 km/h (3 Bft) 100,00 %
17.06.2017 06:38 15,7 C 23,3 C 65 % 1019,5 hPa 0,0 l/m 14,5 km/h (3 Bft) W-SW 246 0 min 0,000 mm 0,0 UV-I 47 W/m 9,1 C 12,2 C 25,7 km/h (4 Bft) 98,11 %
17.06.2017 06:40 15,7 C 23,3 C 65 % 1019,5 hPa 0,0 l/m 15,3 km/h (3 Bft) W 259 0 min 0,000 mm 0,0 UV-I 45 W/m 9,1 C 11,9 C 25,7 km/h (4 Bft) 95,12 %
17.06.2017 06:42 15,7 C 23,3 C 65 % 1019,5 hPa 0,0 l/m 11,8 km/h (2 Bft) SW 236 0 min 0,000 mm 0,0 UV-I 45 W/m 9,1 C 13,2 C 19,3 km/h (3 Bft) 100,00 %
17.06.2017 06:44 15,7 C 23,3 C 66 % 1019,5 hPa 0,0 l/m 11,3 km/h (2 Bft) W-NW 282 0 min 0,000 mm 0,0 UV-I 49 W/m 9,4 C 13,3 C 17,7 km/h (3 Bft) 97,44 %
17.06.2017 06:46 15,7 C 23,3 C 66 % 1019,5 hPa 0,0 l/m 12,1 km/h (2 Bft) NW 322 0 min 0,000 mm 0,0 UV-I 49 W/m 9,4 C 13,0 C 19,3 km/h (3 Bft) 96,36 %
17.06.2017 06:48 15,7 C 23,3 C 66 % 1019,5 hPa 0,0 l/m 13,9 km/h (3 Bft) W-SW 254 0 min 0,000 mm 0,0 UV-I 47 W/m 9,4 C 12,4 C 24,1 km/h (4 Bft) 100,00 %
17.06.2017 06:50 15,7 C 23,3 C 66 % 1019,6 hPa 0,0 l/m 14,8 km/h (3 Bft) W-SW 246 0 min 0,000 mm 0,0 UV-I 51 W/m 9,4 C 12,1 C 22,5 km/h (4 Bft) 98,31 %
17.06.2017 06:52 15,7 C 23,3 C 65 % 1019,6 hPa 0,0 l/m 13,2 km/h (3 Bft) W-SW 240 0 min 0,000 mm 0,0 UV-I 57 W/m 9,1 C 12,6 C 19,3 km/h (3 Bft) 100,00 %
17.06.2017 06:54 15,7 C 23,3 C 66 % 1019,6 hPa 0,0 l/m 14,0 km/h (3 Bft) W-SW 246 0 min 0,000 mm 0,0 UV-I 66 W/m 9,4 C 12,4 C 19,3 km/h (3 Bft) 97,87 %
17.06.2017 06:56 15,7 C 23,3 C 66 % 1019,7 hPa 0,0 l/m 11,8 km/h (2 Bft) W-SW 251 0 min 0,000 mm 0,0 UV-I 67 W/m 9,4 C 13,2 C 22,5 km/h (4 Bft) 97,87 %
17.06.2017 06:58 15,7 C 23,3 C 66 % 1019,6 hPa 0,0 l/m 14,2 km/h (3 Bft) W 263 0 min 0,000 mm 0,0 UV-I 66 W/m 9,4 C 12,3 C 20,9 km/h (4 Bft) 100,00 %
17.06.2017 07:00 15,7 C 23,3 C 66 % 1019,7 hPa 0,0 l/m 13,0 km/h (3 Bft) W 259 0 min 0,076 mm 0,0 UV-I 76 W/m 9,4 C 12,7 C 20,9 km/h (4 Bft) 100,00 %
17.06.2017 07:02 15,7 C 23,3 C 66 % 1019,7 hPa 0,0 l/m 12,4 km/h (3 Bft) SW 227 0 min 0,000 mm 0,0 UV-I 85 W/m 9,4 C 12,9 C 24,1 km/h (4 Bft) 100,00 %
17.06.2017 07:04 15,7 C 23,3 C 66 % 1019,7 hPa 0,0 l/m 9,6 km/h (2 Bft) W-SW 249 0 min 0,000 mm 0,0 UV-I 91 W/m 9,4 C 14,1 C 16,1 km/h (3 Bft) 97,56 %
17.06.2017 07:06 15,7 C 23,3 C 66 % 1019,7 hPa 0,0 l/m 11,1 km/h (2 Bft) W-SW 238 0 min 0,000 mm 0,0 UV-I 95 W/m 9,4 C 13,4 C 22,5 km/h (4 Bft) 100,00 %
17.06.2017 07:08 15,7 C 23,3 C 66 % 1019,7 hPa 0,0 l/m 13,3 km/h (3 Bft) W 279 0 min 0,000 mm 0,0 UV-I 95 W/m 9,4 C 12,6 C 19,3 km/h (3 Bft) 94,00 %
17.06.2017 07:10 15,7 C 23,3 C 66 % 1019,7 hPa 0,0 l/m 8,2 km/h (2 Bft) W-NW 284 0 min 0,000 mm 0,0 UV-I 83 W/m 9,4 C 14,7 C 12,9 km/h (3 Bft) 97,87 %
17.06.2017 07:12 15,7 C 23,3 C 66 % 1019,7 hPa 0,0 l/m 12,2 km/h (2 Bft) W-SW 249 0 min 0,000 mm 0,0 UV-I 70 W/m 9,4 C 13,0 C 20,9 km/h (4 Bft) 100,00 %
17.06.2017 07:14 15,7 C 23,3 C 66 % 1019,7 hPa 0,0 l/m 13,9 km/h (3 Bft) W-SW 243 0 min 0,000 mm 0,0 UV-I 70 W/m 9,4 C 12,4 C 24,1 km/h (4 Bft) 98,11 %
17.06.2017 07:16 15,7 C 23,3 C 66 % 1019,8 hPa 0,0 l/m 10,1 km/h (2 Bft) W-SW 256 0 min 0,000 mm 0,0 UV-I 86 W/m 9,4 C 13,8 C 20,9 km/h (4 Bft) 100,00 %
17.06.2017 07:18 15,7 C 23,3 C 65 % 1019,8 hPa 0,0 l/m 12,8 km/h (3 Bft) W-SW 256 0 min 0,000 mm 0,0 UV-I 105 W/m 9,1 C 12,8 C 17,7 km/h (3 Bft) 97,56 %
17.06.2017 07:20 15,7 C 23,3 C 66 % 1019,9 hPa 0,0 l/m 10,6 km/h (2 Bft) SW 219 0 min 0,000 mm 0,0 UV-I 116 W/m 9,4 C 13,6 C 16,1 km/h (3 Bft) 96,00 %
17.06.2017 07:22 15,7 C 23,3 C 66 % 1019,8 hPa 0,0 l/m 11,3 km/h (2 Bft) W-SW 252 0 min 0,000 mm 0,0 UV-I 112 W/m 9,4 C 13,3 C 19,3 km/h (3 Bft) 94,34 %
17.06.2017 07:24 15,7 C 23,3 C 66 % 1019,8 hPa 0,0 l/m 12,5 km/h (3 Bft) W-SW 250 0 min 0,000 mm 0,0 UV-I 113 W/m 9,4 C 12,9 C 19,3 km/h (3 Bft) 100,00 %
17.06.2017 07:26 15,8 C 23,3 C 66 % 1019,8 hPa 0,0 l/m 12,4 km/h (3 Bft) W 261 0 min 0,000 mm 0,0 UV-I 122 W/m 9,5 C 13,0 C 22,5 km/h (4 Bft) 94,44 %
17.06.2017 07:28 15,7 C 23,3 C 66 % 1019,8 hPa 0,0 l/m 12,8 km/h (3 Bft) W-SW 250 0 min 0,000 mm 0,0 UV-I 119 W/m 9,4 C 12,8 C 19,3 km/h (3 Bft) 100,00 %
17.06.2017 07:30 15,8 C 23,3 C 66 % 1019,8 hPa 0,0 l/m 12,1 km/h (2 Bft) W-SW 244 0 min 0,000 mm 0,0 UV-I 127 W/m 9,5 C 13,2 C 19,3 km/h (3 Bft) 100,00 %
17.06.2017 07:32 15,8 C 23,3 C 66 % 1019,8 hPa 0,0 l/m 10,6 km/h (2 Bft) W-SW 243 0 min 0,000 mm 0,2 UV-I 142 W/m 9,5 C 13,7 C 20,9 km/h (4 Bft) 100,00 %
17.06.2017 07:34 15,8 C 23,3 C 65 % 1019,8 hPa 0,0 l/m 14,7 km/h (3 Bft) W-SW 237 0 min 0,000 mm 0,3 UV-I 158 W/m 9,2 C 12,3 C 24,1 km/h (4 Bft) 97,56 %
17.06.2017 07:36 15,8 C 23,3 C 66 % 1019,9 hPa 0,0 l/m 13,2 km/h (3 Bft) S-SW 200 0 min 0,000 mm 0,0 UV-I 152 W/m 9,5 C 12,8 C 22,5 km/h (4 Bft) 94,34 %
17.06.2017 07:38 15,8 C 23,3 C 65 % 1020,0 hPa 0,0 l/m 11,6 km/h (2 Bft) SW 221 0 min 0,000 mm 0,4 UV-I 150 W/m 9,2 C 13,3 C 16,1 km/h (3 Bft) 92,11 %
17.06.2017 07:40 15,9 C 23,3 C 66 % 1020,0 hPa 0,0 l/m 11,4 km/h (2 Bft) W-NW 286 0 min 0,000 mm 0,5 UV-I 157 W/m 9,6 C 13,5 C 17,7 km/h (3 Bft) 92,45 %
17.06.2017 07:42 15,9 C 23,3 C 65 % 1020,0 hPa 0,0 l/m 13,5 km/h (3 Bft) SW 229 0 min 0,000 mm 0,5 UV-I 157 W/m 9,3 C 12,8 C 20,9 km/h (4 Bft) 95,12 %
17.06.2017 07:44 15,9 C 23,3 C 66 % 1020,0 hPa 0,0 l/m 11,5 km/h (2 Bft) W-SW 239 0 min 0,000 mm 0,5 UV-I 159 W/m 9,6 C 13,5 C 16,1 km/h (3 Bft) 98,11 %
17.06.2017 07:46 15,9 C 23,3 C 65 % 1020,0 hPa 0,0 l/m 16,2 km/h (3 Bft) W-NW 284 0 min 0,000 mm 0,6 UV-I 179 W/m 9,3 C 11,9 C 30,6 km/h (5 Bft) 92,68 %
17.06.2017 07:48 15,9 C 23,3 C 66 % 1020,0 hPa 0,0 l/m 8,4 km/h (2 Bft) SW 236 0 min 0,000 mm 0,6 UV-I 201 W/m 9,6 C 14,8 C 14,5 km/h (3 Bft) 91,07 %
17.06.2017 07:50 15,9 C 23,3 C 65 % 1020,0 hPa 0,0 l/m 12,8 km/h (3 Bft) W 269 2 min 0,000 mm 0,7 UV-I 226 W/m 9,3 C 13,0 C 20,9 km/h (4 Bft) 97,37 %
17.06.2017 07:52 16,0 C 23,3 C 65 % 1020,1 hPa 0,0 l/m 14,1 km/h (3 Bft) W-SW 240 0 min 0,000 mm 0,7 UV-I 224 W/m 9,4 C 12,7 C 24,1 km/h (4 Bft) 95,74 %
17.06.2017 07:54 16,1 C 23,3 C 65 % 1020,0 hPa 0,0 l/m 18,1 km/h (3 Bft) W 269 0 min 0,000 mm 0,7 UV-I 216 W/m 9,5 C 11,6 C 32,2 km/h (5 Bft) 98,00 %
17.06.2017 07:56 16,1 C 23,3 C 65 % 1020,0 hPa 0,0 l/m 13,9 km/h (3 Bft) SW 234 0 min 0,000 mm 0,7 UV-I 216 W/m 9,5 C 12,9 C 27,4 km/h (4 Bft) 95,74 %
17.06.2017 07:58 16,1 C 23,3 C 66 % 1020,0 hPa 0,0 l/m 10,4 km/h (2 Bft) N-NW 340 0 min 0,000 mm 0,7 UV-I 225 W/m 9,7 C 14,2 C 16,1 km/h (3 Bft) 94,00 %
17.06.2017 08:00 16,2 C 23,3 C 66 % 1020,1 hPa 0,0 l/m 9,7 km/h (2 Bft) W 273 0 min 0,127 mm 0,7 UV-I 223 W/m 9,8 C 14,6 C 20,9 km/h (4 Bft) 96,30 %
17.06.2017 08:02 16,2 C 23,3 C 65 % 1020,1 hPa 0,0 l/m 12,4 km/h (3 Bft) W-NW 284 0 min 0,000 mm 0,7 UV-I 219 W/m 9,6 C 13,5 C 19,3 km/h (3 Bft) 92,19 %
17.06.2017 08:04 16,2 C 23,3 C 64 % 1020,1 hPa 0,0 l/m 14,1 km/h (3 Bft) W 265 0 min 0,000 mm 0,8 UV-I 232 W/m 9,4 C 12,9 C 30,6 km/h (5 Bft) 94,00 %
17.06.2017 08:06 16,2 C 23,3 C 64 % 1020,1 hPa 0,0 l/m 16,8 km/h (3 Bft) W-SW 257 0 min 0,000 mm 0,8 UV-I 245 W/m 9,4 C 12,1 C 25,7 km/h (4 Bft) 100,00 %
17.06.2017 08:08 16,1 C 23,3 C 64 % 1020,1 hPa 0,0 l/m 9,9 km/h (2 Bft) SW 235 2 min 0,000 mm 0,9 UV-I 262 W/m 9,3 C 14,4 C 19,3 km/h (3 Bft) 95,74 %
17.06.2017 08:10 16,2 C 23,3 C 65 % 1020,1 hPa 0,0 l/m 8,4 km/h (2 Bft) W-SW 250 2 min 0,000 mm 0,9 UV-I 336 W/m 9,6 C 15,2 C 12,9 km/h (3 Bft) 100,00 %
17.06.2017 08:12 16,3 C 23,3 C 65 % 1020,1 hPa 0,0 l/m 10,6 km/h (2 Bft) W 281 2 min 0,000 mm 0,9 UV-I 290 W/m 9,7 C 14,3 C 27,4 km/h (4 Bft) 94,74 %
17.06.2017 08:14 16,4 C 23,3 C 64 % 1020,2 hPa 0,0 l/m 17,3 km/h (3 Bft) W-SW 255 2 min 0,000 mm 0,9 UV-I 286 W/m 9,6 C 12,2 C 30,6 km/h (5 Bft) 98,11 %
17.06.2017 08:16 16,4 C 23,3 C 64 % 1020,1 hPa 0,0 l/m 14,4 km/h (3 Bft) SW 232 0 min 0,000 mm 0,9 UV-I 251 W/m 9,6 C 13,1 C 25,7 km/h (4 Bft) 97,87 %
17.06.2017 08:18 16,3 C 23,3 C 64 % 1020,1 hPa 0,0 l/m 14,9 km/h (3 Bft) S 171 0 min 0,000 mm 0,9 UV-I 241 W/m 9,5 C 12,8 C 24,1 km/h (4 Bft) 97,83 %
17.06.2017 08:20 16,3 C 23,3 C 64 % 1020,2 hPa 0,0 l/m 11,8 km/h (2 Bft) W-SW 237 0 min 0,000 mm 0,9 UV-I 248 W/m 9,5 C 13,8 C 20,9 km/h (4 Bft) 100,00 %
17.06.2017 08:22 16,3 C 23,3 C 65 % 1020,2 hPa 0,0 l/m 7,1 km/h (2 Bft) W 265 0 min 0,000 mm 0,9 UV-I 249 W/m 9,7 C 15,9 C 16,1 km/h (3 Bft) 100,00 %
17.06.2017 08:24 16,3 C 23,3 C 65 % 1020,3 hPa 0,0 l/m 10,6 km/h (2 Bft) SW 221 0 min 0,000 mm 1,0 UV-I 255 W/m 9,7 C 14,3 C 17,7 km/h (3 Bft) 100,00 %
17.06.2017 08:26 16,3 C 23,3 C 65 % 1020,2 hPa 0,0 l/m 14,6 km/h (3 Bft) W 261 0 min 0,000 mm 0,9 UV-I 248 W/m 9,7 C 12,9 C 24,1 km/h (4 Bft) 96,55 %
17.06.2017 08:28 16,3 C 23,3 C 65 % 1020,3 hPa 0,0 l/m 11,9 km/h (2 Bft) W-SW 240 0 min 0,000 mm 0,9 UV-I 238 W/m 9,7 C 13,8 C 19,3 km/h (3 Bft) 100,00 %
17.06.2017 08:30 16,3 C 23,3 C 65 % 1020,1 hPa 0,0 l/m 8,9 km/h (2 Bft) W 260 0 min 0,000 mm 0,9 UV-I 231 W/m 9,7 C 15,0 C 19,3 km/h (3 Bft) 98,11 %
17.06.2017 08:32 16,3 C 23,3 C 65 % 1020,2 hPa 0,0 l/m 10,8 km/h (2 Bft) W 264 0 min 0,000 mm 1,0 UV-I 264 W/m 9,7 C 14,2 C 27,4 km/h (4 Bft) 100,00 %
17.06.2017 08:34 16,3 C 23,3 C 65 % 1020,2 hPa 0,0 l/m 15,2 km/h (3 Bft) W-SW 239 0 min 0,000 mm 1,1 UV-I 282 W/m 9,7 C 12,7 C 24,1 km/h (4 Bft) 98,11 %
17.06.2017 08:36 16,3 C 23,3 C 65 % 1020,3 hPa 0,0 l/m 11,9 km/h (2 Bft) W-SW 244 0 min 0,000 mm 1,1 UV-I 280 W/m 9,7 C 13,8 C 19,3 km/h (3 Bft) 97,87 %
17.06.2017 08:38 16,3 C 23,3 C 64 % 1020,2 hPa 0,0 l/m 16,8 km/h (3 Bft) SW 234 2 min 0,000 mm 1,2 UV-I 315 W/m 9,5 C 12,2 C 29,0 km/h (5 Bft) 97,87 %
17.06.2017 08:40 16,3 C 23,3 C 65 % 1020,1 hPa 0,0 l/m 9,7 km/h (2 Bft) W 275 2 min 0,000 mm 1,3 UV-I 358 W/m 9,7 C 14,7 C 19,3 km/h (3 Bft) 100,00 %
17.06.2017 08:42 16,4 C 23,3 C 66 % 1020,1 hPa 0,0 l/m 9,6 km/h (2 Bft) SW 232 2 min 0,000 mm 1,3 UV-I 351 W/m 10,0 C 14,8 C 19,3 km/h (3 Bft) 97,22 %
17.06.2017 08:44 16,5 C 23,3 C 65 % 1020,1 hPa 0,0 l/m 13,3 km/h (3 Bft) W-SW 251 2 min 0,000 mm 1,4 UV-I 347 W/m 9,9 C 13,5 C 24,1 km/h (4 Bft) 96,23 %
17.06.2017 08:46 16,7 C 23,3 C 65 % 1020,1 hPa 0,0 l/m 14,2 km/h (3 Bft) W-SW 254 2 min 0,000 mm 1,5 UV-I 383 W/m 10,1 C 13,5 C 19,3 km/h (3 Bft) 100,00 %
17.06.2017 08:48 16,7 C 23,3 C 64 % 1020,0 hPa 0,0 l/m 17,1 km/h (3 Bft) W-SW 240 2 min 0,000 mm 1,6 UV-I 353 W/m 9,9 C 12,7 C 29,0 km/h (5 Bft) 100,00 %
17.06.2017 08:50 16,8 C 23,3 C 64 % 1020,1 hPa 0,0 l/m 10,4 km/h (2 Bft) S-SW 209 2 min 0,000 mm 1,6 UV-I 346 W/m 10,0 C 14,9 C 17,7 km/h (3 Bft) 96,23 %
17.06.2017 08:52 16,9 C 23,3 C 63 % 1020,0 hPa 0,0 l/m 15,8 km/h (3 Bft) W-SW 244 2 min 0,000 mm 1,7 UV-I 346 W/m 9,8 C 13,3 C 25,7 km/h (4 Bft) 95,74 %
17.06.2017 08:54 16,9 C 23,3 C 64 % 1020,0 hPa 0,0 l/m 8,6 km/h (2 Bft) S-SW 204 2 min 0,000 mm 1,5 UV-I 314 W/m 10,0 C 15,8 C 17,7 km/h (3 Bft) 97,37 %
17.06.2017 08:56 16,8 C 23,3 C 63 % 1020,0 hPa 0,0 l/m 9,5 km/h (2 Bft) W-SW 243 2 min 0,000 mm 1,6 UV-I 335 W/m 9,7 C 15,3 C 16,1 km/h (3 Bft) 95,74 %
17.06.2017 08:58 16,8 C 23,3 C 63 % 1020,1 hPa 0,0 l/m 11,6 km/h (2 Bft) SW 236 0 min 0,000 mm 1,7 UV-I 310 W/m 9,7 C 14,5 C 19,3 km/h (3 Bft) 97,73 %
17.06.2017 09:00 16,9 C 23,3 C 63 % 1020,1 hPa 0,0 l/m 14,1 km/h (3 Bft) W-NW 283 0 min 0,229 mm 1,8 UV-I 320 W/m 9,8 C 13,8 C 20,9 km/h (4 Bft) 98,31 %
17.06.2017 09:02 16,9 C 23,3 C 63 % 1020,1 hPa 0,0 l/m 12,3 km/h (3 Bft) W 268 2 min 0,000 mm 1,6 UV-I 328 W/m 9,8 C 14,4 C 19,3 km/h (3 Bft) 100,00 %
17.06.2017 09:04 16,8 C 23,3 C 64 % 1020,0 hPa 0,0 l/m 8,9 km/h (2 Bft) W-SW 252 0 min 0,000 mm 1,6 UV-I 270 W/m 10,0 C 15,6 C 17,7 km/h (3 Bft) 100,00 %
17.06.2017 09:06 16,9 C 23,3 C 63 % 1020,1 hPa 0,0 l/m 15,7 km/h (3 Bft) W-SW 244 0 min 0,000 mm 1,6 UV-I 312 W/m 9,8 C 13,3 C 24,1 km/h (4 Bft) 97,87 %
17.06.2017 09:08 16,9 C 23,3 C 63 % 1020,0 hPa 0,0 l/m 16,6 km/h (3 Bft) SW 230 0 min 0,000 mm 1,7 UV-I 310 W/m 9,8 C 13,0 C 24,1 km/h (4 Bft) 95,12 %
17.06.2017 09:10 16,9 C 23,3 C 63 % 1020,1 hPa 0,0 l/m 10,4 km/h (2 Bft) W-NW 284 0 min 0,000 mm 2,0 UV-I 308 W/m 9,8 C 15,1 C 19,3 km/h (3 Bft) 100,00 %
17.06.2017 09:12 17,0 C 23,3 C 62 % 1020,0 hPa 0,0 l/m 13,1 km/h (3 Bft) SW 236 0 min 0,000 mm 2,0 UV-I 313 W/m 9,7 C 14,2 C 25,7 km/h (4 Bft) 97,87 %
17.06.2017 09:14 17,2 C 23,3 C 63 % 1020,1 hPa 0,0 l/m 20,2 km/h (4 Bft) W-SW 253 0 min 0,000 mm 2,0 UV-I 313 W/m 10,1 C 12,5 C 25,7 km/h (4 Bft) 95,45 %
17.06.2017 09:16 17,3 C 23,3 C 61 % 1020,0 hPa 0,0 l/m 18,2 km/h (3 Bft) W 259 2 min 0,000 mm 2,0 UV-I 723 W/m 9,7 C 13,1 C 33,8 km/h (5 Bft) 95,74 %
17.06.2017 09:18 17,3 C 23,3 C 60 % 1020,1 hPa 0,0 l/m 17,7 km/h (3 Bft) W-SW 245 2 min 0,000 mm 1,4 UV-I 737 W/m 9,5 C 13,3 C 30,6 km/h (5 Bft) 93,18 %
17.06.2017 09:20 17,3 C 23,3 C 60 % 1020,1 hPa 0,0 l/m 13,5 km/h (3 Bft) W-SW 254 0 min 0,000 mm 1,3 UV-I 275 W/m 9,5 C 14,4 C 22,5 km/h (4 Bft) 96,00 %
17.06.2017 09:22 17,2 C 23,3 C 61 % 1020,1 hPa 0,0 l/m 10,6 km/h (2 Bft) W 267 0 min 0,000 mm 1,2 UV-I 249 W/m 9,6 C 15,3 C 24,1 km/h (4 Bft) 97,87 %
17.06.2017 09:24 17,1 C 23,3 C 61 % 1020,2 hPa 0,0 l/m 15,8 km/h (3 Bft) W 281 0 min 0,000 mm 1,4 UV-I 270 W/m 9,5 C 13,5 C 22,5 km/h (4 Bft) 97,62 %
17.06.2017 09:26 17,0 C 23,3 C 61 % 1020,2 hPa 0,0 l/m 17,2 km/h (3 Bft) W-SW 257 2 min 0,000 mm 1,5 UV-I 364 W/m 9,4 C 13,0 C 30,6 km/h (5 Bft) 93,18 %
17.06.2017 09:28 16,9 C 23,3 C 61 % 1020,2 hPa 0,0 l/m 15,6 km/h (3 Bft) W 261 0 min 0,000 mm 1,4 UV-I 329 W/m 9,3 C 13,3 C 32,2 km/h (5 Bft) 96,43 %
17.06.2017 09:30 16,8 C 23,3 C 61 % 1020,4 hPa 0,0 l/m 15,8 km/h (3 Bft) W-NW 301 2 min 0,000 mm 1,4 UV-I 375 W/m 9,2 C 13,1 C 24,1 km/h (4 Bft) 94,74 %
17.06.2017 09:32 16,7 C 23,3 C 61 % 1020,4 hPa 0,0 l/m 11,7 km/h (2 Bft) W-SW 247 0 min 0,000 mm 1,1 UV-I 278 W/m 9,1 C 14,3 C 22,5 km/h (4 Bft) 94,64 %
17.06.2017 09:34 16,7 C 23,3 C 62 % 1020,3 hPa 0,0 l/m 12,2 km/h (2 Bft) NW 304 0 min 0,000 mm 1,3 UV-I 244 W/m 9,4 C 14,2 C 22,5 km/h (4 Bft) 90,00 %
17.06.2017 09:36 16,5 C 23,3 C 63 % 1020,4 hPa 0,0 l/m 12,6 km/h (3 Bft) W 275 0 min 0,000 mm 1,4 UV-I 283 W/m 9,4 C 13,8 C 20,9 km/h (4 Bft) 94,74 %
17.06.2017 09:38 16,4 C 23,3 C 63 % 1020,4 hPa 0,0 l/m 13,5 km/h (3 Bft) NW 304 0 min 0,000 mm 1,1 UV-I 237 W/m 9,3 C 13,4 C 24,1 km/h (4 Bft) 94,00 %
17.06.2017 09:40 16,4 C 23,3 C 63 % 1020,5 hPa 0,0 l/m 8,2 km/h (2 Bft) W 273 0 min 0,000 mm 0,9 UV-I 182 W/m 9,3 C 15,5 C 12,9 km/h (3 Bft) 92,68 %
17.06.2017 09:42 16,4 C 23,3 C 64 % 1020,4 hPa 0,0 l/m 6,0 km/h (2 Bft) SW 230 0 min 0,000 mm 1,0 UV-I 200 W/m 9,6 C 16,4 C 17,7 km/h (3 Bft) 92,00 %
17.06.2017 09:44 16,3 C 23,3 C 64 % 1020,5 hPa 0,0 l/m 11,5 km/h (2 Bft) W-NW 286 0 min 0,000 mm 1,4 UV-I 275 W/m 9,5 C 14,0 C 19,3 km/h (3 Bft) 95,45 %
17.06.2017 09:46 16,3 C 23,3 C 64 % 1020,5 hPa 0,0 l/m 14,6 km/h (3 Bft) SW 217 0 min 0,000 mm 1,5 UV-I 300 W/m 9,5 C 12,9 C 27,4 km/h (4 Bft) 94,00 %
17.06.2017 09:48 16,3 C 23,3 C 65 % 1020,5 hPa 0,0 l/m 13,2 km/h (3 Bft) W 276 0 min 0,000 mm 1,3 UV-I 270 W/m 9,7 C 13,3 C 25,7 km/h (4 Bft) 95,12 %
17.06.2017 09:50 16,3 C 23,3 C 64 % 1020,4 hPa 0,0 l/m 13,4 km/h (3 Bft) W-SW 257 0 min 0,000 mm 1,5 UV-I 276 W/m 9,5 C 13,3 C 20,9 km/h (4 Bft) 94,00 %
17.06.2017 09:52 16,4 C 23,3 C 64 % 1020,4 hPa 0,0 l/m 10,2 km/h (2 Bft) W-SW 245 0 min 0,000 mm 1,8 UV-I 289 W/m 9,6 C 14,6 C 14,5 km/h (3 Bft) 96,00 %
17.06.2017 09:54 16,4 C 23,3 C 64 % 1020,5 hPa 0,0 l/m 10,7 km/h (2 Bft) NW 325 0 min 0,000 mm 2,2 UV-I 307 W/m 9,6 C 14,4 C 22,5 km/h (4 Bft) 92,68 %
17.06.2017 09:56 16,4 C 23,3 C 63 % 1020,5 hPa 0,0 l/m 17,4 km/h (3 Bft) W-NW 290 0 min 0,000 mm 3,2 UV-I 316 W/m 9,3 C 12,2 C 25,7 km/h (4 Bft) 90,48 %
17.06.2017 09:58 16,8 C 23,3 C 64 % 1020,4 hPa 0,0 l/m 13,1 km/h (3 Bft) W-SW 244 2 min 0,000 mm 3,7 UV-I 832 W/m 10,0 C 14,0 C 22,5 km/h (4 Bft) 93,44 %
17.06.2017 10:00 17,2 C 23,3 C 61 % 1020,4 hPa 0,0 l/m 17,5 km/h (3 Bft) W-SW 237 2 min 0,279 mm 3,6 UV-I 742 W/m 9,6 C 13,2 C 24,1 km/h (4 Bft) 96,00 %
17.06.2017 10:02 17,3 C 23,3 C 60 % 1020,4 hPa 0,0 l/m 18,0 km/h (3 Bft) W-NW 298 2 min 0,000 mm 2,2 UV-I 509 W/m 9,5 C 13,2 C 30,6 km/h (5 Bft) 97,44 %
17.06.2017 10:04 17,2 C 23,3 C 59 % 1020,5 hPa 0,0 l/m 16,1 km/h (3 Bft) W-SW 254 0 min 0,000 mm 2,2 UV-I 283 W/m 9,1 C 13,5 C 27,4 km/h (4 Bft) 92,00 %
17.06.2017 10:06 17,0 C 23,3 C 60 % 1020,5 hPa 0,0 l/m 17,7 km/h (3 Bft) W-SW 249 0 min 0,000 mm 3,0 UV-I 366 W/m 9,2 C 12,9 C 33,8 km/h (5 Bft) 98,00 %
17.06.2017 10:08 17,2 C 23,3 C 62 % 1020,5 hPa 0,0 l/m 9,7 km/h (2 Bft) W 262 2 min 0,000 mm 3,9 UV-I 916 W/m 9,9 C 15,7 C 25,7 km/h (4 Bft) 97,37 %
17.06.2017 10:10 17,6 C 23,3 C 61 % 1020,5 hPa 0,0 l/m 8,6 km/h (2 Bft) W 278 2 min 0,000 mm 3,7 UV-I 965 W/m 10,0 C 16,6 C 14,5 km/h (3 Bft) 94,64 %
17.06.2017 10:12 17,7 C 23,3 C 59 % 1020,5 hPa 0,0 l/m 14,8 km/h (3 Bft) W-SW 246 2 min 0,000 mm 3,1 UV-I 969 W/m 9,6 C 14,5 C 24,1 km/h (4 Bft) 97,73 %
17.06.2017 10:14 17,6 C 23,3 C 59 % 1020,6 hPa 0,0 l/m 11,3 km/h (2 Bft) W 266 2 min 0,000 mm 2,7 UV-I 509 W/m 9,5 C 15,5 C 22,5 km/h (4 Bft) 97,56 %
17.06.2017 10:16 17,4 C 23,3 C 58 % 1020,5 hPa 0,0 l/m 18,2 km/h (3 Bft) W 278 0 min 0,000 mm 2,2 UV-I 322 W/m 9,1 C 13,3 C 30,6 km/h (5 Bft) 98,21 %
17.06.2017 10:18 17,3 C 23,3 C 59 % 1020,6 hPa 0,0 l/m 13,6 km/h (3 Bft) W-SW 253 0 min 0,000 mm 2,2 UV-I 288 W/m 9,2 C 14,4 C 24,1 km/h (4 Bft) 100,00 %
17.06.2017 10:20 17,1 C 23,3 C 57 % 1020,5 hPa 0,0 l/m 16,5 km/h (3 Bft) NW 306 0 min 0,000 mm 2,7 UV-I 324 W/m 8,5 C 13,3 C 24,1 km/h (4 Bft) 95,74 %
17.06.2017 10:22 17,1 C 23,3 C 58 % 1020,5 hPa 0,0 l/m 10,2 km/h (2 Bft) SW 217 2 min 0,000 mm 3,9 UV-I 574 W/m 8,8 C 15,4 C 20,9 km/h (4 Bft) 95,74 %
17.06.2017 10:24 17,3 C 23,3 C 55 % 1020,5 hPa 0,0 l/m 15,6 km/h (3 Bft) W 265 2 min 0,000 mm 3,4 UV-I 930 W/m 8,2 C 13,8 C 25,7 km/h (4 Bft) 97,56 %
17.06.2017 10:26 17,4 C 23,3 C 54 % 1020,7 hPa 0,0 l/m 15,0 km/h (3 Bft) W-SW 244 2 min 0,000 mm 4,0 UV-I 962 W/m 8,0 C 14,1 C 29,0 km/h (5 Bft) 100,00 %
17.06.2017 10:28 17,4 C 23,3 C 54 % 1020,6 hPa 0,0 l/m 13,0 km/h (3 Bft) SW 235 0 min 0,000 mm 2,8 UV-I 408 W/m 8,0 C 14,7 C 19,3 km/h (3 Bft) 98,31 %
17.06.2017 10:30 17,4 C 23,3 C 54 % 1020,6 hPa 0,0 l/m 13,4 km/h (3 Bft) W-SW 252 0 min 0,000 mm 3,2 UV-I 360 W/m 8,0 C 14,6 C 29,0 km/h (5 Bft) 97,73 %
17.06.2017 10:32 17,4 C 23,3 C 55 % 1020,6 hPa 0,0 l/m 18,3 km/h (3 Bft) W 279 0 min 0,000 mm 3,2 UV-I 360 W/m 8,3 C 13,2 C 35,4 km/h (5 Bft) 96,00 %
17.06.2017 10:34 17,4 C 23,3 C 55 % 1020,5 hPa 0,0 l/m 13,7 km/h (3 Bft) W-NW 294 0 min 0,000 mm 2,9 UV-I 360 W/m 8,3 C 14,5 C 29,0 km/h (5 Bft) 100,00 %
17.06.2017 10:36 17,5 C 23,3 C 56 % 1020,5 hPa 0,0 l/m 12,3 km/h (3 Bft) NW 317 0 min 0,000 mm 2,9 UV-I 353 W/m 8,6 C 15,0 C 22,5 km/h (4 Bft) 96,23 %
17.06.2017 10:38 17,4 C 23,3 C 55 % 1020,6 hPa 0,0 l/m 13,5 km/h (3 Bft) SO 132 0 min 0,000 mm 3,4 UV-I 327 W/m 8,3 C 14,5 C 20,9 km/h (4 Bft) 97,78 %
17.06.2017 10:40 17,4 C 23,3 C 54 % 1020,5 hPa 0,0 l/m 9,4 km/h (2 Bft) N-NW 327 0 min 0,000 mm 3,6 UV-I 370 W/m 8,0 C 16,0 C 19,3 km/h (3 Bft) 100,00 %
17.06.2017 10:42 17,5 C 23,3 C 53 % 1020,5 hPa 0,0 l/m 6,6 km/h (2 Bft) W 263 2 min 0,000 mm 4,1 UV-I 765 W/m 7,8 C 17,4 C 14,5 km/h (3 Bft) 100,00 %
17.06.2017 10:44 17,6 C 23,3 C 52 % 1020,6 hPa 0,0 l/m 13,1 km/h (3 Bft) SW 232 2 min 0,000 mm 4,7 UV-I 892 W/m 7,6 C 14,9 C 27,4 km/h (4 Bft) 100,00 %
17.06.2017 10:46 17,8 C 23,3 C 51 % 1020,5 hPa 0,0 l/m 13,3 km/h (3 Bft) NW 315 2 min 0,000 mm 4,9 UV-I 921 W/m 7,5 C 15,1 C 32,2 km/h (5 Bft) 100,00 %
17.06.2017 10:48 17,9 C 23,3 C 51 % 1020,6 hPa 0,0 l/m 10,6 km/h (2 Bft) W-SW 250 2 min 0,000 mm 4,9 UV-I 1042 W/m 7,6 C 16,1 C 25,7 km/h (4 Bft) 100,00 %
17.06.2017 10:50 18,2 C 23,3 C 53 % 1020,5 hPa 0,0 l/m 15,2 km/h (3 Bft) W-NW 289 2 min 0,000 mm 4,8 UV-I 1042 W/m 8,5 C 15,0 C 25,7 km/h (4 Bft) 100,00 %
17.06.2017 10:52 18,3 C 23,3 C 50 % 1020,6 hPa 0,0 l/m 15,4 km/h (3 Bft) W 265 2 min 0,000 mm 3,2 UV-I 711 W/m 7,7 C 15,1 C 25,7 km/h (4 Bft) 97,56 %
17.06.2017 10:54 18,2 C 23,3 C 50 % 1020,6 hPa 0,0 l/m 12,0 km/h (2 Bft) N 360 2 min 0,000 mm 4,1 UV-I 490 W/m 7,6 C 16,0 C 19,3 km/h (3 Bft) 100,00 %
17.06.2017 10:56 18,1 C 23,3 C 50 % 1020,5 hPa 0,0 l/m 15,5 km/h (3 Bft) SW 223 2 min 0,000 mm 2,7 UV-I 897 W/m 7,5 C 14,8 C 25,7 km/h (4 Bft) 100,00 %
17.06.2017 10:58 17,8 C 23,3 C 49 % 1020,7 hPa 0,0 l/m 12,4 km/h (3 Bft) W 274 0 min 0,000 mm 2,6 UV-I 346 W/m 6,9 C 15,4 C 32,2 km/h (5 Bft) 98,39 %
17.06.2017 11:00 17,7 C 23,3 C 50 % 1020,7 hPa 0,0 l/m 16,9 km/h (3 Bft) SW 236 0 min 0,407 mm 2,7 UV-I 341 W/m 7,1 C 14,0 C 29,0 km/h (5 Bft) 100,00 %
17.06.2017 11:02 17,4 C 23,3 C 50 % 1020,6 hPa 0,0 l/m 13,6 km/h (3 Bft) W-NW 288 0 min 0,000 mm 3,6 UV-I 308 W/m 6,9 C 14,5 C 30,6 km/h (5 Bft) 100,00 %
17.06.2017 11:04 17,5 C 23,3 C 52 % 1020,6 hPa 0,0 l/m 9,6 km/h (2 Bft) W-SW 250 2 min 0,000 mm 5,1 UV-I 654 W/m 7,5 C 16,0 C 24,1 km/h (4 Bft) 100,00 %
17.06.2017 11:06 17,7 C 23,3 C 52 % 1020,6 hPa 0,0 l/m 10,7 km/h (2 Bft) W-SW 237 2 min 0,000 mm 2,6 UV-I 550 W/m 7,7 C 15,8 C 16,1 km/h (3 Bft) 98,11 %
17.06.2017 11:08 17,7 C 23,3 C 52 % 1020,6 hPa 0,0 l/m 12,1 km/h (2 Bft) W 259 0 min 0,000 mm 4,2 UV-I 246 W/m 7,7 C 15,3 C 20,9 km/h (4 Bft) 97,73 %
17.06.2017 11:10 17,7 C 23,3 C 51 % 1020,6 hPa 0,0 l/m 10,7 km/h (2 Bft) NW 311 0 min 0,000 mm 4,0 UV-I 264 W/m 7,4 C 15,8 C 20,9 km/h (4 Bft) 96,23 %
17.06.2017 11:12 17,7 C 23,3 C 51 % 1020,7 hPa 0,0 l/m 9,7 km/h (2 Bft) W-NW 287 2 min 0,000 mm 5,3 UV-I 695 W/m 7,4 C 16,2 C 16,1 km/h (3 Bft) 97,73 %
17.06.2017 11:14 17,9 C 23,3 C 51 % 1020,6 hPa 0,0 l/m 12,2 km/h (2 Bft) SW 236 2 min 0,000 mm 5,4 UV-I 930 W/m 7,6 C 15,5 C 22,5 km/h (4 Bft) 92,68 %
17.06.2017 11:16 18,2 C 23,3 C 50 % 1020,6 hPa 0,0 l/m 17,2 km/h (3 Bft) W-SW 252 2 min 0,000 mm 5,5 UV-I 1002 W/m 7,6 C 14,5 C 38,6 km/h (5 Bft) 94,34 %
17.06.2017 11:18 18,3 C 23,3 C 49 % 1020,6 hPa 0,0 l/m 21,7 km/h (4 Bft) W-NW 290 2 min 0,000 mm 5,5 UV-I 1110 W/m 7,4 C 13,7 C 32,2 km/h (5 Bft) 100,00 %
17.06.2017 11:20 18,2 C 23,3 C 48 % 1020,6 hPa 0,0 l/m 14,7 km/h (3 Bft) W-NW 302 2 min 0,000 mm 2,6 UV-I 692 W/m 7,0 C 15,2 C 24,1 km/h (4 Bft) 98,28 %
17.06.2017 11:22 18,1 C 23,3 C 50 % 1020,6 hPa 0,0 l/m 15,1 km/h (3 Bft) W 267 0 min 0,000 mm 2,9 UV-I 277 W/m 7,5 C 14,9 C 24,1 km/h (4 Bft) 97,62 %
17.06.2017 11:24 18,1 C 23,3 C 46 % 1020,6 hPa 0,0 l/m 16,2 km/h (3 Bft) W 266 2 min 0,000 mm 4,6 UV-I 910 W/m 6,3 C 14,6 C 27,4 km/h (4 Bft) 95,12 %
17.06.2017 11:26 18,1 C 23,3 C 47 % 1020,6 hPa 0,0 l/m 12,2 km/h (2 Bft) W 261 2 min 0,000 mm 4,1 UV-I 1152 W/m 6,6 C 15,8 C 24,1 km/h (4 Bft) 94,92 %
17.06.2017 11:28 18,0 C 23,3 C 47 % 1020,7 hPa 0,0 l/m 14,7 km/h (3 Bft) W-SW 250 0 min 0,000 mm 3,7 UV-I 399 W/m 6,5 C 14,9 C 20,9 km/h (4 Bft) 90,24 %
17.06.2017 11:30 17,9 C 23,3 C 49 % 1020,7 hPa 0,0 l/m 14,9 km/h (3 Bft) W 273 0 min 0,000 mm 4,5 UV-I 399 W/m 7,0 C 14,7 C 20,9 km/h (4 Bft) 95,12 %
17.06.2017 11:32 18,0 C 23,3 C 49 % 1020,8 hPa 0,0 l/m 17,5 km/h (3 Bft) W 259 0 min 0,000 mm 3,7 UV-I 366 W/m 7,1 C 14,2 C 33,8 km/h (5 Bft) 96,43 %
17.06.2017 11:34 17,9 C 23,3 C 50 % 1020,7 hPa 0,0 l/m 18,3 km/h (3 Bft) W 264 0 min 0,000 mm 3,2 UV-I 317 W/m 7,3 C 13,9 C 29,0 km/h (5 Bft) 97,30 %
17.06.2017 11:36 17,8 C 23,3 C 49 % 1020,7 hPa 0,0 l/m 15,4 km/h (3 Bft) SW 228 0 min 0,000 mm 3,2 UV-I 284 W/m 6,9 C 14,5 C 24,1 km/h (4 Bft) 96,43 %
17.06.2017 11:38 17,7 C 23,3 C 50 % 1020,6 hPa 0,0 l/m 16,0 km/h (3 Bft) W-SW 242 0 min 0,000 mm 4,6 UV-I 301 W/m 7,1 C 14,2 C 27,4 km/h (4 Bft) 95,74 %
17.06.2017 11:40 17,6 C 23,3 C 49 % 1020,8 hPa 0,0 l/m 17,0 km/h (3 Bft) SW 225 0 min 0,000 mm 4,0 UV-I 353 W/m 6,8 C 13,8 C 27,4 km/h (4 Bft) 97,73 %
17.06.2017 11:42 17,7 C 23,3 C 51 % 1020,7 hPa 0,0 l/m 12,5 km/h (3 Bft) W-NW 289 0 min 0,000 mm 4,2 UV-I 353 W/m 7,4 C 15,2 C 25,7 km/h (4 Bft) 97,56 %
17.06.2017 11:44 17,9 C 23,3 C 51 % 1020,6 hPa 0,0 l/m 15,5 km/h (3 Bft) W 263 0 min 0,000 mm 5,7 UV-I 353 W/m 7,6 C 14,6 C 25,7 km/h (4 Bft) 94,64 %
17.06.2017 11:46 18,2 C 23,3 C 50 % 1020,6 hPa 0,0 l/m 16,1 km/h (3 Bft) SW 227 0 min 0,000 mm 5,9 UV-I 353 W/m 7,6 C 14,8 C 24,1 km/h (4 Bft) 94,74 %
17.06.2017 11:48 18,5 C 23,3 C 49 % 1020,6 hPa 0,0 l/m 18,3 km/h (3 Bft) W 278 2 min 0,000 mm 6,0 UV-I 536 W/m 7,6 C 14,6 C 35,4 km/h (5 Bft) 98,00 %
17.06.2017 11:50 18,6 C 23,3 C 50 % 1020,7 hPa 0,0 l/m 21,1 km/h (4 Bft) W 260 2 min 0,000 mm 6,0 UV-I 937 W/m 8,0 C 14,2 C 37,0 km/h (5 Bft) 90,91 %
17.06.2017 11:53 18,7 C 23,3 C 47 % 1020,6 hPa 0,0 l/m 18,2 km/h (3 Bft) W-SW 245 3 min 0,000 mm 6,1 UV-I 952 W/m 7,2 C 14,9 C 29,0 km/h (5 Bft) 92,77 %
17.06.2017 11:54 18,7 C 23,3 C 47 % 1020,6 hPa 0,0 l/m 20,6 km/h (4 Bft) W-NW 287 1 min 0,000 mm 6,1 UV-I 921 W/m 7,2 C 14,4 C 27,4 km/h (4 Bft) 90,91 %
17.06.2017 11:56 18,8 C 23,3 C 47 % 1020,6 hPa 0,0 l/m 17,3 km/h (3 Bft) W-SW 252 2 min 0,000 mm 6,3 UV-I 959 W/m 7,2 C 15,2 C 27,4 km/h (4 Bft) 95,24 %
17.06.2017 11:58 18,9 C 23,3 C 47 % 1020,6 hPa 0,0 l/m 20,0 km/h (4 Bft) W-SW 244 2 min 0,000 mm 6,4 UV-I 1109 W/m 7,3 C 14,8 C 40,2 km/h (6 Bft) 96,72 %
17.06.2017 12:00 18,9 C 23,3 C 47 % 1020,6 hPa 0,0 l/m 17,8 km/h (3 Bft) W-SW 254 2 min 0,482 mm 4,2 UV-I 970 W/m 7,3 C 15,2 C 32,2 km/h (5 Bft) 100,00 %
17.06.2017 12:02 18,9 C 23,3 C 47 % 1020,5 hPa 0,0 l/m 21,6 km/h (4 Bft) NW 313 2 min 0,000 mm 5,6 UV-I 683 W/m 7,3 C 14,5 C 32,2 km/h (5 Bft) 97,44 %
17.06.2017 12:04 18,8 C 23,3 C 47 % 1020,6 hPa 0,0 l/m 17,7 km/h (3 Bft) W 267 2 min 0,000 mm 3,3 UV-I 615 W/m 7,2 C 15,1 C 24,1 km/h (4 Bft) 93,18 %
17.06.2017 12:06 18,7 C 23,3 C 48 % 1020,5 hPa 0,0 l/m 25,7 km/h (4 Bft) W-SW 252 0 min 0,000 mm 5,4 UV-I 269 W/m 7,5 C 13,5 C 37,0 km/h (5 Bft) 96,23 %
17.06.2017 12:08 18,8 C 23,3 C 48 % 1020,5 hPa 0,0 l/m 17,3 km/h (3 Bft) W-SW 242 0 min 0,000 mm 4,3 UV-I 271 W/m 7,6 C 15,2 C 24,1 km/h (4 Bft) 95,45 %
17.06.2017 12:10 18,7 C 23,3 C 48 % 1020,5 hPa 0,0 l/m 21,0 km/h (4 Bft) W-SW 246 0 min 0,000 mm 2,8 UV-I 300 W/m 7,5 C 14,3 C 30,6 km/h (5 Bft) 98,00 %
17.06.2017 12:12 18,5 C 23,3 C 48 % 1020,5 hPa 0,0 l/m 18,9 km/h (3 Bft) W 265 0 min 0,000 mm 3,2 UV-I 347 W/m 7,3 C 14,5 C 27,4 km/h (4 Bft) 95,12 %
17.06.2017 12:14 18,3 C 23,3 C 49 % 1020,6 hPa 0,0 l/m 13,5 km/h (3 Bft) SW 236 0 min 0,000 mm 3,9 UV-I 421 W/m 7,4 C 15,6 C 29,0 km/h (5 Bft) 96,43 %
17.06.2017 12:16 18,4 C 23,3 C 50 % 1020,6 hPa 0,0 l/m 15,6 km/h (3 Bft) W 262 0 min 0,000 mm 4,3 UV-I 413 W/m 7,8 C 15,2 C 25,7 km/h (4 Bft) 95,74 %
17.06.2017 12:18 18,6 C 23,3 C 49 % 1020,6 hPa 0,0 l/m 15,0 km/h (3 Bft) W-SW 245 0 min 0,000 mm 4,7 UV-I 396 W/m 7,7 C 15,6 C 25,7 km/h (4 Bft) 93,62 %
17.06.2017 12:20 18,7 C 23,3 C 49 % 1020,5 hPa 0,0 l/m 15,9 km/h (3 Bft) W-SW 238 0 min 0,000 mm 4,6 UV-I 354 W/m 7,8 C 15,4 C 30,6 km/h (5 Bft) 97,87 %
17.06.2017 12:22 19,1 C 23,3 C 49 % 1020,5 hPa 0,0 l/m 11,5 km/h (2 Bft) W 265 2 min 0,000 mm 6,5 UV-I 1021 W/m 8,1 C 17,1 C 24,1 km/h (4 Bft) 100,00 %
17.06.2017 12:24 19,4 C 23,3 C 48 % 1020,4 hPa 0,0 l/m 11,8 km/h (2 Bft) W 269 2 min 0,000 mm 6,6 UV-I 1016 W/m 8,1 C 17,4 C 19,3 km/h (3 Bft) 98,11 %
17.06.2017 12:26 19,7 C 23,3 C 43 % 1020,5 hPa 0,0 l/m 16,5 km/h (3 Bft) W-SW 244 2 min 0,000 mm 6,8 UV-I 1097 W/m 6,8 C 16,5 C 24,1 km/h (4 Bft) 92,68 %
17.06.2017 12:28 19,7 C 23,3 C 43 % 1020,5 hPa 0,0 l/m 15,7 km/h (3 Bft) W-SW 256 2 min 0,000 mm 4,3 UV-I 969 W/m 6,8 C 16,7 C 32,2 km/h (5 Bft) 97,56 %
17.06.2017 12:30 19,3 C 23,3 C 44 % 1020,5 hPa 0,0 l/m 10,8 km/h (2 Bft) W 278 0 min 0,000 mm 2,6 UV-I 256 W/m 6,7 C 17,6 C 25,7 km/h (4 Bft) 100,00 %
17.06.2017 12:32 18,9 C 23,3 C 45 % 1020,5 hPa 0,0 l/m 12,6 km/h (3 Bft) W 267 0 min 0,000 mm 2,5 UV-I 243 W/m 6,7 C 16,6 C 22,5 km/h (4 Bft) 98,00 %
17.06.2017 12:34 18,6 C 23,3 C 45 % 1020,5 hPa 0,0 l/m 13,6 km/h (3 Bft) W-SW 247 0 min 0,000 mm 2,5 UV-I 233 W/m 6,4 C 15,9 C 33,8 km/h (5 Bft) 91,67 %
17.06.2017 12:36 18,4 C 23,3 C 45 % 1020,6 hPa 0,0 l/m 13,2 km/h (3 Bft) W-SW 252 2 min 0,000 mm 5,1 UV-I 605 W/m 6,3 C 15,8 C 20,9 km/h (4 Bft) 96,55 %
17.06.2017 12:38 18,6 C 23,3 C 46 % 1020,6 hPa 0,0 l/m 15,4 km/h (3 Bft) W-NW 284 2 min 0,000 mm 6,6 UV-I 1113 W/m 6,8 C 15,4 C 27,4 km/h (4 Bft) 92,31 %
17.06.2017 12:40 19,1 C 23,3 C 44 % 1020,6 hPa 0,0 l/m 10,3 km/h (2 Bft) SW 229 2 min 0,000 mm 4,4 UV-I 909 W/m 6,6 C 17,5 C 22,5 km/h (4 Bft) 96,00 %
17.06.2017 12:42 19,2 C 23,3 C 44 % 1020,7 hPa 0,0 l/m 14,4 km/h (3 Bft) W 266 0 min 0,000 mm 4,3 UV-I 339 W/m 6,7 C 16,4 C 27,4 km/h (4 Bft) 94,12 %
17.06.2017 12:44 19,0 C 23,3 C 44 % 1020,6 hPa 0,0 l/m 19,4 km/h (3 Bft) W-SW 250 0 min 0,000 mm 3,2 UV-I 357 W/m 6,5 C 15,0 C 37,0 km/h (5 Bft) 95,74 %
17.06.2017 12:46 18,8 C 23,3 C 45 % 1020,7 hPa 0,0 l/m 16,8 km/h (3 Bft) W-SW 256 0 min 0,000 mm 3,1 UV-I 369 W/m 6,6 C 15,4 C 29,0 km/h (5 Bft) 94,00 %
17.06.2017 12:48 18,6 C 23,3 C 47 % 1020,6 hPa 0,0 l/m 11,0 km/h (2 Bft) W-NW 286 0 min 0,000 mm 3,1 UV-I 369 W/m 7,1 C 16,7 C 22,5 km/h (4 Bft) 94,74 %
17.06.2017 12:50 18,4 C 23,3 C 47 % 1020,6 hPa 0,0 l/m 9,3 km/h (2 Bft) W 260 0 min 0,000 mm 3,6 UV-I 326 W/m 6,9 C 17,1 C 20,9 km/h (4 Bft) 98,11 %
17.06.2017 12:52 18,5 C 23,3 C 48 % 1020,6 hPa 0,0 l/m 13,0 km/h (3 Bft) W-NW 300 2 min 0,000 mm 6,7 UV-I 539 W/m 7,3 C 16,0 C 24,1 km/h (4 Bft) 97,56 %
17.06.2017 12:54 18,7 C 23,3 C 46 % 1020,6 hPa 0,0 l/m 11,2 km/h (2 Bft) W 273 2 min 0,000 mm 4,3 UV-I 1109 W/m 6,8 C 16,8 C 22,5 km/h (4 Bft) 96,23 %
17.06.2017 12:56 18,8 C 23,3 C 46 % 1020,6 hPa 0,0 l/m 9,2 km/h (2 Bft) S-SW 207 2 min 0,000 mm 4,5 UV-I 1109 W/m 6,9 C 17,6 C 20,9 km/h (4 Bft) 95,45 %
17.06.2017 12:58 19,2 C 23,3 C 45 % 1020,7 hPa 0,0 l/m 15,5 km/h (3 Bft) SW 236 2 min 0,000 mm 5,7 UV-I 1109 W/m 7,0 C 16,2 C 32,2 km/h (5 Bft) 96,55 %
17.06.2017 13:00 19,3 C 23,3 C 45 % 1020,6 hPa 0,0 l/m 19,7 km/h (3 Bft) SW 234 2 min 0,458 mm 6,7 UV-I 1109 W/m 7,1 C 15,4 C 38,6 km/h (5 Bft) 98,11 %
17.06.2017 13:02 19,6 C 23,3 C 45 % 1020,7 hPa 0,0 l/m 13,9 km/h (3 Bft) W 260 2 min 0,000 mm 4,8 UV-I 1109 W/m 7,3 C 17,0 C 25,7 km/h (4 Bft) 96,00 %
17.06.2017 13:04 19,7 C 23,3 C 44 % 1020,7 hPa 0,0 l/m 13,9 km/h (3 Bft) W-SW 254 2 min 0,000 mm 4,6 UV-I 733 W/m 7,1 C 17,2 C 22,5 km/h (4 Bft) 90,00 %
17.06.2017 13:06 19,6 C 23,3 C 44 % 1020,7 hPa 0,0 l/m 17,0 km/h (3 Bft) NW 324 2 min 0,000 mm 2,9 UV-I 508 W/m 7,0 C 16,3 C 24,1 km/h (4 Bft) 91,07 %
17.06.2017 13:08 19,3 C 23,3 C 45 % 1020,7 hPa 0,0 l/m 11,3 km/h (2 Bft) W-SW 240 0 min 0,000 mm 2,4 UV-I 278 W/m 7,1 C 17,4 C 19,3 km/h (3 Bft) 94,74 %
17.06.2017 13:10 18,9 C 23,3 C 45 % 1020,7 hPa 0,0 l/m 16,1 km/h (3 Bft) SW 229 0 min 0,000 mm 2,9 UV-I 273 W/m 6,7 C 15,6 C 25,7 km/h (4 Bft) 89,29 %
17.06.2017 13:12 18,8 C 23,3 C 45 % 1020,6 hPa 0,0 l/m 13,6 km/h (3 Bft) W-SW 246 0 min 0,000 mm 5,5 UV-I 332 W/m 6,6 C 16,2 C 24,1 km/h (4 Bft) 95,74 %
17.06.2017 13:14 18,9 C 23,3 C 46 % 1020,6 hPa 0,0 l/m 15,8 km/h (3 Bft) SW 225 0 min 0,000 mm 6,4 UV-I 332 W/m 7,0 C 15,7 C 25,7 km/h (4 Bft) 89,74 %
17.06.2017 13:16 19,1 C 23,3 C 45 % 1020,6 hPa 0,0 l/m 9,8 km/h (2 Bft) NW 310 0 min 0,000 mm 5,0 UV-I 400 W/m 6,9 C 17,7 C 27,4 km/h (4 Bft) 91,49 %
17.06.2017 13:18 19,1 C 23,3 C 45 % 1020,5 hPa 0,0 l/m 9,8 km/h (2 Bft) SW 234 0 min 0,000 mm 3,8 UV-I 443 W/m 6,9 C 17,7 C 19,3 km/h (3 Bft) 92,86 %
17.06.2017 13:20 18,9 C 23,3 C 45 % 1020,5 hPa 0,0 l/m 14,1 km/h (3 Bft) SW 230 0 min 0,000 mm 3,5 UV-I 438 W/m 6,7 C 16,2 C 24,1 km/h (4 Bft) 87,23 %
17.06.2017 13:22 18,9 C 23,3 C 48 % 1020,6 hPa 0,0 l/m 9,6 km/h (2 Bft) W-SW 252 2 min 0,000 mm 3,9 UV-I 505 W/m 7,6 C 17,6 C 22,5 km/h (4 Bft) 88,64 %
17.06.2017 13:24 19,1 C 23,3 C 47 % 1020,6 hPa 0,0 l/m 9,4 km/h (2 Bft) SW 234 2 min 0,000 mm 4,8 UV-I 568 W/m 7,5 C 17,9 C 17,7 km/h (3 Bft) 90,24 %
17.06.2017 13:26 19,3 C 23,3 C 46 % 1020,6 hPa 0,0 l/m 12,8 km/h (3 Bft) SW 228 2 min 0,000 mm 5,5 UV-I 568 W/m 7,4 C 17,0 C 24,1 km/h (4 Bft) 95,74 %
17.06.2017 13:28 19,6 C 23,3 C 47 % 1020,6 hPa 0,0 l/m 10,9 km/h (2 Bft) W-SW 239 2 min 0,000 mm 4,3 UV-I 519 W/m 8,0 C 17,9 C 20,9 km/h (4 Bft) 92,45 %
17.06.2017 13:30 19,7 C 23,3 C 46 % 1020,6 hPa 0,0 l/m 19,3 km/h (3 Bft) W 266 0 min 0,000 mm 4,8 UV-I 440 W/m 7,8 C 16,0 C 30,6 km/h (5 Bft) 94,00 %
17.06.2017 13:32 19,6 C 23,3 C 45 % 1020,6 hPa 0,0 l/m 20,6 km/h (4 Bft) SW 225 0 min 0,000 mm 4,9 UV-I 406 W/m 7,3 C 15,6 C 30,6 km/h (5 Bft) 92,11 %
17.06.2017 13:34 19,6 C 23,3 C 45 % 1020,6 hPa 0,0 l/m 16,3 km/h (3 Bft) W-SW 243 0 min 0,000 mm 3,5 UV-I 382 W/m 7,3 C 16,5 C 29,0 km/h (5 Bft) 96,23 %
17.06.2017 13:36 19,3 C 23,3 C 46 % 1020,6 hPa 0,0 l/m 16,9 km/h (3 Bft) W-SW 245 0 min 0,000 mm 2,9 UV-I 370 W/m 7,4 C 15,9 C 25,7 km/h (4 Bft) 94,74 %
17.06.2017 13:38 19,2 C 23,3 C 47 % 1020,6 hPa 0,0 l/m 16,9 km/h (3 Bft) SW 218 0 min 0,000 mm 2,5 UV-I 373 W/m 7,6 C 15,8 C 27,4 km/h (4 Bft) 89,36 %
17.06.2017 13:40 19,1 C 23,3 C 46 % 1020,6 hPa 0,0 l/m 19,8 km/h (3 Bft) W-SW 254 0 min 0,000 mm 1,9 UV-I 286 W/m 7,2 C 15,1 C 29,0 km/h (5 Bft) 98,00 %
17.06.2017 13:42 18,9 C 23,3 C 47 % 1020,6 hPa 0,0 l/m 10,4 km/h (2 Bft) S-SW 201 0 min 0,000 mm 1,8 UV-I 263 W/m 7,3 C 17,3 C 22,5 km/h (4 Bft) 92,45 %
17.06.2017 13:44 18,8 C 23,3 C 47 % 1020,6 hPa 0,0 l/m 15,1 km/h (3 Bft) W-SW 257 0 min 0,000 mm 2,1 UV-I 290 W/m 7,2 C 15,8 C 29,0 km/h (5 Bft) 97,37 %
17.06.2017 13:46 18,7 C 23,3 C 47 % 1020,6 hPa 0,0 l/m 12,2 km/h (2 Bft) W-SW 249 0 min 0,000 mm 2,6 UV-I 349 W/m 7,2 C 16,5 C 24,1 km/h (4 Bft) 96,43 %
17.06.2017 13:48 18,6 C 23,3 C 48 % 1020,6 hPa 0,0 l/m 11,2 km/h (2 Bft) W-NW 282 0 min 0,000 mm 3,5 UV-I 433 W/m 7,4 C 16,7 C 20,9 km/h (4 Bft) 97,73 %
17.06.2017 13:50 18,6 C 23,3 C 48 % 1020,6 hPa 0,0 l/m 11,7 km/h (2 Bft) W-SW 245 0 min 0,000 mm 3,5 UV-I 454 W/m 7,4 C 16,5 C 22,5 km/h (4 Bft) 95,12 %
17.06.2017 13:52 18,7 C 23,3 C 48 % 1020,6 hPa 0,0 l/m 10,4 km/h (2 Bft) W-SW 248 2 min 0,000 mm 4,1 UV-I 490 W/m 7,5 C 17,1 C 29,0 km/h (5 Bft) 97,62 %
17.06.2017 13:54 18,7 C 23,3 C 48 % 1020,7 hPa 0,0 l/m 10,1 km/h (2 Bft) NW 315 0 min 0,000 mm 4,1 UV-I 472 W/m 7,5 C 17,2 C 22,5 km/h (4 Bft) 98,21 %
17.06.2017 13:56 18,8 C 23,3 C 48 % 1020,6 hPa 0,0 l/m 16,5 km/h (3 Bft) W 270 2 min 0,000 mm 4,3 UV-I 520 W/m 7,6 C 15,4 C 32,2 km/h (5 Bft) 90,38 %
17.06.2017 13:58 19,1 C 23,3 C 49 % 1020,6 hPa 0,0 l/m 7,9 km/h (2 Bft) S-SW 206 2 min 0,000 mm 4,4 UV-I 515 W/m 8,1 C 18,4 C 17,7 km/h (3 Bft) 97,87 %
17.06.2017 14:00 19,5 C 23,3 C 48 % 1020,5 hPa 0,0 l/m 9,2 km/h (2 Bft) W 281 0 min 0,000 mm 3,9 UV-I 443 W/m 8,2 C 18,4 C 24,1 km/h (4 Bft) 94,44 %
17.06.2017 14:02 19,5 C 23,3 C 46 % 1020,5 hPa 0,0 l/m 21,6 km/h (4 Bft) W 279 0 min 0,381 mm 5,3 UV-I 470 W/m 7,6 C 15,3 C 30,6 km/h (5 Bft) 98,11 %
17.06.2017 14:04 19,3 C 23,3 C 46 % 1020,5 hPa 0,0 l/m 15,0 km/h (3 Bft) W-SW 244 2 min 0,000 mm 4,1 UV-I 780 W/m 7,4 C 16,4 C 24,1 km/h (4 Bft) 95,45 %
17.06.2017 14:06 19,3 C 23,3 C 48 % 1020,4 hPa 0,0 l/m 8,0 km/h (2 Bft) W-SW 253 0 min 0,000 mm 4,3 UV-I 277 W/m 8,0 C 18,6 C 17,7 km/h (3 Bft) 95,45 %
17.06.2017 14:08 19,3 C 23,3 C 47 % 1020,4 hPa 0,0 l/m 8,9 km/h (2 Bft) W-SW 237 0 min 0,000 mm 2,3 UV-I 223 W/m 7,7 C 18,3 C 27,4 km/h (4 Bft) 93,62 %
17.06.2017 14:10 19,1 C 23,3 C 47 % 1020,4 hPa 0,0 l/m 8,1 km/h (2 Bft) W-NW 296 0 min 0,000 mm 2,2 UV-I 220 W/m 7,5 C 18,4 C 19,3 km/h (3 Bft) 96,23 %
17.06.2017 14:12 18,9 C 23,3 C 48 % 1020,5 hPa 0,0 l/m 15,3 km/h (3 Bft) W 275 0 min 0,000 mm 2,4 UV-I 280 W/m 7,6 C 15,8 C 29,0 km/h (5 Bft) 93,18 %
17.06.2017 14:14 18,8 C 23,3 C 48 % 1020,6 hPa 0,0 l/m 14,4 km/h (3 Bft) W 260 0 min 0,000 mm 3,8 UV-I 270 W/m 7,6 C 16,0 C 25,7 km/h (4 Bft) 96,15 %
17.06.2017 14:16 18,8 C 23,3 C 49 % 1020,6 hPa 0,0 l/m 9,7 km/h (2 Bft) W-NW 284 0 min 0,000 mm 4,4 UV-I 257 W/m 7,9 C 17,4 C 17,7 km/h (3 Bft) 97,30 %
17.06.2017 14:18 19,0 C 23,3 C 49 % 1020,5 hPa 0,0 l/m 12,2 km/h (2 Bft) W-SW 258 2 min 0,000 mm 6,0 UV-I 995 W/m 8,0 C 16,8 C 20,9 km/h (4 Bft) 100,00 %
17.06.2017 14:20 19,3 C 23,3 C 48 % 1020,5 hPa 0,0 l/m 20,3 km/h (4 Bft) W 279 2 min 0,000 mm 6,2 UV-I 983 W/m 8,0 C 15,2 C 35,4 km/h (5 Bft) 100,00 %
17.06.2017 14:22 19,6 C 23,3 C 48 % 1020,5 hPa 0,0 l/m 8,5 km/h (2 Bft) SW 235 2 min 0,000 mm 6,2 UV-I 1021 W/m 8,3 C 18,7 C 16,1 km/h (3 Bft) 98,21 %
17.06.2017 14:24 20,3 C 23,3 C 48 % 1020,5 hPa 0,0 l/m 9,2 km/h (2 Bft) SW 221 2 min 0,000 mm 5,9 UV-I 1065 W/m 8,9 C 19,2 C 17,7 km/h (3 Bft) 100,00 %
17.06.2017 14:26 20,3 C 23,3 C 44 % 1020,4 hPa 0,0 l/m 15,5 km/h (3 Bft) W-SW 244 2 min 0,000 mm 3,7 UV-I 1099 W/m 7,6 C 17,5 C 27,4 km/h (4 Bft) 96,00 %
17.06.2017 14:28 20,1 C 23,3 C 44 % 1020,4 hPa 0,0 l/m 15,7 km/h (3 Bft) W-NW 292 2 min 0,000 mm 3,9 UV-I 695 W/m 7,5 C 17,2 C 25,7 km/h (4 Bft) 90,24 %
17.06.2017 14:30 20,0 C 23,3 C 46 % 1020,6 hPa 0,0 l/m 9,2 km/h (2 Bft) W-SW 238 2 min 0,000 mm 4,0 UV-I 489 W/m 8,0 C 18,9 C 17,7 km/h (3 Bft) 94,34 %
17.06.2017 14:32 20,1 C 23,3 C 46 % 1020,4 hPa 0,0 l/m 10,3 km/h (2 Bft) SW 222 2 min 0,000 mm 4,9 UV-I 668 W/m 8,1 C 18,7 C 22,5 km/h (4 Bft) 98,00 %
17.06.2017 14:34 20,1 C 23,3 C 45 % 1020,5 hPa 0,0 l/m 11,4 km/h (2 Bft) SW 215 2 min 0,000 mm 5,2 UV-I 1100 W/m 7,8 C 18,3 C 20,9 km/h (4 Bft) 100,00 %
17.06.2017 14:36 20,2 C 23,3 C 45 % 1020,5 hPa 0,0 l/m 15,0 km/h (3 Bft) S 187 2 min 0,000 mm 6,0 UV-I 984 W/m 7,9 C 17,5 C 25,7 km/h (4 Bft) 97,62 %
17.06.2017 14:38 20,2 C 23,3 C 44 % 1020,4 hPa 0,0 l/m 10,9 km/h (2 Bft) SW 219 2 min 0,000 mm 4,9 UV-I 982 W/m 7,6 C 18,6 C 19,3 km/h (3 Bft) 100,00 %
17.06.2017 14:40 20,1 C 23,3 C 46 % 1020,4 hPa 0,0 l/m 11,8 km/h (2 Bft) W-SW 253 2 min 0,000 mm 3,4 UV-I 939 W/m 8,1 C 18,2 C 20,9 km/h (4 Bft) 100,00 %
17.06.2017 14:42 20,1 C 23,3 C 47 % 1020,4 hPa 0,0 l/m 10,7 km/h (2 Bft) W-SW 250 0 min 0,000 mm 5,4 UV-I 362 W/m 8,4 C 18,5 C 20,9 km/h (4 Bft) 95,12 %
17.06.2017 14:44 20,4 C 23,3 C 46 % 1020,3 hPa 0,0 l/m 13,3 km/h (3 Bft) SW 231 2 min 0,000 mm 5,5 UV-I 1031 W/m 8,4 C 18,1 C 19,3 km/h (3 Bft) 100,00 %
17.06.2017 14:46 20,7 C 23,3 C 46 % 1020,3 hPa 0,0 l/m 11,0 km/h (2 Bft) SW 229 2 min 0,000 mm 5,9 UV-I 1010 W/m 8,7 C 19,1 C 16,1 km/h (3 Bft) 100,00 %
17.06.2017 14:48 21,1 C 23,3 C 43 % 1020,3 hPa 0,0 l/m 20,7 km/h (4 Bft) W 267 2 min 0,000 mm 5,9 UV-I 1047 W/m 8,0 C 17,5 C 32,2 km/h (5 Bft) 95,16 %
17.06.2017 14:50 21,0 C 23,3 C 43 % 1020,4 hPa 0,0 l/m 22,8 km/h (4 Bft) W-SW 248 2 min 0,000 mm 5,7 UV-I 1063 W/m 7,9 C 17,1 C 37,0 km/h (5 Bft) 100,00 %
17.06.2017 14:52 20,9 C 23,3 C 42 % 1020,4 hPa 0,0 l/m 26,6 km/h (4 Bft) W-SW 249 2 min 0,000 mm 5,2 UV-I 1085 W/m 7,5 C 16,4 C 37,0 km/h (5 Bft) 97,56 %
17.06.2017 14:54 20,8 C 23,3 C 42 % 1020,4 hPa 0,0 l/m 26,7 km/h (4 Bft) W-SW 250 2 min 0,000 mm 4,3 UV-I 1067 W/m 7,4 C 16,2 C 40,2 km/h (6 Bft) 100,00 %
17.06.2017 14:56 20,6 C 23,3 C 43 % 1020,5 hPa 0,0 l/m 17,5 km/h (3 Bft) SW 232 2 min 0,000 mm 5,1 UV-I 1071 W/m 7,6 C 17,4 C 24,1 km/h (4 Bft) 100,00 %
17.06.2017 14:58 20,6 C 23,3 C 44 % 1020,5 hPa 0,0 l/m 13,6 km/h (3 Bft) W 279 2 min 0,000 mm 5,0 UV-I 1098 W/m 7,9 C 18,3 C 20,9 km/h (4 Bft) 93,62 %
17.06.2017 15:00 20,8 C 23,3 C 43 % 1020,4 hPa 0,0 l/m 14,9 km/h (3 Bft) W-SW 246 2 min 0,000 mm 5,6 UV-I 1056 W/m 7,8 C 18,2 C 22,5 km/h (4 Bft) 95,45 %
17.06.2017 15:02 21,0 C 23,3 C 45 % 1020,4 hPa 0,0 l/m 15,3 km/h (3 Bft) W-SW 256 2 min 0,558 mm 5,6 UV-I 975 W/m 8,6 C 18,4 C 27,4 km/h (4 Bft) 97,73 %
17.06.2017 15:04 21,1 C 23,3 C 42 % 1020,3 hPa 0,0 l/m 14,4 km/h (3 Bft) W-SW 252 2 min 0,000 mm 4,7 UV-I 960 W/m 7,7 C 18,7 C 27,4 km/h (4 Bft) 90,91 %
17.06.2017 15:06 21,1 C 23,3 C 42 % 1020,3 hPa 0,0 l/m 16,5 km/h (3 Bft) W 260 2 min 0,000 mm 5,2 UV-I 916 W/m 7,7 C 18,3 C 33,8 km/h (5 Bft) 98,21 %
17.06.2017 15:08 20,9 C 23,3 C 42 % 1020,2 hPa 0,0 l/m 15,0 km/h (3 Bft) SW 215 2 min 0,000 mm 5,3 UV-I 916 W/m 7,5 C 18,3 C 32,2 km/h (5 Bft) 97,73 %
17.06.2017 15:10 20,9 C 23,3 C 43 % 1020,2 hPa 0,0 l/m 9,9 km/h (2 Bft) W 281 2 min 0,000 mm 5,3 UV-I 925 W/m 7,8 C 19,7 C 22,5 km/h (4 Bft) 92,00 %
17.06.2017 15:12 20,9 C 23,3 C 41 % 1020,3 hPa 0,0 l/m 13,5 km/h (3 Bft) W-SW 252 2 min 0,000 mm 5,1 UV-I 877 W/m 7,2 C 18,7 C 29,0 km/h (5 Bft) 88,89 %
17.06.2017 15:14 21,1 C 23,3 C 42 % 1020,3 hPa 0,0 l/m 19,9 km/h (4 Bft) W 269 2 min 0,000 mm 5,1 UV-I 871 W/m 7,7 C 17,6 C 32,2 km/h (5 Bft) 100,00 %
17.06.2017 15:16 21,2 C 23,3 C 41 % 1020,1 hPa 0,0 l/m 18,2 km/h (3 Bft) SW 234 2 min 0,000 mm 4,9 UV-I 867 W/m 7,4 C 18,1 C 30,6 km/h (5 Bft) 96,77 %
17.06.2017 15:18 21,2 C 23,3 C 41 % 1020,1 hPa 0,0 l/m 10,0 km/h (2 Bft) SW 225 2 min 0,000 mm 4,7 UV-I 872 W/m 7,4 C 20,0 C 24,1 km/h (4 Bft) 93,62 %
17.06.2017 15:20 21,1 C 23,3 C 43 % 1020,1 hPa 0,0 l/m 11,2 km/h (2 Bft) SW 225 2 min 0,000 mm 4,4 UV-I 872 W/m 8,0 C 19,5 C 20,9 km/h (4 Bft) 97,67 %
17.06.2017 15:22 21,1 C 23,3 C 41 % 1020,1 hPa 0,0 l/m 18,0 km/h (3 Bft) W-SW 252 2 min 0,000 mm 4,4 UV-I 872 W/m 7,3 C 18,0 C 27,4 km/h (4 Bft) 97,87 %
17.06.2017 15:24 21,0 C 23,3 C 42 % 1020,1 hPa 0,0 l/m 11,6 km/h (2 Bft) W 273 2 min 0,000 mm 4,9 UV-I 806 W/m 7,6 C 19,3 C 19,3 km/h (3 Bft) 95,12 %
17.06.2017 15:26 20,9 C 23,3 C 43 % 1020,2 hPa 0,0 l/m 10,4 km/h (2 Bft) N-NW 339 2 min 0,000 mm 4,6 UV-I 800 W/m 7,8 C 19,5 C 29,0 km/h (5 Bft) 94,00 %
17.06.2017 15:28 21,1 C 23,3 C 44 % 1020,0 hPa 0,0 l/m 8,7 km/h (2 Bft) W 265 2 min 0,000 mm 4,6 UV-I 813 W/m 8,4 C 20,3 C 17,7 km/h (3 Bft) 94,00 %
17.06.2017 15:30 21,3 C 23,3 C 41 % 1020,0 hPa 0,0 l/m 12,9 km/h (3 Bft) W 266 2 min 0,000 mm 4,6 UV-I 834 W/m 7,5 C 19,3 C 20,9 km/h (4 Bft) 97,87 %
17.06.2017 15:32 21,3 C 23,3 C 42 % 1020,1 hPa 0,0 l/m 10,7 km/h (2 Bft) W 279 2 min 0,000 mm 3,9 UV-I 865 W/m 7,9 C 19,9 C 19,3 km/h (3 Bft) 96,00 %
17.06.2017 15:34 21,1 C 25,6 C 42 % 1020,1 hPa 0,0 l/m 10,9 km/h (2 Bft) W-SW 253 2 min 0,000 mm 2,6 UV-I 482 W/m 7,7 C 19,6 C 22,5 km/h (4 Bft) 97,56 %
17.06.2017 15:36 20,7 C 25,6 C 42 % 1020,0 hPa 0,0 l/m 14,9 km/h (3 Bft) W-SW 254 0 min 0,000 mm 2,8 UV-I 239 W/m 7,3 C 18,1 C 25,7 km/h (4 Bft) 100,00 %
17.06.2017 15:38 20,3 C 23,9 C 42 % 1020,1 hPa 0,0 l/m 14,4 km/h (3 Bft) W-SW 244 0 min 0,000 mm 2,1 UV-I 221 W/m 7,0 C 17,8 C 19,3 km/h (3 Bft) 98,28 %
17.06.2017 15:40 19,9 C 23,9 C 44 % 1020,2 hPa 0,0 l/m 16,8 km/h (3 Bft) W 267 0 min 0,000 mm 1,9 UV-I 195 W/m 7,3 C 16,7 C 27,4 km/h (4 Bft) 100,00 %
17.06.2017 15:42 19,7 C 23,9 C 44 % 1020,2 hPa 0,0 l/m 15,0 km/h (3 Bft) S-SW 207 0 min 0,000 mm 1,8 UV-I 189 W/m 7,1 C 16,9 C 25,7 km/h (4 Bft) 100,00 %
17.06.2017 15:44 19,6 C 23,9 C 45 % 1020,2 hPa 0,0 l/m 14,3 km/h (3 Bft) W 273 0 min 0,000 mm 1,9 UV-I 220 W/m 7,3 C 16,9 C 25,7 km/h (4 Bft) 100,00 %
17.06.2017 15:46 19,6 C 23,9 C 46 % 1020,2 hPa 0,0 l/m 9,5 km/h (2 Bft) W-SW 247 0 min 0,000 mm 3,6 UV-I 311 W/m 7,7 C 18,4 C 19,3 km/h (3 Bft) 92,45 %
17.06.2017 15:48 19,8 C 23,9 C 45 % 1020,3 hPa 0,0 l/m 14,2 km/h (3 Bft) W-NW 300 0 min 0,000 mm 3,0 UV-I 331 W/m 7,5 C 17,2 C 24,1 km/h (4 Bft) 92,45 %
17.06.2017 15:50 19,9 C 23,9 C 45 % 1020,3 hPa 0,0 l/m 14,0 km/h (3 Bft) W-NW 297 2 min 0,000 mm 3,8 UV-I 561 W/m 7,6 C 17,4 C 25,7 km/h (4 Bft) 96,30 %
17.06.2017 15:52 20,2 C 23,9 C 45 % 1020,2 hPa 0,0 l/m 13,7 km/h (3 Bft) W 280 2 min 0,000 mm 4,0 UV-I 790 W/m 7,9 C 17,8 C 24,1 km/h (4 Bft) 98,21 %
17.06.2017 15:54 20,3 C 23,9 C 45 % 1020,2 hPa 0,0 l/m 14,1 km/h (3 Bft) W-SW 246 2 min 0,000 mm 3,6 UV-I 685 W/m 8,0 C 17,8 C 22,5 km/h (4 Bft) 98,00 %
17.06.2017 15:56 20,4 C 23,9 C 45 % 1020,2 hPa 0,0 l/m 15,1 km/h (3 Bft) W-SW 255 0 min 0,000 mm 2,6 UV-I 292 W/m 8,1 C 17,7 C 25,7 km/h (4 Bft) 94,00 %
17.06.2017 15:58 20,3 C 23,9 C 45 % 1020,3 hPa 0,0 l/m 18,8 km/h (3 Bft) W 263 0 min 0,000 mm 2,0 UV-I 187 W/m 8,0 C 16,8 C 25,7 km/h (4 Bft) 94,00 %
17.06.2017 16:00 20,0 C 23,9 C 46 % 1020,1 hPa 0,0 l/m 11,0 km/h (2 Bft) S-SW 199 0 min 0,483 mm 1,8 UV-I 210 W/m 8,0 C 18,3 C 16,1 km/h (3 Bft) 100,00 %
17.06.2017 16:02 19,8 C 23,9 C 45 % 1020,1 hPa 0,0 l/m 10,0 km/h (2 Bft) W-SW 241 0 min 0,000 mm 1,8 UV-I 236 W/m 7,5 C 18,4 C 17,7 km/h (3 Bft) 92,00 %
17.06.2017 16:04 19,7 C 23,9 C 45 % 1020,1 hPa 0,0 l/m 8,9 km/h (2 Bft) N-NW 332 0 min 0,000 mm 1,8 UV-I 256 W/m 7,4 C 18,7 C 20,9 km/h (4 Bft) 97,87 %
17.06.2017 16:06 19,7 C 23,9 C 47 % 1020,2 hPa 0,0 l/m 11,9 km/h (2 Bft) W-SW 242 0 min 0,000 mm 1,8 UV-I 252 W/m 8,1 C 17,7 C 19,3 km/h (3 Bft) 95,12 %
17.06.2017 16:08 19,8 C 23,9 C 45 % 1020,1 hPa 0,0 l/m 17,5 km/h (3 Bft) W-SW 258 0 min 0,000 mm 2,3 UV-I 335 W/m 7,5 C 16,4 C 29,0 km/h (5 Bft) 100,00 %
17.06.2017 16:10 19,8 C 23,9 C 46 % 1020,1 hPa 0,0 l/m 13,7 km/h (3 Bft) W-SW 252 0 min 0,000 mm 1,9 UV-I 325 W/m 7,8 C 17,3 C 24,1 km/h (4 Bft) 100,00 %
17.06.2017 16:12 19,8 C 23,9 C 45 % 1020,1 hPa 0,0 l/m 20,8 km/h (4 Bft) W 266 0 min 0,000 mm 1,7 UV-I 262 W/m 7,5 C 15,8 C 35,4 km/h (5 Bft) 100,00 %
17.06.2017 16:14 19,7 C 23,9 C 45 % 1020,1 hPa 0,0 l/m 17,9 km/h (3 Bft) SW 230 0 min 0,000 mm 1,7 UV-I 271 W/m 7,4 C 16,2 C 25,7 km/h (4 Bft) 92,68 %
17.06.2017 16:16 19,7 C 23,9 C 46 % 1020,1 hPa 0,0 l/m 16,2 km/h (3 Bft) W 275 0 min 0,000 mm 1,8 UV-I 303 W/m 7,8 C 16,6 C 29,0 km/h (5 Bft) 93,22 %
17.06.2017 16:18 19,7 C 23,9 C 46 % 1020,3 hPa 0,0 l/m 14,7 km/h (3 Bft) W 270 0 min 0,000 mm 2,8 UV-I 357 W/m 7,8 C 17,0 C 22,5 km/h (4 Bft) 96,30 %
17.06.2017 16:20 20,1 C 23,9 C 45 % 1020,2 hPa 0,0 l/m 12,7 km/h (3 Bft) W-SW 256 2 min 0,000 mm 3,3 UV-I 871 W/m 7,8 C 18,0 C 19,3 km/h (3 Bft) 96,88 %
17.06.2017 16:22 20,6 C 23,9 C 46 % 1020,2 hPa 0,0 l/m 14,7 km/h (3 Bft) W-SW 255 2 min 0,000 mm 3,5 UV-I 871 W/m 8,6 C 18,0 C 30,6 km/h (5 Bft) 97,87 %
17.06.2017 16:24 20,8 C 23,9 C 44 % 1020,1 hPa 0,0 l/m 15,3 km/h (3 Bft) W-SW 243 2 min 0,000 mm 3,2 UV-I 830 W/m 8,1 C 18,2 C 24,1 km/h (4 Bft) 92,45 %
17.06.2017 16:26 21,0 C 23,9 C 44 % 1020,1 hPa 0,0 l/m 14,7 km/h (3 Bft) SW 235 2 min 0,000 mm 3,2 UV-I 768 W/m 8,3 C 18,5 C 27,4 km/h (4 Bft) 97,87 %
17.06.2017 16:28 21,1 C 23,9 C 44 % 1020,1 hPa 0,0 l/m 15,0 km/h (3 Bft) W-SW 257 2 min 0,000 mm 2,6 UV-I 773 W/m 8,4 C 18,6 C 22,5 km/h (4 Bft) 97,73 %
17.06.2017 16:30 20,9 C 23,9 C 43 % 1020,1 hPa 0,0 l/m 11,6 km/h (2 Bft) W-SW 258 2 min 0,000 mm 1,8 UV-I 376 W/m 7,8 C 19,2 C 20,9 km/h (4 Bft) 94,87 %
17.06.2017 16:32 20,6 C 23,9 C 44 % 1020,1 hPa 0,0 l/m 18,4 km/h (3 Bft) W-NW 288 0 min 0,000 mm 1,6 UV-I 248 W/m 7,9 C 17,3 C 32,2 km/h (5 Bft) 94,74 %
17.06.2017 16:34 20,3 C 23,9 C 45 % 1020,1 hPa 0,0 l/m 19,7 km/h (3 Bft) W 264 0 min 0,000 mm 1,7 UV-I 265 W/m 8,0 C 16,6 C 32,2 km/h (5 Bft) 95,45 %
17.06.2017 16:36 20,2 C 23,9 C 45 % 1020,0 hPa 0,0 l/m 11,2 km/h (2 Bft) N 9 0 min 0,000 mm 1,4 UV-I 256 W/m 7,9 C 18,5 C 25,7 km/h (4 Bft) 98,00 %
17.06.2017 16:38 20,1 C 23,9 C 46 % 1020,1 hPa 0,0 l/m 13,6 km/h (3 Bft) W-SW 238 0 min 0,000 mm 1,4 UV-I 235 W/m 8,1 C 17,7 C 30,6 km/h (5 Bft) 100,00 %
17.06.2017 16:40 19,9 C 23,9 C 46 % 1020,2 hPa 0,0 l/m 16,0 km/h (3 Bft) W-SW 248 0 min 0,000 mm 1,2 UV-I 217 W/m 7,9 C 16,9 C 32,2 km/h (5 Bft) 94,00 %
17.06.2017 16:42 19,8 C 23,9 C 46 % 1020,2 hPa 0,0 l/m 12,6 km/h (3 Bft) W-SW 246 0 min 0,000 mm 1,3 UV-I 238 W/m 7,8 C 17,6 C 19,3 km/h (3 Bft) 92,11 %
17.06.2017 16:44 19,8 C 23,9 C 46 % 1020,2 hPa 0,0 l/m 17,3 km/h (3 Bft) W 269 0 min 0,000 mm 1,6 UV-I 271 W/m 7,8 C 16,5 C 29,0 km/h (5 Bft) 100,00 %
17.06.2017 16:46 19,9 C 23,9 C 46 % 1020,2 hPa 0,0 l/m 13,3 km/h (3 Bft) W-NW 286 2 min 0,000 mm 2,6 UV-I 662 W/m 7,9 C 17,6 C 24,1 km/h (4 Bft) 100,00 %
17.06.2017 16:48 20,3 C 23,9 C 45 % 1020,1 hPa 0,0 l/m 12,9 km/h (3 Bft) W-SW 258 2 min 0,000 mm 2,5 UV-I 777 W/m 8,0 C 18,1 C 24,1 km/h (4 Bft) 94,00 %
17.06.2017 16:50 20,4 C 23,9 C 44 % 1020,1 hPa 0,0 l/m 11,7 km/h (2 Bft) W-SW 255 2 min 0,000 mm 1,9 UV-I 775 W/m 7,7 C 18,6 C 20,9 km/h (4 Bft) 92,68 %
17.06.2017 16:52 20,4 C 23,9 C 45 % 1020,0 hPa 0,0 l/m 11,5 km/h (2 Bft) SW 227 2 min 0,000 mm 2,6 UV-I 708 W/m 8,1 C 18,6 C 20,9 km/h (4 Bft) 94,00 %
17.06.2017 16:54 20,5 C 23,9 C 44 % 1020,0 hPa 0,0 l/m 13,3 km/h (3 Bft) W-SW 244 2 min 0,000 mm 2,2 UV-I 663 W/m 7,8 C 18,3 C 20,9 km/h (4 Bft) 96,00 %
17.06.2017 16:56 20,4 C 23,9 C 45 % 1020,1 hPa 0,0 l/m 12,5 km/h (3 Bft) W-SW 245 0 min 0,000 mm 1,6 UV-I 160 W/m 8,1 C 18,4 C 19,3 km/h (3 Bft) 95,12 %
17.06.2017 16:58 20,4 C 23,9 C 45 % 1020,1 hPa 0,0 l/m 7,5 km/h (2 Bft) W-NW 284 2 min 0,000 mm 2,1 UV-I 357 W/m 8,1 C 20,0 C 14,5 km/h (3 Bft) 90,91 %
17.06.2017 17:00 20,6 C 23,9 C 44 % 1020,1 hPa 0,0 l/m 14,4 km/h (3 Bft) W-SW 238 2 min 0,000 mm 2,3 UV-I 674 W/m 7,9 C 18,1 C 24,1 km/h (4 Bft) 94,34 %
17.06.2017 17:02 20,7 C 23,9 C 44 % 1020,2 hPa 0,0 l/m 12,1 km/h (2 Bft) W-SW 245 2 min 0,356 mm 2,3 UV-I 710 W/m 8,0 C 18,8 C 24,1 km/h (4 Bft) 95,12 %
17.06.2017 17:04 20,9 C 23,9 C 44 % 1020,3 hPa 0,0 l/m 14,3 km/h (3 Bft) W-SW 246 2 min 0,000 mm 2,3 UV-I 715 W/m 8,2 C 18,5 C 22,5 km/h (4 Bft) 96,30 %
17.06.2017 17:06 21,1 C 23,9 C 44 % 1020,2 hPa 0,0 l/m 15,1 km/h (3 Bft) SW 234 2 min 0,000 mm 2,2 UV-I 680 W/m 8,4 C 18,6 C 22,5 km/h (4 Bft) 95,71 %
17.06.2017 17:08 20,9 C 23,9 C 44 % 1020,2 hPa 0,0 l/m 18,3 km/h (3 Bft) W 267 0 min 0,000 mm 1,7 UV-I 293 W/m 8,2 C 17,7 C 37,0 km/h (5 Bft) 97,78 %
17.06.2017 17:10 20,7 C 23,9 C 43 % 1020,2 hPa 0,0 l/m 12,5 km/h (3 Bft) W-SW 253 0 min 0,000 mm 1,5 UV-I 176 W/m 7,7 C 18,7 C 25,7 km/h (4 Bft) 92,45 %
17.06.2017 17:12 20,3 C 23,9 C 44 % 1020,1 hPa 0,0 l/m 12,5 km/h (3 Bft) W 264 0 min 0,000 mm 1,4 UV-I 147 W/m 7,6 C 18,2 C 22,5 km/h (4 Bft) 92,68 %
17.06.2017 17:14 20,0 C 23,9 C 45 % 1020,2 hPa 0,0 l/m 11,4 km/h (2 Bft) W-SW 246 0 min 0,000 mm 1,3 UV-I 156 W/m 7,7 C 18,2 C 20,9 km/h (4 Bft) 93,18 %
17.06.2017 17:16 19,8 C 23,9 C 45 % 1020,1 hPa 0,0 l/m 12,4 km/h (3 Bft) SW 236 0 min 0,000 mm 1,3 UV-I 185 W/m 7,5 C 17,7 C 19,3 km/h (3 Bft) 91,53 %
17.06.2017 17:18 19,8 C 23,9 C 47 % 1020,2 hPa 0,0 l/m 10,4 km/h (2 Bft) SW 236 0 min 0,000 mm 1,4 UV-I 212 W/m 8,2 C 18,3 C 19,3 km/h (3 Bft) 89,36 %
17.06.2017 17:20 20,1 C 23,9 C 46 % 1020,1 hPa 0,0 l/m 14,6 km/h (3 Bft) W-SW 258 2 min 0,000 mm 1,9 UV-I 616 W/m 8,1 C 17,5 C 20,9 km/h (4 Bft) 93,62 %
17.06.2017 17:22 20,4 C 23,9 C 44 % 1020,0 hPa 0,0 l/m 10,7 km/h (2 Bft) W 264 2 min 0,000 mm 2,0 UV-I 601 W/m 7,7 C 18,9 C 22,5 km/h (4 Bft) 90,91 %
17.06.2017 17:24 20,7 C 23,9 C 43 % 1020,0 hPa 0,0 l/m 12,0 km/h (2 Bft) W-NW 290 2 min 0,000 mm 1,9 UV-I 552 W/m 7,7 C 18,8 C 20,9 km/h (4 Bft) 95,12 %
17.06.2017 17:26 20,8 C 23,9 C 42 % 1020,0 hPa 0,0 l/m 13,8 km/h (3 Bft) W 281 2 min 0,000 mm 1,8 UV-I 568 W/m 7,4 C 18,5 C 27,4 km/h (4 Bft) 95,74 %
17.06.2017 17:28 21,0 C 23,9 C 43 % 1020,1 hPa 0,0 l/m 11,6 km/h (2 Bft) W 273 2 min 0,000 mm 1,5 UV-I 571 W/m 7,9 C 19,3 C 24,1 km/h (4 Bft) 97,73 %
17.06.2017 17:30 20,9 C 23,9 C 42 % 1020,1 hPa 0,0 l/m 13,9 km/h (3 Bft) W-SW 248 0 min 0,000 mm 1,2 UV-I 178 W/m 7,5 C 18,6 C 22,5 km/h (4 Bft) 98,21 %
17.06.2017 17:32 20,6 C 23,9 C 42 % 1020,1 hPa 0,0 l/m 16,3 km/h (3 Bft) W-SW 250 0 min 0,000 mm 1,1 UV-I 120 W/m 7,2 C 17,7 C 22,5 km/h (4 Bft) 95,12 %
17.06.2017 17:34 20,2 C 23,9 C 43 % 1020,2 hPa 0,0 l/m 12,5 km/h (3 Bft) SW 232 0 min 0,000 mm 1,2 UV-I 141 W/m 7,2 C 18,1 C 22,5 km/h (4 Bft) 98,11 %
17.06.2017 17:36 20,1 C 23,9 C 44 % 1020,1 hPa 0,0 l/m 10,0 km/h (2 Bft) W-NW 284 0 min 0,000 mm 1,6 UV-I 178 W/m 7,5 C 18,8 C 27,4 km/h (4 Bft) 97,56 %
17.06.2017 17:38 20,2 C 23,9 C 44 % 1020,1 hPa 0,0 l/m 9,3 km/h (2 Bft) S-SW 207 2 min 0,000 mm 1,6 UV-I 517 W/m 7,6 C 19,1 C 17,7 km/h (3 Bft) 93,18 %
17.06.2017 17:40 20,4 C 23,9 C 44 % 1020,1 hPa 0,0 l/m 8,3 km/h (2 Bft) NW 310 2 min 0,000 mm 1,6 UV-I 495 W/m 7,7 C 19,7 C 14,5 km/h (3 Bft) 97,73 %
17.06.2017 17:42 20,4 C 23,9 C 44 % 1020,1 hPa 0,0 l/m 9,1 km/h (2 Bft) W-SW 246 2 min 0,000 mm 1,3 UV-I 499 W/m 7,7 C 19,4 C 17,7 km/h (3 Bft) 90,00 %
17.06.2017 17:44 20,5 C 23,9 C 44 % 1020,1 hPa 0,0 l/m 11,0 km/h (2 Bft) W 259 2 min 0,000 mm 1,5 UV-I 495 W/m 7,8 C 18,9 C 19,3 km/h (3 Bft) 98,21 %
17.06.2017 17:47 20,7 C 23,9 C 44 % 1020,1 hPa 0,0 l/m 10,4 km/h (2 Bft) W 267 3 min 0,000 mm 1,5 UV-I 465 W/m 8,0 C 19,3 C 16,1 km/h (3 Bft) 96,92 %
17.06.2017 17:48 20,8 C 23,9 C 44 % 1020,1 hPa 0,0 l/m 12,4 km/h (3 Bft) W-SW 241 1 min 0,000 mm 1,5 UV-I 458 W/m 8,1 C 18,8 C 22,5 km/h (4 Bft) 96,40 %
17.06.2017 17:50 20,9 C 23,9 C 45 % 1020,1 hPa 0,0 l/m 11,8 km/h (2 Bft) W 263 2 min 0,000 mm 1,5 UV-I 462 W/m 8,5 C 19,1 C 24,1 km/h (4 Bft) 97,01 %
17.06.2017 17:52 21,0 C 23,9 C 42 % 1020,2 hPa 0,0 l/m 16,9 km/h (3 Bft) W-SW 246 2 min 0,000 mm 1,4 UV-I 461 W/m 7,6 C 18,1 C 29,0 km/h (5 Bft) 91,49 %
17.06.2017 17:54 20,9 C 23,9 C 43 % 1020,1 hPa 0,0 l/m 17,2 km/h (3 Bft) W-SW 244 2 min 0,000 mm 1,4 UV-I 461 W/m 7,8 C 17,9 C 37,0 km/h (5 Bft) 91,49 %
17.06.2017 17:56 20,9 C 23,9 C 42 % 1020,1 hPa 0,0 l/m 18,9 km/h (3 Bft) W 260 2 min 0,000 mm 1,3 UV-I 457 W/m 7,5 C 17,6 C 29,0 km/h (5 Bft) 98,11 %
17.06.2017 17:59 20,8 C 23,9 C 42 % 1020,0 hPa 0,0 l/m 15,7 km/h (3 Bft) SW 226 3 min 0,000 mm 1,2 UV-I 297 W/m 7,4 C 18,1 C 29,0 km/h (5 Bft) 96,05 %
17.06.2017 18:00 20,8 C 23,9 C 43 % 1020,0 hPa 0,0 l/m 13,7 km/h (3 Bft) W-NW 285 1 min 0,000 mm 1,3 UV-I 450 W/m 7,8 C 18,5 C 19,3 km/h (3 Bft) 93,33 %
17.06.2017 18:02 20,7 C 23,9 C 42 % 1020,0 hPa 0,0 l/m 15,6 km/h (3 Bft) NW 305 2 min 0,330 mm 1,3 UV-I 446 W/m 7,3 C 18,0 C 24,1 km/h (4 Bft) 92,68 %
17.06.2017 18:04 20,7 C 23,9 C 43 % 1020,0 hPa 0,0 l/m 8,6 km/h (2 Bft) W-SW 239 2 min 0,000 mm 1,2 UV-I 431 W/m 7,7 C 19,9 C 17,7 km/h (3 Bft) 96,23 %
17.06.2017 18:06 20,8 C 23,9 C 43 % 1020,1 hPa 0,0 l/m 13,6 km/h (3 Bft) W 264 2 min 0,000 mm 1,2 UV-I 424 W/m 7,8 C 18,5 C 24,1 km/h (4 Bft) 95,74 %
17.06.2017 18:08 20,8 C 23,9 C 42 % 1020,1 hPa 0,0 l/m 11,6 km/h (2 Bft) W-SW 250 2 min 0,000 mm 1,2 UV-I 406 W/m 7,4 C 19,1 C 25,7 km/h (4 Bft) 95,45 %
17.06.2017 18:10 20,8 C 23,9 C 43 % 1020,0 hPa 0,0 l/m 9,9 km/h (2 Bft) SW 229 2 min 0,000 mm 0,9 UV-I 291 W/m 7,8 C 19,6 C 17,7 km/h (3 Bft) 94,00 %
17.06.2017 18:12 20,8 C 23,9 C 42 % 1020,0 hPa 0,0 l/m 18,0 km/h (3 Bft) W 269 0 min 0,000 mm 1,1 UV-I 175 W/m 7,4 C 17,6 C 27,4 km/h (4 Bft) 95,45 %
17.06.2017 18:14 20,8 C 23,9 C 43 % 1020,0 hPa 0,0 l/m 14,0 km/h (3 Bft) SW 229 2 min 0,000 mm 1,0 UV-I 401 W/m 7,8 C 18,4 C 24,1 km/h (4 Bft) 97,56 %
17.06.2017 18:16 20,8 C 23,9 C 43 % 1020,0 hPa 0,0 l/m 23,7 km/h (4 Bft) SW 225 2 min 0,000 mm 1,0 UV-I 404 W/m 7,8 C 16,7 C 33,8 km/h (5 Bft) 91,53 %
17.06.2017 18:18 20,9 C 23,9 C 42 % 1020,0 hPa 0,0 l/m 20,1 km/h (4 Bft) W-SW 246 2 min 0,000 mm 1,0 UV-I 404 W/m 7,5 C 17,4 C 27,4 km/h (4 Bft) 93,18 %
17.06.2017 18:20 20,8 C 23,9 C 42 % 1019,9 hPa 0,0 l/m 18,3 km/h (3 Bft) W-SW 256 2 min 0,000 mm 1,0 UV-I 392 W/m 7,4 C 17,5 C 32,2 km/h (5 Bft) 95,12 %
17.06.2017 18:22 20,8 C 23,9 C 43 % 1020,0 hPa 0,0 l/m 12,7 km/h (3 Bft) W-SW 248 2 min 0,000 mm 1,0 UV-I 371 W/m 7,8 C 18,8 C 24,1 km/h (4 Bft) 94,64 %
17.06.2017 18:24 20,7 C 23,9 C 43 % 1019,9 hPa 0,0 l/m 11,5 km/h (2 Bft) SW 218 2 min 0,000 mm 0,9 UV-I 355 W/m 7,7 C 19,0 C 24,1 km/h (4 Bft) 97,37 %
17.06.2017 18:26 20,7 C 23,9 C 43 % 1020,0 hPa 0,0 l/m 9,9 km/h (2 Bft) W 259 2 min 0,000 mm 0,9 UV-I 340 W/m 7,7 C 19,4 C 24,1 km/h (4 Bft) 93,75 %
17.06.2017 18:28 20,8 C 23,9 C 42 % 1020,0 hPa 0,0 l/m 12,6 km/h (3 Bft) W-SW 238 2 min 0,000 mm 0,9 UV-I 329 W/m 7,4 C 18,8 C 24,1 km/h (4 Bft) 96,00 %
17.06.2017 18:30 20,9 C 23,9 C 42 % 1020,0 hPa 0,0 l/m 16,8 km/h (3 Bft) W-SW 240 2 min 0,000 mm 0,8 UV-I 295 W/m 7,5 C 18,0 C 25,7 km/h (4 Bft) 97,73 %
17.06.2017 18:32 20,8 C 23,9 C 41 % 1019,9 hPa 0,0 l/m 18,2 km/h (3 Bft) SW 225 2 min 0,000 mm 0,8 UV-I 315 W/m 7,1 C 17,6 C 27,4 km/h (4 Bft) 100,00 %
17.06.2017 18:34 20,6 C 23,9 C 42 % 1020,0 hPa 0,0 l/m 12,5 km/h (3 Bft) SW 236 2 min 0,000 mm 0,8 UV-I 310 W/m 7,2 C 18,6 C 20,9 km/h (4 Bft) 97,37 %
17.06.2017 18:36 20,6 C 23,9 C 43 % 1020,0 hPa 0,0 l/m 10,6 km/h (2 Bft) SW 223 2 min 0,000 mm 0,8 UV-I 301 W/m 7,6 C 19,1 C 17,7 km/h (3 Bft) 94,34 %
17.06.2017 18:38 20,6 C 23,9 C 43 % 1020,0 hPa 0,0 l/m 14,1 km/h (3 Bft) W-NW 288 2 min 0,000 mm 0,8 UV-I 298 W/m 7,6 C 18,2 C 22,5 km/h (4 Bft) 97,37 %
17.06.2017 18:40 20,5 C 23,9 C 43 % 1019,9 hPa 0,0 l/m 13,4 km/h (3 Bft) W-SW 248 2 min 0,000 mm 0,7 UV-I 289 W/m 7,5 C 18,2 C 27,4 km/h (4 Bft) 98,15 %
17.06.2017 18:42 20,6 C 23,9 C 43 % 1020,0 hPa 0,0 l/m 11,0 km/h (2 Bft) W-NW 290 2 min 0,000 mm 0,7 UV-I 280 W/m 7,6 C 19,0 C 24,1 km/h (4 Bft) 97,56 %
17.06.2017 18:44 20,5 C 23,9 C 43 % 1020,0 hPa 0,0 l/m 16,9 km/h (3 Bft) NW 316 2 min 0,000 mm 0,7 UV-I 272 W/m 7,5 C 17,4 C 27,4 km/h (4 Bft) 96,61 %
17.06.2017 18:46 20,4 C 23,9 C 43 % 1020,0 hPa 0,0 l/m 13,0 km/h (3 Bft) W 280 2 min 0,000 mm 0,7 UV-I 267 W/m 7,4 C 18,2 C 22,5 km/h (4 Bft) 94,74 %
17.06.2017 18:48 20,3 C 23,9 C 43 % 1020,0 hPa 0,0 l/m 13,6 km/h (3 Bft) W 267 2 min 0,000 mm 0,6 UV-I 249 W/m 7,3 C 18,0 C 20,9 km/h (4 Bft) 92,45 %
17.06.2017 18:50 20,3 C 23,9 C 44 % 1020,0 hPa 0,0 l/m 11,6 km/h (2 Bft) W 267 2 min 0,000 mm 0,6 UV-I 262 W/m 7,6 C 18,5 C 17,7 km/h (3 Bft) 93,62 %
17.06.2017 18:52 20,3 C 23,9 C 43 % 1020,0 hPa 0,0 l/m 13,1 km/h (3 Bft) W-SW 254 2 min 0,000 mm 0,6 UV-I 259 W/m 7,3 C 18,1 C 17,7 km/h (3 Bft) 91,49 %
17.06.2017 18:54 20,3 C 23,9 C 43 % 1020,0 hPa 0,0 l/m 12,3 km/h (3 Bft) SW 216 2 min 0,000 mm 0,6 UV-I 256 W/m 7,3 C 18,3 C 29,0 km/h (5 Bft) 91,43 %
17.06.2017 18:56 20,4 C 23,9 C 44 % 1020,1 hPa 0,0 l/m 13,1 km/h (3 Bft) W-SW 240 2 min 0,000 mm 0,6 UV-I 246 W/m 7,7 C 18,2 C 29,0 km/h (5 Bft) 94,34 %
17.06.2017 18:58 20,4 C 23,9 C 43 % 1020,1 hPa 0,0 l/m 16,8 km/h (3 Bft) W-SW 254 2 min 0,000 mm 0,5 UV-I 237 W/m 7,4 C 17,3 C 29,0 km/h (5 Bft) 96,00 %
17.06.2017 19:00 20,4 C 23,9 C 43 % 1020,1 hPa 0,0 l/m 13,9 km/h (3 Bft) SW 235 2 min 0,305 mm 0,5 UV-I 236 W/m 7,4 C 18,0 C 22,5 km/h (4 Bft) 90,24 %
17.06.2017 19:02 20,4 C 23,9 C 43 % 1020,1 hPa 0,0 l/m 18,0 km/h (3 Bft) W 265 2 min 0,000 mm 0,5 UV-I 236 W/m 7,4 C 17,1 C 27,4 km/h (4 Bft) 92,00 %
17.06.2017 19:04 20,4 C 23,9 C 43 % 1020,1 hPa 0,0 l/m 14,5 km/h (3 Bft) W-SW 246 2 min 0,000 mm 0,5 UV-I 233 W/m 7,4 C 17,9 C 25,7 km/h (4 Bft) 96,23 %
17.06.2017 19:06 20,4 C 23,9 C 42 % 1020,1 hPa 0,0 l/m 23,2 km/h (4 Bft) SW 219 2 min 0,000 mm 0,5 UV-I 223 W/m 7,1 C 16,2 C 32,2 km/h (5 Bft) 97,62 %
17.06.2017 19:08 20,3 C 23,9 C 42 % 1020,1 hPa 0,0 l/m 15,8 km/h (3 Bft) SW 225 2 min 0,000 mm 0,1 UV-I 215 W/m 7,0 C 17,4 C 27,4 km/h (4 Bft) 97,73 %
17.06.2017 19:10 20,3 C 23,9 C 43 % 1020,1 hPa 0,0 l/m 13,2 km/h (3 Bft) W-SW 245 2 min 0,000 mm 0,0 UV-I 210 W/m 7,3 C 18,1 C 19,3 km/h (3 Bft) 90,00 %
17.06.2017 19:12 20,3 C 23,9 C 44 % 1020,1 hPa 0,0 l/m 10,5 km/h (2 Bft) S-SW 196 2 min 0,000 mm 0,0 UV-I 201 W/m 7,6 C 18,8 C 17,7 km/h (3 Bft) 93,18 %
17.06.2017 19:14 20,3 C 23,9 C 43 % 1020,2 hPa 0,0 l/m 14,0 km/h (3 Bft) W 264 2 min 0,000 mm 0,0 UV-I 199 W/m 7,3 C 17,9 C 25,7 km/h (4 Bft) 96,88 %
17.06.2017 19:16 20,3 C 23,9 C 44 % 1020,2 hPa 0,0 l/m 7,7 km/h (2 Bft) W-SW 238 2 min 0,000 mm 0,0 UV-I 194 W/m 7,6 C 19,8 C 17,7 km/h (3 Bft) 98,31 %
17.06.2017 19:18 20,2 C 23,9 C 43 % 1020,2 hPa 0,0 l/m 10,9 km/h (2 Bft) W-SW 245 2 min 0,000 mm 0,0 UV-I 194 W/m 7,2 C 18,6 C 22,5 km/h (4 Bft) 96,00 %
17.06.2017 19:20 20,2 C 23,9 C 43 % 1020,2 hPa 0,0 l/m 9,6 km/h (2 Bft) SW 223 2 min 0,000 mm 0,0 UV-I 191 W/m 7,2 C 19,0 C 16,1 km/h (3 Bft) 97,56 %
17.06.2017 19:22 20,2 C 23,9 C 44 % 1020,2 hPa 0,0 l/m 9,3 km/h (2 Bft) W-NW 296 2 min 0,000 mm 0,0 UV-I 182 W/m 7,6 C 19,1 C 17,7 km/h (3 Bft) 94,00 %
17.06.2017 19:24 20,2 C 23,9 C 44 % 1020,2 hPa 0,0 l/m 14,4 km/h (3 Bft) SW 225 2 min 0,000 mm 0,0 UV-I 172 W/m 7,6 C 17,6 C 24,1 km/h (4 Bft) 96,23 %
17.06.2017 19:26 20,2 C 23,9 C 43 % 1020,3 hPa 0,0 l/m 10,7 km/h (2 Bft) W-SW 250 2 min 0,000 mm 0,0 UV-I 163 W/m 7,2 C 18,6 C 20,9 km/h (4 Bft) 95,12 %
17.06.2017 19:28 20,2 C 23,9 C 43 % 1020,3 hPa 0,0 l/m 10,8 km/h (2 Bft) W-NW 300 2 min 0,000 mm 0,0 UV-I 159 W/m 7,2 C 18,6 C 17,7 km/h (3 Bft) 98,00 %
17.06.2017 19:30 20,1 C 23,9 C 44 % 1020,3 hPa 0,0 l/m 15,2 km/h (3 Bft) W 267 2 min 0,000 mm 0,0 UV-I 156 W/m 7,5 C 17,3 C 25,7 km/h (4 Bft) 98,11 %
17.06.2017 19:32 20,1 C 23,9 C 44 % 1020,3 hPa 0,0 l/m 13,9 km/h (3 Bft) W 269 2 min 0,000 mm 0,0 UV-I 154 W/m 7,5 C 17,6 C 20,9 km/h (4 Bft) 95,74 %
17.06.2017 19:34 20,1 C 23,9 C 44 % 1020,2 hPa 0,0 l/m 15,4 km/h (3 Bft) W-SW 258 2 min 0,000 mm 0,0 UV-I 150 W/m 7,5 C 17,3 C 24,1 km/h (4 Bft) 97,56 %
17.06.2017 19:36 20,0 C 23,9 C 44 % 1020,3 hPa 0,0 l/m 9,9 km/h (2 Bft) W-SW 246 2 min 0,000 mm 0,0 UV-I 145 W/m 7,4 C 18,7 C 14,5 km/h (3 Bft) 98,11 %
17.06.2017 19:38 20,0 C 23,9 C 45 % 1020,3 hPa 0,0 l/m 5,9 km/h (2 Bft) W 269 2 min 0,000 mm 0,0 UV-I 140 W/m 7,7 C 20,0 C 14,5 km/h (3 Bft) 100,00 %
17.06.2017 19:40 20,0 C 23,9 C 45 % 1020,3 hPa 0,0 l/m 5,7 km/h (1 Bft) SW 223 2 min 0,000 mm 0,0 UV-I 134 W/m 7,7 C 20,0 C 14,5 km/h (3 Bft) 94,74 %
17.06.2017 19:42 19,9 C 23,9 C 45 % 1020,3 hPa 0,0 l/m 11,5 km/h (2 Bft) N-NO 14 2 min 0,000 mm 0,0 UV-I 128 W/m 7,6 C 18,1 C 19,3 km/h (3 Bft) 95,56 %
17.06.2017 19:44 19,9 C 23,9 C 44 % 1020,3 hPa 0,0 l/m 8,4 km/h (2 Bft) W 270 2 min 0,000 mm 0,0 UV-I 124 W/m 7,3 C 19,1 C 24,1 km/h (4 Bft) 92,98 %
17.06.2017 19:46 19,8 C 23,9 C 44 % 1020,4 hPa 0,0 l/m 5,8 km/h (2 Bft) W 277 2 min 0,000 mm 0,0 UV-I 121 W/m 7,2 C 19,8 C 12,9 km/h (3 Bft) 95,24 %
17.06.2017 19:48 19,8 C 23,9 C 44 % 1020,3 hPa 0,0 l/m 10,0 km/h (2 Bft) W-SW 254 2 min 0,000 mm 0,0 UV-I 116 W/m 7,2 C 18,4 C 17,7 km/h (3 Bft) 98,18 %
17.06.2017 19:50 19,7 C 23,3 C 44 % 1020,3 hPa 0,0 l/m 12,1 km/h (2 Bft) W-SW 239 2 min 0,000 mm 0,0 UV-I 111 W/m 7,1 C 17,7 C 19,3 km/h (3 Bft) 96,30 %
17.06.2017 19:52 19,6 C 23,3 C 44 % 1020,4 hPa 0,0 l/m 12,7 km/h (3 Bft) W 275 2 min 0,000 mm 0,0 UV-I 110 W/m 7,0 C 17,4 C 25,7 km/h (4 Bft) 96,92 %
17.06.2017 19:54 19,5 C 23,3 C 44 % 1020,4 hPa 0,0 l/m 12,9 km/h (3 Bft) W 266 2 min 0,000 mm 0,0 UV-I 106 W/m 6,9 C 17,2 C 22,5 km/h (4 Bft) 92,31 %
17.06.2017 19:56 19,5 C 23,3 C 45 % 1020,4 hPa 0,0 l/m 10,8 km/h (2 Bft) NW 320 2 min 0,000 mm 0,0 UV-I 102 W/m 7,2 C 17,8 C 22,5 km/h (4 Bft) 100,00 %
17.06.2017 19:58 19,4 C 23,3 C 45 % 1020,4 hPa 0,0 l/m 8,3 km/h (2 Bft) W-NW 292 2 min 0,000 mm 0,0 UV-I 99 W/m 7,2 C 18,6 C 20,9 km/h (4 Bft) 98,31 %
17.06.2017 20:00 19,4 C 23,3 C 45 % 1020,4 hPa 0,0 l/m 11,6 km/h (2 Bft) W 266 2 min 0,000 mm 0,0 UV-I 95 W/m 7,2 C 17,5 C 17,7 km/h (3 Bft) 94,74 %
17.06.2017 20:02 19,3 C 23,3 C 46 % 1020,4 hPa 0,0 l/m 9,2 km/h (2 Bft) W-SW 257 2 min 0,177 mm 0,0 UV-I 91 W/m 7,4 C 18,2 C 16,1 km/h (3 Bft) 95,74 %
17.06.2017 20:04 19,3 C 23,3 C 46 % 1020,4 hPa 0,0 l/m 16,7 km/h (3 Bft) W-SW 246 2 min 0,000 mm 0,0 UV-I 87 W/m 7,4 C 16,0 C 25,7 km/h (4 Bft) 100,00 %
17.06.2017 20:06 19,3 C 23,3 C 46 % 1020,4 hPa 0,0 l/m 12,1 km/h (2 Bft) W-NW 289 2 min 0,000 mm 0,0 UV-I 84 W/m 7,4 C 17,2 C 24,1 km/h (4 Bft) 100,00 %
17.06.2017 20:08 19,3 C 23,3 C 46 % 1020,5 hPa 0,0 l/m 13,5 km/h (3 Bft) NW 315 2 min 0,000 mm 0,0 UV-I 80 W/m 7,4 C 16,8 C 17,7 km/h (3 Bft) 100,00 %
17.06.2017 20:10 19,3 C 23,3 C 47 % 1020,5 hPa 0,0 l/m 10,5 km/h (2 Bft) W-SW 239 2 min 0,000 mm 0,0 UV-I 76 W/m 7,7 C 17,7 C 17,7 km/h (3 Bft) 100,00 %
17.06.2017 20:13 19,2 C 23,3 C 46 % 1020,5 hPa 0,0 l/m 12,0 km/h (2 Bft) W-SW 246 3 min 0,000 mm 0,0 UV-I 71 W/m 7,3 C 17,1 C 19,3 km/h (3 Bft) 98,46 %
17.06.2017 20:14 19,2 C 23,3 C 46 % 1020,5 hPa 0,0 l/m 11,8 km/h (2 Bft) SW 228 1 min 0,000 mm 0,0 UV-I 69 W/m 7,3 C 17,2 C 12,9 km/h (3 Bft) 100,00 %
17.06.2017 20:16 19,2 C 23,3 C 47 % 1020,6 hPa 0,0 l/m 10,0 km/h (2 Bft) W 260 2 min 0,000 mm 0,0 UV-I 65 W/m 7,6 C 17,8 C 16,1 km/h (3 Bft) 98,36 %
17.06.2017 20:18 19,1 C 23,3 C 47 % 1020,6 hPa 0,0 l/m 7,4 km/h (2 Bft) W-SW 248 2 min 0,000 mm 0,0 UV-I 61 W/m 7,5 C 18,7 C 27,4 km/h (4 Bft) 98,00 %
17.06.2017 20:20 18,9 C 23,3 C 47 % 1020,6 hPa 0,0 l/m 10,7 km/h (2 Bft) W-SW 242 2 min 0,000 mm 0,0 UV-I 59 W/m 7,3 C 17,2 C 20,9 km/h (4 Bft) 97,44 %
17.06.2017 20:22 18,8 C 23,3 C 47 % 1020,6 hPa 0,0 l/m 10,3 km/h (2 Bft) W-SW 254 2 min 0,000 mm 0,0 UV-I 55 W/m 7,2 C 17,2 C 19,3 km/h (3 Bft) 100,00 %
17.06.2017 20:24 18,8 C 23,3 C 48 % 1020,6 hPa 0,0 l/m 8,8 km/h (2 Bft) W-NW 283 2 min 0,000 mm 0,0 UV-I 52 W/m 7,6 C 17,8 C 16,1 km/h (3 Bft) 96,30 %
17.06.2017 20:26 18,7 C 23,3 C 48 % 1020,6 hPa 0,0 l/m 9,2 km/h (2 Bft) W-NW 294 2 min 0,000 mm 0,0 UV-I 48 W/m 7,5 C 17,5 C 17,7 km/h (3 Bft) 100,00 %
17.06.2017 20:28 18,6 C 23,3 C 48 % 1020,6 hPa 0,0 l/m 8,5 km/h (2 Bft) SW 236 2 min 0,000 mm 0,0 UV-I 46 W/m 7,4 C 17,7 C 17,7 km/h (3 Bft) 97,73 %
17.06.2017 20:30 18,5 C 23,3 C 48 % 1020,6 hPa 0,0 l/m 9,7 km/h (2 Bft) W-SW 245 2 min 0,000 mm 0,0 UV-I 42 W/m 7,3 C 17,1 C 27,4 km/h (4 Bft) 98,21 %
17.06.2017 20:32 18,4 C 23,3 C 48 % 1020,6 hPa 0,0 l/m 6,8 km/h (2 Bft) W-NW 289 2 min 0,000 mm 0,0 UV-I 40 W/m 7,2 C 18,2 C 17,7 km/h (3 Bft) 100,00 %
17.06.2017 20:34 18,4 C 23,3 C 48 % 1020,6 hPa 0,0 l/m 10,0 km/h (2 Bft) W 261 2 min 0,000 mm 0,0 UV-I 37 W/m 7,2 C 16,9 C 17,7 km/h (3 Bft) 100,00 %
17.06.2017 20:36 18,3 C 23,3 C 49 % 1020,7 hPa 0,0 l/m 6,8 km/h (2 Bft) NW 304 2 min 0,000 mm 0,0 UV-I 33 W/m 7,4 C 18,1 C 14,5 km/h (3 Bft) 97,06 %
17.06.2017 20:38 18,3 C 23,3 C 49 % 1020,7 hPa 0,0 l/m 6,3 km/h (2 Bft) NW 310 2 min 0,000 mm 0,0 UV-I 31 W/m 7,4 C 18,3 C 11,3 km/h (2 Bft) 97,56 %
17.06.2017 20:40 18,2 C 23,3 C 49 % 1020,7 hPa 0,0 l/m 8,3 km/h (2 Bft) W-NW 292 0 min 0,000 mm 0,0 UV-I 25 W/m 7,3 C 17,3 C 19,3 km/h (3 Bft) 96,23 %
17.06.2017 20:42 18,2 C 23,3 C 50 % 1020,7 hPa 0,0 l/m 9,4 km/h (2 Bft) W 270 2 min 0,000 mm 0,0 UV-I 25 W/m 7,6 C 16,9 C 14,5 km/h (3 Bft) 96,00 %
17.06.2017 20:44 18,1 C 23,3 C 50 % 1020,7 hPa 0,0 l/m 6,4 km/h (2 Bft) W-SW 253 2 min 0,000 mm 0,0 UV-I 22 W/m 7,5 C 18,1 C 11,3 km/h (2 Bft) 95,12 %
17.06.2017 20:46 18,1 C 23,3 C 50 % 1020,7 hPa 0,0 l/m 8,4 km/h (2 Bft) W-SW 243 2 min 0,000 mm 0,0 UV-I 21 W/m 7,5 C 17,2 C 16,1 km/h (3 Bft) 93,62 %
17.06.2017 20:48 18,1 C 23,3 C 50 % 1020,7 hPa 0,0 l/m 8,2 km/h (2 Bft) W 265 2 min 0,000 mm 0,0 UV-I 18 W/m 7,5 C 17,3 C 14,5 km/h (3 Bft) 95,12 %
17.06.2017 20:50 18,0 C 23,3 C 50 % 1020,8 hPa 0,0 l/m 8,4 km/h (2 Bft) SW 236 2 min 0,000 mm 0,0 UV-I 18 W/m 7,4 C 17,1 C 16,1 km/h (3 Bft) 97,73 %
17.06.2017 20:52 17,9 C 23,3 C 51 % 1020,8 hPa 0,0 l/m 6,9 km/h (2 Bft) W-SW 253 2 min 0,000 mm 0,0 UV-I 16 W/m 7,6 C 17,7 C 12,9 km/h (3 Bft) 96,67 %
17.06.2017 20:54 17,9 C 23,3 C 50 % 1020,9 hPa 0,0 l/m 7,8 km/h (2 Bft) W-SW 257 0 min 0,000 mm 0,0 UV-I 16 W/m 7,3 C 17,2 C 16,1 km/h (3 Bft) 97,73 %
17.06.2017 20:56 17,8 C 23,3 C 50 % 1020,9 hPa 0,0 l/m 12,0 km/h (2 Bft) W-SW 243 0 min 0,000 mm 0,0 UV-I 16 W/m 7,2 C 15,5 C 16,1 km/h (3 Bft) 97,73 %
17.06.2017 20:58 17,8 C 23,3 C 51 % 1020,9 hPa 0,0 l/m 8,5 km/h (2 Bft) W-SW 239 0 min 0,000 mm 0,0 UV-I 13 W/m 7,5 C 16,8 C 12,9 km/h (3 Bft) 94,34 %
17.06.2017 21:00 17,8 C 23,3 C 51 % 1020,9 hPa 0,0 l/m 7,2 km/h (2 Bft) W-NW 287 0 min 0,000 mm 0,0 UV-I 12 W/m 7,5 C 17,4 C 11,3 km/h (2 Bft) 97,56 %
17.06.2017 21:02 17,7 C 23,3 C 51 % 1020,9 hPa 0,0 l/m 6,7 km/h (2 Bft) W 265 0 min 0,102 mm 0,0 UV-I 11 W/m 7,4 C 17,6 C 14,5 km/h (3 Bft) 96,00 %
17.06.2017 21:04 17,7 C 23,3 C 51 % 1020,9 hPa 0,0 l/m 9,3 km/h (2 Bft) W 273 0 min 0,000 mm 0,0 UV-I 11 W/m 7,4 C 16,4 C 16,1 km/h (3 Bft) 95,74 %
17.06.2017 21:06 17,6 C 23,3 C 51 % 1021,0 hPa 0,0 l/m 10,5 km/h (2 Bft) SW 217 0 min 0,000 mm 0,0 UV-I 9 W/m 7,3 C 15,8 C 14,5 km/h (3 Bft) 94,00 %
17.06.2017 21:08 17,6 C 23,3 C 51 % 1020,9 hPa 0,0 l/m 9,5 km/h (2 Bft) W-SW 239 0 min 0,000 mm 0,0 UV-I 9 W/m 7,3 C 16,2 C 14,5 km/h (3 Bft) 95,24 %
17.06.2017 21:10 17,6 C 23,3 C 51 % 1021,0 hPa 0,0 l/m 10,0 km/h (2 Bft) NW 309 0 min 0,000 mm 0,0 UV-I 7 W/m 7,3 C 16,0 C 16,1 km/h (3 Bft) 96,00 %
17.06.2017 21:12 17,5 C 23,3 C 52 % 1020,9 hPa 0,0 l/m 7,2 km/h (2 Bft) W-SW 251 0 min 0,000 mm 0,0 UV-I 7 W/m 7,5 C 17,1 C 11,3 km/h (2 Bft) 95,74 %
17.06.2017 21:14 17,4 C 23,3 C 52 % 1021,0 hPa 0,0 l/m 8,8 km/h (2 Bft) W 265 0 min 0,000 mm 0,0 UV-I 7 W/m 7,4 C 16,3 C 12,9 km/h (3 Bft) 97,87 %
17.06.2017 21:16 17,4 C 23,3 C 52 % 1021,0 hPa 0,0 l/m 8,9 km/h (2 Bft) W 269 0 min 0,000 mm 0,0 UV-I 7 W/m 7,4 C 16,2 C 14,5 km/h (3 Bft) 100,00 %
17.06.2017 21:22 17,3 C 23,3 C 52 % 1021,1 hPa 0,0 l/m 9,1 km/h (2 Bft) W-SW 250 0 min 0,000 mm 0,0 UV-I 5 W/m 7,3 C 16,0 C 14,5 km/h (3 Bft) 97,35 %
17.06.2017 21:24 17,3 C 23,3 C 52 % 1021,2 hPa 0,0 l/m 7,6 km/h (2 Bft) W-SW 257 0 min 0,000 mm 0,0 UV-I 5 W/m 7,3 C 16,7 C 17,7 km/h (3 Bft) 97,56 %
17.06.2017 21:26 17,3 C 23,3 C 52 % 1021,1 hPa 0,0 l/m 6,8 km/h (2 Bft) W 259 0 min 0,000 mm 0,0 UV-I 4 W/m 7,3 C 17,1 C 11,3 km/h (2 Bft) 98,00 %
17.06.2017 21:28 17,3 C 23,3 C 53 % 1021,2 hPa 0,0 l/m 6,5 km/h (2 Bft) W-SW 255 0 min 0,000 mm 0,0 UV-I 0 W/m 7,6 C 17,3 C 11,3 km/h (2 Bft) 97,87 %
17.06.2017 21:30 17,2 C 23,3 C 53 % 1021,3 hPa 0,0 l/m 7,5 km/h (2 Bft) W-SW 243 0 min 0,000 mm 0,0 UV-I 0 W/m 7,5 C 16,7 C 12,9 km/h (3 Bft) 98,00 %
17.06.2017 21:32 17,2 C 23,3 C 53 % 1021,3 hPa 0,0 l/m 6,6 km/h (2 Bft) W 271 0 min 0,000 mm 0,0 UV-I 0 W/m 7,5 C 17,1 C 12,9 km/h (3 Bft) 97,87 %
17.06.2017 21:34 17,1 C 23,3 C 53 % 1021,4 hPa 0,0 l/m 7,9 km/h (2 Bft) W-SW 248 0 min 0,000 mm 0,0 UV-I 0 W/m 7,4 C 16,4 C 12,9 km/h (3 Bft) 100,00 %
17.06.2017 21:36 17,1 C 23,3 C 53 % 1021,4 hPa 0,0 l/m 8,0 km/h (2 Bft) W-SW 240 0 min 0,000 mm 0,0 UV-I 0 W/m 7,4 C 16,3 C 12,9 km/h (3 Bft) 94,64 %
17.06.2017 21:38 17,1 C 23,3 C 53 % 1021,4 hPa 0,0 l/m 6,9 km/h (2 Bft) W-SW 247 0 min 0,000 mm 0,0 UV-I 0 W/m 7,4 C 16,9 C 11,3 km/h (2 Bft) 97,44 %
17.06.2017 21:40 16,9 C 23,3 C 54 % 1021,4 hPa 0,0 l/m 8,7 km/h (2 Bft) W-SW 246 0 min 0,000 mm 0,0 UV-I 0 W/m 7,5 C 15,8 C 12,9 km/h (3 Bft) 95,92 %
17.06.2017 21:42 16,9 C 23,3 C 54 % 1021,4 hPa 0,0 l/m 9,1 km/h (2 Bft) SW 225 0 min 0,000 mm 0,0 UV-I 0 W/m 7,5 C 15,6 C 14,5 km/h (3 Bft) 98,11 %
17.06.2017 21:44 16,8 C 23,3 C 55 % 1021,5 hPa 0,0 l/m 8,3 km/h (2 Bft) W-SW 239 0 min 0,000 mm 0,0 UV-I 0 W/m 7,7 C 15,8 C 12,9 km/h (3 Bft) 97,83 %
17.06.2017 21:46 16,8 C 23,3 C 55 % 1021,4 hPa 0,0 l/m 10,1 km/h (2 Bft) W-SW 246 0 min 0,000 mm 0,0 UV-I 0 W/m 7,7 C 15,1 C 12,9 km/h (3 Bft) 97,67 %
17.06.2017 21:48 16,7 C 23,3 C 55 % 1021,5 hPa 0,0 l/m 8,5 km/h (2 Bft) W 261 0 min 0,000 mm 0,0 UV-I 0 W/m 7,6 C 15,6 C 12,9 km/h (3 Bft) 95,45 %
17.06.2017 21:50 16,6 C 23,3 C 55 % 1021,5 hPa 0,0 l/m 6,6 km/h (2 Bft) W-SW 242 0 min 0,000 mm 0,0 UV-I 0 W/m 7,5 C 16,5 C 11,3 km/h (2 Bft) 97,87 %
17.06.2017 21:52 16,6 C 23,3 C 56 % 1021,6 hPa 0,0 l/m 8,5 km/h (2 Bft) W-SW 242 0 min 0,000 mm 0,0 UV-I 0 W/m 7,8 C 15,5 C 11,3 km/h (2 Bft) 97,73 %
17.06.2017 21:54 16,5 C 23,3 C 56 % 1021,6 hPa 0,0 l/m 8,4 km/h (2 Bft) SW 219 0 min 0,000 mm 0,0 UV-I 0 W/m 7,7 C 15,5 C 11,3 km/h (2 Bft) 98,21 %
17.06.2017 21:56 16,4 C 23,3 C 56 % 1021,6 hPa 0,0 l/m 8,8 km/h (2 Bft) W-SW 242 0 min 0,000 mm 0,0 UV-I 0 W/m 7,6 C 15,2 C 12,9 km/h (3 Bft) 97,73 %
17.06.2017 21:58 16,4 C 23,3 C 57 % 1021,6 hPa 0,0 l/m 8,7 km/h (2 Bft) W-SW 257 0 min 0,000 mm 0,0 UV-I 0 W/m 7,9 C 15,2 C 12,9 km/h (3 Bft) 96,15 %
17.06.2017 22:00 16,3 C 23,3 C 57 % 1021,6 hPa 0,0 l/m 6,5 km/h (2 Bft) W-SW 250 0 min 0,000 mm 0,0 UV-I 0 W/m 7,8 C 16,3 C 8,0 km/h (2 Bft) 95,59 %
17.06.2017 22:02 16,3 C 23,3 C 57 % 1021,7 hPa 0,0 l/m 7,3 km/h (2 Bft) W-SW 248 0 min 0,051 mm 0,0 UV-I 0 W/m 7,8 C 15,8 C 12,9 km/h (3 Bft) 97,87 %
17.06.2017 22:04 16,3 C 23,3 C 57 % 1021,7 hPa 0,0 l/m 7,1 km/h (2 Bft) SW 235 0 min 0,000 mm 0,0 UV-I 0 W/m 7,8 C 15,9 C 11,3 km/h (2 Bft) 96,00 %
17.06.2017 22:06 16,2 C 23,3 C 57 % 1021,7 hPa 0,0 l/m 6,4 km/h (2 Bft) W-SW 248 0 min 0,000 mm 0,0 UV-I 0 W/m 7,7 C 16,2 C 9,7 km/h (2 Bft) 95,45 %
17.06.2017 22:08 16,2 C 23,3 C 58 % 1021,7 hPa 0,0 l/m 6,7 km/h (2 Bft) W-SW 248 0 min 0,000 mm 0,0 UV-I 0 W/m 7,9 C 16,1 C 9,7 km/h (2 Bft) 93,18 %
17.06.2017 22:10 16,1 C 23,3 C 58 % 1021,7 hPa 0,0 l/m 6,0 km/h (2 Bft) SW 236 0 min 0,000 mm 0,0 UV-I 0 W/m 7,8 C 16,1 C 8,0 km/h (2 Bft) 95,74 %
17.06.2017 22:12 16,1 C 23,3 C 58 % 1021,8 hPa 0,0 l/m 6,5 km/h (2 Bft) W-SW 238 0 min 0,000 mm 0,0 UV-I 0 W/m 7,8 C 16,1 C 11,3 km/h (2 Bft) 98,00 %
17.06.2017 22:14 16,0 C 23,3 C 59 % 1021,8 hPa 0,0 l/m 6,3 km/h (2 Bft) SW 220 0 min 0,000 mm 0,0 UV-I 0 W/m 8,0 C 16,0 C 8,0 km/h (2 Bft) 97,87 %
17.06.2017 22:16 16,0 C 23,3 C 59 % 1021,8 hPa 0,0 l/m 7,6 km/h (2 Bft) SW 221 0 min 0,000 mm 0,0 UV-I 0 W/m 8,0 C 15,4 C 9,7 km/h (2 Bft) 95,74 %
17.06.2017 22:18 15,9 C 23,3 C 59 % 1021,8 hPa 0,0 l/m 6,0 km/h (2 Bft) W-SW 238 0 min 0,000 mm 0,0 UV-I 0 W/m 7,9 C 15,9 C 8,0 km/h (2 Bft) 94,44 %
17.06.2017 22:24 15,8 C 23,3 C 60 % 1022,0 hPa 0,0 l/m 6,5 km/h (2 Bft) W-SW 245 0 min 0,000 mm 0,0 UV-I 0 W/m 8,1 C 15,8 C 8,0 km/h (2 Bft) 97,06 %
17.06.2017 22:26 15,7 C 23,3 C 61 % 1022,0 hPa 0,0 l/m 6,0 km/h (2 Bft) W-SW 242 0 min 0,000 mm 0,0 UV-I 0 W/m 8,2 C 15,7 C 8,0 km/h (2 Bft) 93,55 %
17.06.2017 22:28 15,7 C 23,3 C 61 % 1022,0 hPa 0,0 l/m 6,0 km/h (2 Bft) W-SW 251 0 min 0,000 mm 0,0 UV-I 0 W/m 8,2 C 15,7 C 11,3 km/h (2 Bft) 95,74 %
17.06.2017 22:30 15,6 C 23,3 C 61 % 1022,0 hPa 0,0 l/m 7,4 km/h (2 Bft) SW 221 0 min 0,000 mm 0,0 UV-I 0 W/m 8,1 C 15,1 C 12,9 km/h (3 Bft) 95,74 %
17.06.2017 22:32 15,6 C 23,3 C 61 % 1022,0 hPa 0,0 l/m 6,0 km/h (2 Bft) W-SW 250 0 min 0,000 mm 0,0 UV-I 0 W/m 8,1 C 15,6 C 11,3 km/h (2 Bft) 94,29 %
17.06.2017 22:34 15,6 C 23,3 C 61 % 1022,0 hPa 0,0 l/m 7,7 km/h (2 Bft) W-SW 252 0 min 0,000 mm 0,0 UV-I 0 W/m 8,1 C 14,9 C 12,9 km/h (3 Bft) 94,64 %
17.06.2017 22:36 15,6 C 23,3 C 61 % 1022,0 hPa 0,0 l/m 7,9 km/h (2 Bft) W-SW 254 0 min 0,000 mm 0,0 UV-I 0 W/m 8,1 C 14,8 C 12,9 km/h (3 Bft) 96,00 %
17.06.2017 22:38 15,6 C 23,3 C 61 % 1022,0 hPa 0,0 l/m 6,6 km/h (2 Bft) SW 236 0 min 0,000 mm 0,0 UV-I 0 W/m 8,1 C 15,5 C 8,0 km/h (2 Bft) 95,74 %
17.06.2017 22:40 15,6 C 23,3 C 61 % 1022,0 hPa 0,0 l/m 7,9 km/h (2 Bft) W-SW 254 0 min 0,000 mm 0,0 UV-I 0 W/m 8,1 C 14,8 C 12,9 km/h (3 Bft) 100,00 %
17.06.2017 22:42 15,6 C 23,3 C 61 % 1022,0 hPa 0,0 l/m 7,1 km/h (2 Bft) W 262 0 min 0,000 mm 0,0 UV-I 0 W/m 8,1 C 15,2 C 11,3 km/h (2 Bft) 90,91 %
17.06.2017 22:44 15,6 C 23,3 C 61 % 1022,0 hPa 0,0 l/m 7,5 km/h (2 Bft) SW 234 0 min 0,000 mm 0,0 UV-I 0 W/m 8,1 C 15,0 C 11,3 km/h (2 Bft) 96,00 %
17.06.2017 22:46 15,6 C 23,3 C 61 % 1022,1 hPa 0,0 l/m 7,8 km/h (2 Bft) W-SW 244 0 min 0,000 mm 0,0 UV-I 0 W/m 8,1 C 14,8 C 12,9 km/h (3 Bft) 94,00 %
17.06.2017 22:48 15,7 C 23,3 C 61 % 1022,0 hPa 0,0 l/m 9,1 km/h (2 Bft) W-SW 242 0 min 0,000 mm 0,0 UV-I 0 W/m 8,2 C 14,3 C 14,5 km/h (3 Bft) 97,37 %
17.06.2017 22:50 15,7 C 23,3 C 61 % 1022,1 hPa 0,0 l/m 8,6 km/h (2 Bft) W-SW 238 0 min 0,000 mm 0,0 UV-I 0 W/m 8,2 C 14,5 C 12,9 km/h (3 Bft) 95,24 %
17.06.2017 22:52 15,7 C 23,3 C 61 % 1022,1 hPa 0,0 l/m 6,8 km/h (2 Bft) W-SW 246 0 min 0,000 mm 0,0 UV-I 0 W/m 8,2 C 15,5 C 8,0 km/h (2 Bft) 98,08 %
17.06.2017 22:54 15,7 C 23,3 C 61 % 1022,1 hPa 0,0 l/m 7,1 km/h (2 Bft) W-SW 250 0 min 0,000 mm 0,0 UV-I 0 W/m 8,2 C 15,3 C 11,3 km/h (2 Bft) 94,92 %
17.06.2017 22:56 15,7 C 23,3 C 60 % 1022,1 hPa 0,0 l/m 7,1 km/h (2 Bft) W-SW 238 0 min 0,000 mm 0,0 UV-I 0 W/m 8,0 C 15,3 C 8,0 km/h (2 Bft) 91,67 %
17.06.2017 22:58 15,7 C 23,3 C 61 % 1022,1 hPa 0,0 l/m 8,5 km/h (2 Bft) W-SW 250 0 min 0,000 mm 0,0 UV-I 0 W/m 8,2 C 14,6 C 14,5 km/h (3 Bft) 93,62 %
17.06.2017 23:00 15,7 C 22,8 C 61 % 1022,2 hPa 0,0 l/m 8,6 km/h (2 Bft) W-SW 257 0 min 0,000 mm 0,0 UV-I 0 W/m 8,2 C 14,5 C 12,9 km/h (3 Bft) 94,74 %
17.06.2017 23:02 15,7 C 22,8 C 60 % 1022,1 hPa 0,0 l/m 8,2 km/h (2 Bft) W 267 0 min 0,051 mm 0,0 UV-I 0 W/m 8,0 C 14,7 C 11,3 km/h (2 Bft) 97,62 %
17.06.2017 23:04 15,7 C 22,8 C 61 % 1022,2 hPa 0,0 l/m 8,5 km/h (2 Bft) W-SW 254 0 min 0,000 mm 0,0 UV-I 0 W/m 8,2 C 14,6 C 11,3 km/h (2 Bft) 95,45 %
17.06.2017 23:06 15,8 C 22,8 C 60 % 1022,2 hPa 0,0 l/m 8,8 km/h (2 Bft) W-SW 254 0 min 0,000 mm 0,0 UV-I 0 W/m 8,1 C 14,5 C 14,5 km/h (3 Bft) 94,34 %
17.06.2017 23:08 15,8 C 22,8 C 60 % 1022,2 hPa 0,0 l/m 8,1 km/h (2 Bft) W 267 0 min 0,000 mm 0,0 UV-I 0 W/m 8,1 C 14,9 C 12,9 km/h (3 Bft) 95,12 %
17.06.2017 23:10 15,8 C 22,8 C 60 % 1022,2 hPa 0,0 l/m 7,5 km/h (2 Bft) W-SW 244 0 min 0,000 mm 0,0 UV-I 0 W/m 8,1 C 15,2 C 11,3 km/h (2 Bft) 96,00 %
17.06.2017 23:12 15,8 C 23,3 C 60 % 1022,2 hPa 0,0 l/m 7,5 km/h (2 Bft) W-SW 256 0 min 0,000 mm 0,0 UV-I 0 W/m 8,1 C 15,2 C 11,3 km/h (2 Bft) 100,00 %
17.06.2017 23:14 15,8 C 22,8 C 60 % 1022,2 hPa 0,0 l/m 8,0 km/h (2 Bft) W-SW 258 0 min 0,000 mm 0,0 UV-I 0 W/m 8,1 C 14,9 C 11,3 km/h (2 Bft) 94,74 %
17.06.2017 23:16 15,8 C 22,8 C 60 % 1022,2 hPa 0,0 l/m 8,5 km/h (2 Bft) W 259 0 min 0,000 mm 0,0 UV-I 0 W/m 8,1 C 14,7 C 14,5 km/h (3 Bft) 98,11 %
17.06.2017 23:18 15,8 C 22,8 C 59 % 1022,3 hPa 0,0 l/m 8,2 km/h (2 Bft) W 259 0 min 0,000 mm 0,0 UV-I 0 W/m 7,8 C 14,8 C 12,9 km/h (3 Bft) 98,00 %
17.06.2017 23:20 15,8 C 22,8 C 60 % 1022,3 hPa 0,0 l/m 7,3 km/h (2 Bft) W 277 0 min 0,000 mm 0,0 UV-I 0 W/m 8,1 C 15,3 C 11,3 km/h (2 Bft) 100,00 %
17.06.2017 23:22 15,8 C 22,8 C 60 % 1022,4 hPa 0,0 l/m 7,8 km/h (2 Bft) W-SW 251 0 min 0,000 mm 0,0 UV-I 0 W/m 8,1 C 15,0 C 11,3 km/h (2 Bft) 98,00 %
17.06.2017 23:24 15,8 C 22,8 C 60 % 1022,3 hPa 0,0 l/m 9,0 km/h (2 Bft) W 278 0 min 0,000 mm 0,0 UV-I 0 W/m 8,1 C 14,5 C 14,5 km/h (3 Bft) 100,00 %
17.06.2017 23:26 15,7 C 22,8 C 60 % 1022,4 hPa 0,0 l/m 8,2 km/h (2 Bft) W 270 0 min 0,000 mm 0,0 UV-I 0 W/m 8,0 C 14,7 C 12,9 km/h (3 Bft) 97,37 %
17.06.2017 23:28 15,7 C 22,8 C 60 % 1022,4 hPa 0,0 l/m 7,3 km/h (2 Bft) W-SW 257 0 min 0,000 mm 0,0 UV-I 0 W/m 8,0 C 15,2 C 11,3 km/h (2 Bft) 96,00 %
17.06.2017 23:30 15,7 C 22,8 C 60 % 1022,4 hPa 0,0 l/m 8,3 km/h (2 Bft) SW 236 0 min 0,000 mm 0,0 UV-I 0 W/m 8,0 C 14,7 C 11,3 km/h (2 Bft) 100,00 %
17.06.2017 23:32 15,7 C 22,8 C 60 % 1022,4 hPa 0,0 l/m 7,1 km/h (2 Bft) W-SW 246 0 min 0,000 mm 0,0 UV-I 0 W/m 8,0 C 15,3 C 11,3 km/h (2 Bft) 97,56 %
17.06.2017 23:34 15,7 C 22,8 C 60 % 1022,5 hPa 0,0 l/m 7,4 km/h (2 Bft) W 263 0 min 0,000 mm 0,0 UV-I 0 W/m 8,0 C 15,2 C 11,3 km/h (2 Bft) 100,00 %
17.06.2017 23:36 15,7 C 22,8 C 60 % 1022,4 hPa 0,0 l/m 5,9 km/h (2 Bft) W-SW 240 0 min 0,000 mm 0,0 UV-I 0 W/m 8,0 C 15,7 C 11,3 km/h (2 Bft) 98,00 %
17.06.2017 23:38 15,7 C 22,8 C 60 % 1022,4 hPa 0,0 l/m 7,7 km/h (2 Bft) W-SW 242 0 min 0,000 mm 0,0 UV-I 0 W/m 8,0 C 15,0 C 12,9 km/h (3 Bft) 98,11 %
17.06.2017 23:40 15,7 C 22,8 C 60 % 1022,4 hPa 0,0 l/m 8,1 km/h (2 Bft) W 261 0 min 0,000 mm 0,0 UV-I 0 W/m 8,0 C 14,8 C 14,5 km/h (3 Bft) 97,22 %
17.06.2017 23:42 15,7 C 22,8 C 60 % 1022,5 hPa 0,0 l/m 5,3 km/h (1 Bft) W 266 0 min 0,000 mm 0,0 UV-I 0 W/m 8,0 C 15,7 C 6,4 km/h (2 Bft) 98,00 %
17.06.2017 23:44 15,7 C 22,8 C 60 % 1022,5 hPa 0,0 l/m 7,2 km/h (2 Bft) W 269 0 min 0,000 mm 0,0 UV-I 0 W/m 8,0 C 15,3 C 11,3 km/h (2 Bft) 100,00 %
17.06.2017 23:46 15,7 C 22,8 C 60 % 1022,5 hPa 0,0 l/m 6,8 km/h (2 Bft) W 266 0 min 0,000 mm 0,0 UV-I 0 W/m 8,0 C 15,5 C 9,7 km/h (2 Bft) 96,00 %
17.06.2017 23:48 15,7 C 22,8 C 60 % 1022,5 hPa 0,0 l/m 5,4 km/h (1 Bft) W-NW 285 0 min 0,000 mm 0,0 UV-I 0 W/m 8,0 C 15,7 C 11,3 km/h (2 Bft) 100,00 %
17.06.2017 23:50 15,7 C 22,8 C 60 % 1022,5 hPa 0,0 l/m 5,9 km/h (2 Bft) W 276 0 min 0,000 mm 0,0 UV-I 0 W/m 8,0 C 15,7 C 11,3 km/h (2 Bft) 97,87 %
17.06.2017 23:52 15,7 C 22,8 C 60 % 1022,5 hPa 0,0 l/m 5,4 km/h (1 Bft) W 278 0 min 0,000 mm 0,0 UV-I 0 W/m 8,0 C 15,7 C 9,7 km/h (2 Bft) 96,00 %
17.06.2017 23:54 15,7 C 22,8 C 60 % 1022,5 hPa 0,0 l/m 5,3 km/h (1 Bft) W 259 0 min 0,000 mm 0,0 UV-I 0 W/m 8,0 C 15,7 C 9,7 km/h (2 Bft) 98,11 %
17.06.2017 23:56 15,7 C 22,8 C 60 % 1022,5 hPa 0,0 l/m 5,9 km/h (2 Bft) W-SW 255 0 min 0,000 mm 0,0 UV-I 0 W/m 8,0 C 15,7 C 9,7 km/h (2 Bft) 97,87 %
17.06.2017 23:58 15,7 C 22,8 C 60 % 1022,6 hPa 0,0 l/m 6,4 km/h (2 Bft) W 267 0 min 0,000 mm 0,0 UV-I 0 W/m 8,0 C 15,7 C 12,9 km/h (3 Bft) 100,00 %
_ Min-Zeit 22:30 23:00 15:12 00:00 - 23:42 - - - - - - 12:36 07:54 23:42 13:20
Minimum _ 15,6 C 22,8 C 41 % 1017,9 hPa - 5,3 km/h (1 Bft) - - - - - - 6,3 C 11,6 C 6,4 km/h (2 Bft) 87,23 %
_ Max-Zeit 15:30 15:34 06:44 23:58 00:00 14:54 - - 11:53 15:02 12:26 11:26 09:14 15:28 11:58 00:04
Maximum _ 21,3 C 25,6 C 66 % 1022,6 hPa 0,0 l/m 26,7 km/h
W-SW (4 Bft)
- - 3 min 0,558 mm 6,8 UV-I 1152 W/m 10,1 C 20,3 C 40,2 km/h
W (6 Bft)
100,00 %
Durchschnitt _ 18,0 C 23,5 C 54 % 1020,1 hPa #0,0 l/m 12,5 km/h (3 Bft) W-SW - #7:54 h #5,309 mm 2,8 UV-I 358 W/m 8,2 C 15,7 C 21,5 km/h (4 Bft) 96,54 %